[[{"header":{"parameterUnit":"m.s-1","parameterCategory":1,"la1":31.0,"la2":29.5877,"lo1":-88.7671,"lo2":-86.6584,"dy":0.0162,"dx":0.0185,"nx":115,"ny":88,"refTime":"2023-07-15T12:00:00:Z","depth":0,"parameterNumber":2,"parameterNumberName":"U-component_of_WINDS"},"data":[0.0,0.0,0.0,0.0,0.0,0.0,0.0,0.0,0.0,0.0,0.0,0.0,0.0,0.0,0.0,0.0,0.0,0.0,0.0,0.0,0.0,0.0,0.0,0.0,0.0,0.0,0.0,0.0,0.0,0.0,0.0,0.0,0.0,0.0,0.0,0.0,0.0,0.0,0.0,0.0,0.0,0.0,0.0,0.0,0.0,0.0,0.0,0.0,0.0,0.0,0.0,0.0,0.0,0.0,0.0,0.0,0.0,0.0,0.0,0.0,0.0,0.0,0.0,0.0,0.0,0.0,0.0,0.0,0.0,0.0,0.0,0.0,0.0,0.0,0.0,0.0,0.0,0.0,0.0,0.0,0.0,0.0,0.0,0.0,0.0,0.0,0.0,0.0,0.0,0.0,0.0,0.0,0.0,0.0,0.0,0.0,0.0,0.0,0.0,0.0,0.0,0.0,0.0,0.0,0.0,0.0,0.0,0.0,0.0,0.0,0.0,0.0,0.0,0.0,0.0,0.0,0.0,0.0,0.0,0.0,0.0,0.0,0.0,0.0,0.0,0.0,0.0,0.0,0.0,0.0,0.0,0.0,0.0,0.0,0.0,0.0,0.0,0.0,0.0,0.0,0.0,0.0,0.0,0.0,0.0,0.0,0.0,0.0,0.0,0.0,0.0,0.0,0.0,0.0,0.0,0.0,0.0,0.0,0.0,0.0,0.0,0.0,0.0,0.0,0.0,0.0,0.0,0.0,0.0,0.0,0.0,0.0,0.0,0.0,0.0,0.0,0.0,0.0,0.0,0.0,0.0,0.0,0.0,0.0,0.0,0.0,0.0,0.0,0.0,0.0,0.0,0.0,0.0,0.0,0.0,0.0,0.0,0.0,0.0,0.0,0.0,0.0,0.0,0.0,0.0,0.0,0.0,0.0,0.0,0.0,0.0,0.0,0.0,0.0,0.0,0.0,0.0,0.0,0.0,0.0,0.0,0.0,0.0,0.0,0.0,0.0,0.0,0.0,0.0,0.0,0.0,0.0,0.0,0.0,0.0,0.0,0.0,0.0,0.0,0.0,0.0,0.0,0.0,0.0,0.0,0.0,0.0,0.0,0.0,0.0,0.0,0.0,0.0,0.0,0.0,0.0,0.0,0.0,0.0,0.0,0.0,0.0,0.0,0.0,0.0,0.0,0.0,0.0,0.0,0.0,0.0,0.0,0.0,0.0,0.0,0.0,0.0,0.0,0.0,0.0,0.0,0.0,0.0,0.0,0.0,0.0,0.0,0.0,0.0,0.0,0.0,0.0,0.0,0.0,0.0,0.0,0.0,0.0,0.0,0.0,0.0,0.0,0.0,0.0,0.0,0.0,0.0,0.0,0.0,0.0,0.0,0.0,0.0,0.0,0.0,0.0,0.0,0.0,0.0,0.0,0.0,0.0,0.0,0.0,0.0,0.0,0.0,0.0,0.0,0.0,0.0,0.0,0.0,0.0,0.0,0.0,0.0,0.0,0.0,0.0,0.0,0.0,0.0,0.0,0.0,0.0,0.0,0.0,0.0,0.0,0.0,0.0,0.0,0.0,0.0,0.0,0.0,0.0,0.0,0.0,0.0,0.0,0.0,0.0,0.0,0.0,0.0,0.0,0.0,0.0,0.0,0.0,0.0,0.0,0.0,0.0,0.0,0.0,0.0,0.0,0.0,0.0,0.0,0.0,0.0,0.0,0.0,0.0,0.0,0.0,0.0,0.0,0.0,0.0,0.0,0.0,0.0,0.0,0.0,0.0,0.0,0.0,0.0,0.0,0.0,0.0,0.0,0.0,0.0,0.0,0.0,0.0,0.0,0.0,0.0,0.0,0.0,0.0,0.0,0.0,0.0,0.0,0.0,0.0,0.0,0.0,0.0,0.0,0.0,0.0,0.0,0.0,0.0,0.0,0.0,0.0,0.0,0.0,0.0,0.0,0.0,0.0,0.0,0.0,0.0,0.0,0.0,0.0,0.0,0.0,0.0,0.0,0.0,0.0,0.0,0.0,0.0,0.0,0.0,0.0,0.0,0.0,0.0,0.0,0.0,0.0,0.0,0.0,0.0,0.0,0.0,0.0,0.0,0.0,0.0,0.0,0.0,0.0,0.0,0.0,0.0,0.0,0.0,0.0,0.0,0.0,0.0,0.0,0.0,0.0,0.0,0.0,0.0,0.0,0.0,0.0,0.0,0.0,0.0,0.0,0.0,0.0,0.0,0.0,0.0,0.0,0.0,0.0,0.0,0.0,0.0,0.0,0.0,0.0,0.0,0.0,0.0,0.0,0.0,0.0,0.0,0.0,0.0,0.0,0.0,0.0,0.0,0.0,0.0,0.0,0.0,0.0,0.0,0.0,0.0,0.0,0.0,0.0,0.0,0.0,0.0,0.0,0.0,0.0,0.0,0.0,0.0,0.0,0.0,0.0,0.0,0.0,0.0,0.0,0.0,0.0,0.0,0.0,0.0,0.0,0.0,0.0,0.0,0.0,0.0,0.0,0.0,0.0,0.0,0.0,0.0,0.0,0.0,0.0,0.0,0.0,0.0,0.0,0.0,0.0,0.0,0.0,0.0,0.0,0.0,0.0,0.0,0.0,0.0,0.0,0.0,0.0,0.0,0.0,0.0,0.0,0.0,0.0,0.0,0.0,0.0,0.0,0.0,0.0,0.0,0.0,0.0,0.0,0.0,0.0,0.0,0.0,0.0,0.0,0.0,0.0,0.0,0.0,0.0,0.0,0.0,0.0,0.0,0.0,0.0,0.0,0.0,0.0,0.0,0.0,0.0,0.0,0.0,0.0,0.0,0.0,0.0,0.0,0.0,0.0,0.0,0.0,0.0,0.0,0.0,0.0,0.0,0.0,0.0,0.0,0.0,0.0,0.0,0.0,0.0,0.0,0.0,0.0,0.0,0.0,0.0,0.0,0.0,0.0,0.0,0.0,0.0,0.0,0.0,0.0,0.0,0.0,0.0,0.0,0.0,0.0,0.0,0.0,0.0,0.0,0.0,0.0,0.0,0.0,0.0,0.0,0.0,0.0,0.0,0.0,0.0,0.0,0.0,0.0,0.0,0.0,0.0,0.0,0.0,0.0,0.0,0.0,0.0,0.0,0.0,0.0,0.0,0.0,0.0,0.0,0.0,0.0,0.0,0.0,0.0,0.0,0.0,0.0,0.0,0.0,0.0,0.0,0.0,0.0,0.0,0.0,0.0,0.0,0.0,0.0,0.0,0.0,0.0,0.0,0.0,0.0,0.0,0.0,0.0,0.0,0.0,0.0,0.0,0.0,0.0,0.0,0.0,0.0,0.0,0.0,0.0,0.0,0.0,0.0,0.0,0.0,0.0,0.0,0.0,0.0,0.0,0.0,0.0,0.0,0.0,0.0,0.0,0.0,0.0,0.0,0.0,0.0,0.0,0.0,0.0,0.0,0.0,0.0,0.0,0.0,0.0,0.0,0.0,0.0,0.0,0.0,0.0,0.0,0.0,0.0,0.0,0.0,0.0,0.0,0.0,0.0,0.0,0.0,0.0,0.0,0.0,0.0,0.0,0.0,0.0,0.0,0.0,0.0,0.0,0.0,0.0,0.0,0.0,0.0,0.0,0.0,0.0,0.0,0.0,0.0,0.0,0.0,0.0,0.0,0.0,0.0,0.0,0.0,0.0,0.0,0.0,0.0,0.0,0.0,0.0,0.0,0.0,0.0,0.0,0.0,0.0,0.0,0.0,0.0,0.0,0.0,0.0,0.0,0.0,0.0,0.0,0.0,0.0,0.0,0.0,0.0,0.0,0.0,0.0,0.0,0.0,0.0,0.0,0.0,0.0,0.0,0.0,0.0,0.0,0.0,0.0,0.0,0.0,0.0,0.0,0.0,0.0,0.0,0.0,0.0,0.0,0.0,0.0,0.0,0.0,0.0,0.0,0.0,0.0,0.0,0.0,0.0,0.0,0.0,0.0,0.0,0.0,0.0,0.0,0.0,0.0,0.0,0.0,0.0,0.0,0.0,0.0,0.0,0.0,0.0,0.0,0.0,0.0,0.0,0.0,0.0,0.0,0.0,0.0,0.0,0.0,0.0,0.0,0.0,0.0,0.0,0.0,0.0,0.0,0.0,0.0,0.0,0.0,0.0,0.0,0.0,0.0,0.0,0.0,0.0,0.0,0.0,0.0,0.0,0.0,0.0,0.0,0.0,0.0,0.0,0.0,0.0,0.0,0.0,0.0,0.0,0.0,0.0,0.0,0.0,0.0,0.0,0.0,0.0,0.0,0.0,-2.1042,0.0,0.0,0.0,0.0,0.0,0.0,0.0,0.0,0.0,0.0,0.0,0.0,0.0,0.0,0.0,0.0,0.0,0.0,0.0,0.0,0.0,0.0,0.0,0.0,0.0,0.0,0.0,0.0,0.0,0.0,0.0,0.0,0.0,0.0,0.0,0.0,0.0,0.0,0.0,0.0,0.0,0.0,0.0,0.0,0.0,0.0,0.0,0.0,0.0,0.0,0.0,0.0,0.0,0.0,0.0,0.0,0.0,0.0,0.0,0.0,0.0,0.0,0.0,0.0,0.0,0.0,0.0,0.0,0.0,0.0,0.0,0.0,0.0,0.0,0.0,0.0,0.0,0.0,0.0,0.0,0.0,0.0,0.0,0.0,0.0,0.0,0.0,0.0,0.0,0.0,0.0,0.0,0.0,0.0,0.0,0.0,0.0,0.0,0.0,0.0,0.0,0.0,0.0,0.0,0.0,0.0,0.0,0.0,0.0,0.0,-2.5149,-2.5277,-2.4385,-2.3155,-2.1519,0.0,0.0,0.0,0.0,0.0,0.0,0.0,0.0,0.0,0.0,0.0,0.0,0.0,0.0,0.0,0.0,0.0,0.0,0.0,0.0,0.0,0.0,0.0,0.0,0.0,0.0,0.0,0.0,0.0,0.0,0.0,0.0,0.0,0.0,0.0,0.0,0.0,0.0,0.0,0.0,0.0,0.0,0.0,0.0,0.0,0.0,0.0,0.0,0.0,0.0,0.0,0.0,0.0,0.0,0.0,0.0,0.0,0.0,0.0,0.0,0.0,0.0,0.0,0.0,0.0,0.0,0.0,0.0,0.0,0.0,0.0,0.0,0.0,0.0,0.0,0.0,0.0,0.0,0.0,0.0,0.0,0.0,0.0,0.0,0.0,0.0,0.0,0.0,0.0,0.0,0.0,0.0,0.0,0.0,0.0,0.0,0.0,0.0,0.0,0.0,0.0,0.0,0.0,0.0,0.0,0.0,0.0,0.0,0.0,0.0,0.0,0.0,-2.5573,-2.371,-2.1238,0.0,0.0,0.0,0.0,0.0,0.0,0.0,0.0,0.0,0.0,0.0,0.0,0.0,0.0,0.0,0.0,0.0,0.0,0.0,0.0,0.0,0.0,0.0,0.0,0.0,0.0,0.0,0.0,0.0,0.0,0.0,0.0,0.0,0.0,0.0,0.0,0.0,0.0,0.0,0.0,0.0,0.0,0.0,0.0,0.0,0.0,0.0,0.0,0.0,0.0,0.0,0.0,0.0,0.0,0.0,0.0,0.0,0.0,0.0,0.0,0.0,0.0,0.0,0.0,0.0,0.0,0.0,0.0,0.0,0.0,0.0,0.0,0.0,0.0,0.0,0.0,0.0,0.0,0.0,0.0,0.0,0.0,0.0,0.0,0.0,0.0,0.0,0.0,0.0,0.0,0.0,0.0,0.0,0.0,0.0,0.0,0.0,0.0,0.0,0.0,0.0,0.0,0.0,0.0,0.0,0.0,0.0,0.0,0.0,0.0,-2.7494,-2.6983,-2.5635,0.0,-1.9218,0.0,0.0,0.0,0.0,0.0,0.0,0.0,0.0,0.0,0.0,0.0,0.0,0.0,0.0,0.0,0.0,0.0,0.0,0.0,0.0,0.0,0.0,0.0,0.0,0.0,0.0,0.0,0.0,0.0,0.0,0.0,0.0,0.0,0.0,0.0,0.0,0.0,0.0,0.0,0.0,0.0,0.0,0.0,0.0,0.0,0.0,0.0,0.0,0.0,0.0,0.0,0.0,0.0,0.0,0.0,0.0,0.0,0.0,0.0,0.0,0.0,0.0,0.0,0.0,0.0,0.0,0.0,0.0,0.0,0.0,0.0,0.0,0.0,0.0,0.0,0.0,0.0,0.0,0.0,0.0,0.0,0.0,0.0,0.0,0.0,0.0,0.0,0.0,0.0,0.0,0.0,0.0,0.0,0.0,0.0,0.0,0.0,0.0,0.0,0.0,0.0,0.0,0.0,0.0,0.0,0.0,0.0,0.0,0.0,0.0,-2.8902,-2.8439,-2.557,-2.264,0.0,0.0,0.0,0.0,0.0,0.0,0.0,0.0,0.0,0.0,0.0,0.0,0.0,0.0,0.0,0.0,0.0,0.0,0.0,0.0,0.0,0.0,0.0,0.0,0.0,0.0,0.0,0.0,0.0,0.0,0.0,0.0,0.0,0.0,0.0,0.0,0.0,0.0,0.0,0.0,0.0,0.0,0.0,0.0,0.0,0.0,0.0,0.0,0.0,0.0,0.0,0.0,0.0,0.0,0.0,0.0,0.0,0.0,0.0,0.0,0.0,0.0,0.0,0.0,0.0,0.0,0.0,0.0,0.0,0.0,0.0,0.0,0.0,0.0,0.0,0.0,0.0,0.0,0.0,0.0,0.0,0.0,0.0,0.0,0.0,0.0,0.0,0.0,0.0,0.0,0.0,0.0,0.0,0.0,0.0,0.0,0.0,0.0,0.0,0.0,0.0,0.0,0.0,0.0,0.0,0.0,0.0,0.0,0.0,0.0,-2.9969,-2.9928,-2.887,-2.5612,-2.2801,-2.0698,0.0,0.0,0.0,0.0,0.0,0.0,0.0,0.0,0.0,0.0,0.0,0.0,0.0,0.0,0.0,0.0,0.0,0.0,0.0,0.0,0.0,0.0,0.0,0.0,0.0,0.0,0.0,0.0,0.0,0.0,0.0,0.0,0.0,0.0,0.0,0.0,0.0,0.0,0.0,0.0,0.0,0.0,0.0,0.0,0.0,0.0,0.0,0.0,0.0,0.0,0.0,0.0,0.0,0.0,0.0,0.0,0.0,0.0,0.0,0.0,0.0,0.0,0.0,0.0,0.0,0.0,0.0,0.0,0.0,0.0,0.0,0.0,0.0,0.0,0.0,0.0,0.0,0.0,0.0,0.0,0.0,0.0,0.0,0.0,0.0,0.0,0.0,0.0,0.0,0.0,0.0,0.0,0.0,0.0,0.0,0.0,0.0,0.0,0.0,0.0,0.0,0.0,0.0,0.0,0.0,0.0,0.0,0.0,-2.9894,-3.0831,-3.0237,-2.7972,-2.5841,-2.3633,0.0,0.0,0.0,0.0,0.0,0.0,0.0,0.0,0.0,0.0,0.0,0.0,0.0,0.0,0.0,0.0,0.0,0.0,0.0,0.0,0.0,0.0,0.0,0.0,0.0,0.0,0.0,0.0,0.0,0.0,0.0,0.0,0.0,0.0,0.0,0.0,0.0,0.0,0.0,0.0,0.0,0.0,0.0,0.0,0.0,0.0,0.0,0.0,0.0,0.0,0.0,0.0,0.0,0.0,0.0,0.0,0.0,0.0,0.0,0.0,0.0,0.0,0.0,0.0,0.0,0.0,0.0,0.0,0.0,0.0,0.0,0.0,0.0,0.0,0.0,0.0,0.0,0.0,0.0,0.0,0.0,0.0,0.0,0.0,0.0,0.0,0.0,0.0,0.0,0.0,0.0,0.0,0.0,0.0,0.0,0.0,0.0,0.0,0.0,0.0,0.0,0.0,0.0,0.0,0.0,0.0,0.0,0.0,0.0,-3.0773,-3.0817,-3.0018,-2.8278,-2.6189,-2.4213,0.0,0.0,0.0,0.0,0.0,0.0,0.0,0.0,0.0,0.0,0.0,0.0,0.0,0.0,0.0,0.0,0.0,0.0,0.0,0.0,0.0,0.0,0.0,0.0,0.0,0.0,0.0,0.0,0.0,0.0,0.0,0.0,0.0,0.0,0.0,0.0,0.0,0.0,0.0,0.0,0.0,0.0,0.0,0.0,0.0,0.0,0.0,0.0,0.0,0.0,0.0,0.0,0.0,0.0,0.0,0.0,0.0,0.0,0.0,0.0,0.0,0.0,0.0,0.0,0.0,0.0,0.0,0.0,0.0,0.0,0.0,0.0,0.0,0.0,0.0,0.0,0.0,0.0,0.0,0.0,0.0,0.0,0.0,0.0,0.0,0.0,0.0,0.0,0.0,0.0,0.0,0.0,0.0,0.0,0.0,0.0,0.0,0.0,0.0,0.0,0.0,0.0,0.0,0.0,0.0,0.0,0.0,0.0,0.0,-3.2011,0.0,-3.0425,-2.9061,-2.7137,-2.5131,0.0,0.0,0.0,0.0,0.0,0.0,0.0,0.0,0.0,0.0,0.0,0.0,0.0,0.0,0.0,0.0,0.0,0.0,0.0,0.0,0.0,0.0,0.0,0.0,0.0,0.0,0.0,0.0,0.0,0.0,0.0,0.0,0.0,0.0,0.0,0.0,0.0,0.0,0.0,0.0,0.0,0.0,0.0,0.0,0.0,0.0,0.0,0.0,0.0,0.0,0.0,0.0,0.0,0.0,0.0,0.0,0.0,0.0,0.0,0.0,0.0,0.0,0.0,0.0,0.0,0.0,0.0,0.0,0.0,0.0,0.0,0.0,0.0,0.0,0.0,0.0,0.0,0.0,0.0,0.0,0.0,0.0,0.0,0.0,0.0,0.0,0.0,0.0,0.0,0.0,0.0,0.0,0.0,0.0,0.0,0.0,0.0,0.0,0.0,0.0,0.0,0.0,0.0,0.0,0.0,0.0,0.0,0.0,-3.1008,-3.3612,-3.2906,-3.1748,-3.0208,-2.8529,-2.6523,0.0,0.0,0.0,0.0,0.0,0.0,0.0,0.0,0.0,0.0,0.0,0.0,0.0,0.0,0.0,0.0,0.0,0.0,0.0,0.0,0.0,0.0,0.0,0.0,0.0,0.0,0.0,0.0,0.0,0.0,0.0,0.0,0.0,0.0,0.0,0.0,0.0,0.0,0.0,0.0,0.0,0.0,0.0,0.0,0.0,0.0,0.0,0.0,0.0,0.0,0.0,0.0,0.0,0.0,0.0,0.0,0.0,0.0,0.0,0.0,0.0,0.0,0.0,0.0,0.0,0.0,0.0,0.0,0.0,0.0,0.0,0.0,0.0,0.0,0.0,0.0,0.0,0.0,0.0,0.0,0.0,0.0,0.0,0.0,0.0,0.0,0.0,0.0,0.0,0.0,0.0,0.0,0.0,0.0,0.0,0.0,0.0,0.0,0.0,0.0,0.0,0.0,0.0,0.0,0.0,0.0,0.0,0.0,0.0,-3.4341,-3.4054,-3.3132,-3.1528,-2.9138,-2.7049,0.0,0.0,0.0,0.0,0.0,0.0,0.0,0.0,0.0,0.0,0.0,0.0,0.0,0.0,0.0,0.0,0.0,0.0,0.0,0.0,0.0,0.0,0.0,0.0,0.0,0.0,0.0,0.0,0.0,0.0,0.0,0.0,0.0,0.0,0.0,0.0,0.0,0.0,0.0,0.0,0.0,0.0,0.0,0.0,0.0,0.0,0.0,0.0,0.0,0.0,0.0,0.0,0.0,0.0,0.0,0.0,0.0,0.0,0.0,0.0,0.0,0.0,0.0,0.0,0.0,0.0,0.0,0.0,0.0,0.0,0.0,0.0,0.0,0.0,0.0,0.0,0.0,0.0,0.0,0.0,0.0,0.0,0.0,0.0,0.0,0.0,0.0,0.0,0.0,0.0,0.0,0.0,0.0,0.0,0.0,0.0,0.0,0.0,0.0,0.0,0.0,0.0,0.0,0.0,0.0,0.0,0.0,0.0,0.0,-3.7376,-3.6875,-3.5852,-3.4242,-3.1498,-2.888,-2.6383,0.0,0.0,0.0,0.0,0.0,0.0,0.0,0.0,0.0,0.0,0.0,0.0,0.0,0.0,0.0,0.0,0.0,0.0,0.0,0.0,0.0,0.0,0.0,0.0,0.0,0.0,0.0,0.0,0.0,0.0,0.0,0.0,0.0,0.0,0.0,0.0,0.0,0.0,0.0,0.0,0.0,0.0,0.0,0.0,0.0,0.0,0.0,0.0,0.0,0.0,0.0,0.0,0.0,0.0,0.0,0.0,0.0,0.0,0.0,0.0,0.0,0.0,0.0,0.0,0.0,0.0,0.0,0.0,0.0,0.0,0.0,0.0,0.0,0.0,0.0,0.0,0.0,0.0,0.0,0.0,0.0,0.0,0.0,0.0,0.0,0.0,0.0,0.0,0.0,0.0,0.0,0.0,0.0,0.0,0.0,0.0,0.0,0.0,0.0,0.0,0.0,0.0,0.0,0.0,0.0,0.0,0.0,0.0,-4.2132,-4.1024,-3.9626,-3.7871,-3.5104,-3.1713,0.0,0.0,0.0,0.0,0.0,0.0,0.0,0.0,0.0,0.0,0.0,0.0,0.0,0.0,0.0,0.0,0.0,0.0,0.0,0.0,0.0,0.0,0.0,0.0,0.0,0.0,0.0,0.0,0.0,0.0,0.0,0.0,0.0,0.0,0.0,0.0,0.0,0.0,0.0,0.0,0.0,0.0,0.0,0.0,0.0,0.0,0.0,0.0,0.0,0.0,0.0,0.0,0.0,0.0,0.0,0.0,0.0,0.0,0.0,0.0,0.0,0.0,0.0,0.0,0.0,0.0,0.0,0.0,0.0,0.0,0.0,0.0,0.0,0.0,0.0,0.0,0.0,0.0,0.0,0.0,0.0,0.0,0.0,0.0,0.0,0.0,0.0,0.0,0.0,0.0,0.0,0.0,0.0,0.0,0.0,0.0,0.0,0.0,0.0,0.0,0.0,0.0,0.0,0.0,0.0,0.0,0.0,0.0,0.0,-4.3658,-4.5119,-4.3811,-4.0116,-3.6936,-3.3325,0.0,0.0,0.0,0.0,0.0,0.0,0.0,0.0,0.0,0.0,0.0,0.0,0.0,0.0,0.0,0.0,0.0,0.0,0.0,0.0,0.0,0.0,0.0,0.0,0.0,0.0,0.0,0.0,0.0,0.0,0.0,0.0,0.0,0.0,0.0,0.0,0.0,0.0,0.0,0.0,0.0,0.0,0.0,0.0,0.0,0.0,0.0,0.0,0.0,0.0,0.0,0.0,0.0,0.0,0.0,0.0,0.0,0.0,0.0,0.0,0.0,0.0,0.0,0.0,0.0,0.0,0.0,0.0,0.0,0.0,0.0,0.0,0.0,0.0,0.0,0.0,0.0,0.0,0.0,0.0,0.0,0.0,0.0,0.0,0.0,0.0,0.0,0.0,0.0,0.0,0.0,0.0,0.0,0.0,0.0,0.0,0.0,0.0,0.0,0.0,0.0,0.0,0.0,0.0,0.0,0.0,0.0,0.0,-1.7271,-2.5444,-2.707,-2.9076,-3.1689,-3.6636,-3.6891,0.0,0.0,0.0,0.0,0.0,0.0,0.0,0.0,0.0,0.0,0.0,0.0,0.0,0.0,0.0,0.0,0.0,0.0,0.0,0.0,0.0,0.0,0.0,0.0,0.0,0.0,0.0,0.0,0.0,0.0,0.0,0.0,0.0,0.0,0.0,0.0,0.0,0.0,0.0,0.0,0.0,0.0,0.0,0.0,0.0,0.0,0.0,0.0,0.0,0.0,0.0,0.0,0.0,0.0,0.0,0.0,0.0,0.0,0.0,0.0,0.0,0.0,0.0,0.0,0.0,0.0,0.0,0.0,0.0,0.0,0.0,0.0,0.0,0.0,0.0,0.0,0.0,0.0,0.0,0.0,0.0,0.0,0.0,0.0,0.0,0.0,0.0,0.0,0.0,0.0,0.0,0.0,0.0,0.0,0.0,0.0,0.0,0.0,0.0,0.0,0.0,0.0,0.0,0.0,0.0,0.0,0.0,0.0,0.1331,0.0976,0.0098,-0.5826,-1.7176,-3.2878,-3.9393,0.0,0.0,0.0,0.0,0.0,0.0,0.0,0.0,0.0,0.0,0.0,0.0,0.0,0.0,0.0,0.0,0.0,0.0,0.0,0.0,0.0,0.0,0.0,0.0,0.0,0.0,0.0,0.0,0.0,0.0,0.0,0.0,0.0,0.0,0.0,0.0,0.0,0.0,0.0,0.0,0.0,0.0,0.0,0.0,0.0,0.0,0.0,0.0,0.0,0.0,0.0,0.0,0.0,0.0,0.0,0.0,0.0,0.0,0.0,0.0,0.0,0.0,0.0,0.0,0.0,0.0,0.0,0.0,0.0,0.0,0.0,0.0,0.0,0.0,0.0,0.0,0.0,0.0,0.0,0.0,0.0,0.0,0.0,0.0,0.0,0.0,0.0,0.0,0.0,0.0,0.0,0.0,0.0,0.0,0.0,0.0,0.0,0.0,0.0,0.0,0.0,0.0,0.0,0.0,0.0,0.0,0.0,0.0,1.117,0.1526,0.1397,-0.0087,-0.3527,-1.782,-2.8838,0.0,0.0,0.0,0.0,0.0,0.0,0.0,0.0,0.0,0.0,0.0,0.0,0.0,0.0,0.0,0.0,0.0,0.0,0.0,0.0,0.0,0.0,0.0,0.0,0.0,0.0,0.0,0.0,0.0,0.0,0.0,0.0,0.0,0.0,0.0,0.0,0.0,0.0,0.0,0.0,0.0,0.0,0.0,0.0,0.0,0.0,0.0,0.0,0.9883,0.0,0.0,0.0,0.0,0.0,0.0,0.0,0.0,0.0,0.0,0.0,0.0,0.0,0.0,0.0,0.0,0.0,0.0,0.0,0.0,0.0,0.0,0.0,0.0,0.0,0.0,0.0,0.0,0.0,0.0,0.0,0.0,0.0,0.0,0.0,0.0,0.0,0.0,0.0,0.0,0.0,0.0,0.0,0.0,0.0,0.0,0.0,0.0,0.0,0.0,0.0,0.0,0.0,0.0,0.0,0.0,0.0,0.0,0.0,2.944,2.4565,2.5452,2.2704,1.5696,0.6714,-0.7297,0.0,0.0,0.0,0.0,0.0,0.0,0.0,0.0,0.0,0.0,0.0,0.0,0.0,0.0,0.0,0.0,0.0,0.0,0.0,0.0,0.0,0.0,0.0,0.0,0.0,0.0,0.0,0.0,0.0,0.0,0.0,0.0,0.0,0.0,0.0,0.0,0.0,0.0,0.0,0.0,0.0,0.0,0.0,0.0,0.0,0.0,0.0,0.0,0.0,0.0,0.0,0.0,0.0,0.0,0.0,0.0,0.0,0.0,0.0,0.0,0.0,0.0,0.0,0.0,0.0,0.0,0.0,0.0,0.0,0.0,0.0,0.0,0.0,0.0,0.0,0.0,0.0,0.0,0.0,0.0,0.0,0.0,0.0,0.0,0.0,0.0,0.0,0.0,0.0,0.0,0.0,0.0,0.0,0.0,0.0,0.0,0.0,0.0,0.0,0.0,0.0,0.0,0.0,0.0,0.0,0.0,0.0,4.1835,4.6449,5.009,5.2102,4.7667,3.6408,3.1033,1.6225,-0.9064,0.0,0.0,0.0,0.0,0.0,0.0,0.0,0.0,0.0,0.0,0.0,0.0,0.0,0.0,0.0,0.0,0.0,0.0,0.0,0.0,0.0,0.0,0.0,0.0,0.0,0.0,0.0,0.0,0.0,0.0,0.0,0.0,0.0,0.0,0.0,0.0,0.0,0.0,1.6232,1.536,0.0,0.0,0.0,0.0,0.0,0.0,0.0,0.0,1.0467,0.0,0.0,0.0,0.0,0.0,0.0,0.0,0.0,0.0,0.0,0.0,0.0,0.0,0.0,0.0,0.0,0.0,0.0,0.0,0.0,0.0,0.0,0.0,0.0,0.0,0.0,0.0,0.0,0.0,0.0,0.0,0.0,0.0,0.0,0.0,0.0,0.0,0.0,0.0,0.0,0.0,0.0,0.0,0.0,0.0,0.0,0.0,0.0,0.0,0.0,0.0,0.0,0.0,0.0,0.0,0.0,2.4452,3.7289,4.584,4.9621,5.2353,5.3309,5.2107,3.9658,2.9059,2.0945,0.0,0.0,0.0,0.0,0.0,0.0,0.0,0.0,0.0,0.0,0.0,0.0,0.0,0.0,0.0,0.0,0.0,0.0,0.0,0.0,0.0,0.0,0.0,0.0,0.0,0.0,0.0,0.0,0.0,0.0,0.0,0.0,0.0,0.0,0.0,0.0,0.0,0.0,0.0,1.5468,1.3574,0.0,0.0,0.0,0.0,0.0,0.0,0.0,0.0,1.1039,0.0,0.0,0.0,0.0,0.0,0.0,0.0,0.0,0.0,0.0,0.0,0.0,0.0,0.0,0.0,0.0,0.0,0.0,0.0,0.0,0.0,0.0,0.0,0.0,0.0,0.0,0.0,0.0,0.0,0.0,0.0,0.0,0.0,0.0,0.0,0.0,0.0,0.0,0.0,0.0,0.0,0.0,0.0,0.0,0.0,0.0,0.0,0.0,0.0,0.0,0.0,0.0,0.0,0.0,0.0,2.1875,3.0392,3.9085,4.7819,5.0685,5.3006,5.4859,4.6889,4.1606,0.0,0.0,0.0,0.0,0.0,0.0,0.0,0.0,0.0,0.0,0.0,0.0,0.0,0.0,0.0,0.0,0.0,0.0,0.0,0.0,0.0,0.0,0.0,0.0,0.0,0.0,0.0,0.0,0.0,0.0,0.0,0.0,0.0,0.0,0.0,0.0,0.0,0.0,0.0,0.0,1.4614,1.2906,1.0233,0.0,0.0,0.0,0.0,0.0,0.0,1.1018,1.1489,0.0,0.0,0.0,0.0,0.0,0.0,0.0,0.0,0.0,0.0,0.0,0.0,0.0,0.0,0.0,0.0,0.0,0.0,0.0,0.0,0.0,0.0,0.0,0.0,0.0,0.0,0.0,0.0,0.0,0.0,0.0,0.0,0.0,0.0,0.0,0.0,0.0,0.0,0.0,0.0,0.0,0.0,0.0,0.0,0.0,0.0,0.0,0.0,0.0,0.0,0.0,0.0,0.0,0.0,0.0,1.4954,2.167,3.083,4.2557,4.7343,5.0794,5.314,5.1287,4.9905,0.0,0.0,0.0,0.0,0.0,0.0,0.0,0.0,0.0,0.0,0.0,0.0,0.0,0.0,0.0,0.0,0.0,0.0,0.0,0.0,0.0,0.0,0.0,0.0,0.0,0.0,0.0,0.0,0.0,0.0,0.0,0.0,0.0,0.0,0.0,0.0,0.0,0.0,0.0,0.0,0.0,1.206,0.8739,0.7774,0.0,0.0,0.0,0.0,0.9435,1.048,0.0,0.0,0.0,0.0,0.0,0.0,0.0,0.0,0.0,0.0,0.0,0.0,0.0,0.0,0.0,0.0,0.0,0.0,0.0,0.0,0.0,0.0,0.0,0.0,0.0,0.0,0.0,0.0,0.0,0.0,0.0,0.0,0.0,0.0,0.0,0.0,0.0,0.0,0.0,0.0,0.0,0.0,0.0,0.0,0.0,0.0,0.0,0.0,0.0,0.0,0.0,0.0,0.0,0.0,0.0,0.0,-0.8114,1.0537,2.3627,3.0398,4.1411,4.8568,5.1132,4.9959,4.8186,0.0,0.0,0.0,0.0,0.0,0.0,0.0,0.0,0.0,0.0,0.0,0.0,0.0,0.0,0.0,0.0,0.0,0.0,0.0,0.0,0.0,0.0,0.0,0.0,0.0,0.0,0.0,0.0,0.0,0.0,0.0,0.0,0.0,0.0,0.0,0.0,0.0,0.0,0.0,0.0,0.0,1.1015,0.9373,0.8619,0.7525,0.0,0.0,0.6514,0.797,0.8916,0.0,0.0,0.0,0.0,0.0,0.0,0.0,0.0,0.0,0.0,0.0,0.0,0.0,0.0,0.0,0.0,0.0,0.0,0.0,0.0,0.0,0.0,0.0,0.0,0.0,0.0,0.0,0.0,0.0,0.0,0.0,0.0,0.0,0.0,0.0,0.0,0.0,0.0,0.0,0.0,0.0,0.0,0.0,0.0,0.0,0.0,0.0,0.0,0.0,0.0,0.0,0.0,0.0,0.0,0.0,-1.4943,-0.9811,0.0987,1.241,2.4312,3.5086,4.1046,4.184,4.0668,3.9512,0.0,0.0,0.0,0.0,0.0,0.0,0.0,0.0,0.0,0.0,0.0,0.0,0.0,0.0,0.0,0.0,0.0,0.0,0.0,0.0,0.0,0.0,0.0,0.0,0.0,0.0,0.0,0.0,0.0,0.0,0.0,0.0,0.0,0.0,0.0,0.0,0.0,0.0,0.0,0.0,0.0,0.0,0.9339,0.8376,0.0,0.0,0.0,0.6079,0.7002,0.0,0.0,0.0,0.0,0.0,0.0,0.0,0.0,0.0,0.0,0.0,0.0,0.0,0.0,0.0,0.0,0.0,0.0,0.0,0.0,0.0,0.0,0.0,0.0,0.0,0.0,0.0,0.0,0.0,0.0,0.0,0.0,0.0,0.0,0.0,0.0,0.0,0.0,0.0,0.0,0.0,0.0,0.0,0.0,0.0,0.0,0.0,0.0,0.0,0.0,0.0,0.0,0.0,0.0,0.0,0.0,0.0,-1.1354,-0.8919,0.0176,1.6232,2.6463,3.2411,3.3954,3.1309,0.0,0.0,0.0,0.0,0.0,0.0,0.0,0.0,0.0,0.0,0.0,0.0,0.0,0.0,0.0,0.0,0.0,0.0,0.0,0.0,0.0,0.0,0.0,0.0,0.0,0.0,0.0,0.6913,0.0,0.0,0.0,0.0,0.0,0.0,0.0,0.0,0.0,0.0,0.0,0.0,0.0,0.0,1.0768,0.8937,0.8074,0.7328,0.0,0.0,0.5258,0.4559,0.4739,0.4438,0.0,0.0,0.0,0.0,0.0,0.0,0.0,0.0,0.0,0.0,0.0,0.0,0.0,0.0,0.0,0.0,0.0,0.0,0.0,0.0,0.0,0.0,0.0,0.0,0.0,0.0,0.0,0.0,0.0,0.0,0.0,0.0,0.0,0.0,0.0,0.0,0.0,0.0,0.0,0.0,0.0,0.0,0.0,0.0,0.0,0.0,0.0,0.0,0.0,0.0,0.0,0.0,0.0,0.0,0.0,-2.0876,-1.997,-1.2245,0.2294,1.3937,2.3621,3.1022,2.4502,2.1484,0.0,0.0,0.0,0.0,0.0,0.0,0.0,0.0,0.0,0.0,0.0,0.0,0.0,0.0,0.0,0.0,0.0,0.0,0.0,0.0,0.0,0.0,0.0,0.0,0.0,0.0,0.0,0.0,0.0,0.0,0.0,0.0,0.0,0.0,0.0,0.0,0.0,0.0,0.0,0.0,0.0,1.0141,0.823,0.8202,0.8083,0.0,0.0,0.3177,-0.0358,0.037,-0.0124,-0.3759,0.0,0.0,0.0,0.0,0.0,0.0,0.0,0.0,0.0,0.0,0.0,0.0,0.0,0.0,0.0,0.0,0.0,0.0,0.0,0.0,0.0,0.0,0.0,0.0,0.0,0.0,0.0,0.0,0.0,0.0,0.0,0.0,0.0,0.0,0.0,0.0,0.0,0.0,0.0,0.0,0.0,0.0,0.0,0.0,0.0,0.0,0.0,0.0,0.0,0.0,0.0,0.0,0.0,-1.9782,-1.8986,-1.8216,-1.338,-0.4375,0.2392,0.8289,1.3347,1.1259,1.0355,0.0,0.0,0.0,0.0,0.0,0.0,0.0,0.0,0.0,0.0,0.0,0.0,0.0,0.0,0.0,0.0,0.0,0.0,0.0,0.0,0.0,0.0,0.0,0.0,0.0,0.0,0.0,0.0,0.7015,0.6623,0.6933,0.0,0.0,0.0,0.0,0.0,0.0,0.0,0.0,0.0,0.0,1.059,0.9657,0.9344,0.0,0.0,0.6885,0.4776,0.2094,0.0737,-0.1097,-0.4289,-0.4396,0.0,0.0,0.0,0.0,0.0,0.0,0.0,0.0,0.0,0.0,0.0,0.0,0.0,0.0,0.0,0.0,0.0,0.0,0.0,0.0,0.0,0.0,0.0,0.0,0.0,0.0,0.0,0.0,0.0,0.0,0.0,0.0,0.0,0.0,0.0,0.0,0.0,0.0,0.0,0.0,0.0,0.0,0.0,0.0,0.0,0.0,0.0,0.0,0.0,0.0,0.0,0.0,-1.6944,-1.6645,-1.592,-1.323,-0.8556,-0.5877,-0.3392,-0.1111,-0.0456,-0.0273,0.0,0.0,0.0,0.0,0.0,0.0,0.0,0.0,0.0,0.0,0.0,0.0,0.0,0.0,0.0,0.0,0.0,0.0,0.0,0.0,0.0,0.0,0.0,0.0,0.0,0.0,0.0,0.0,0.6481,0.6311,0.7466,0.0,0.0,0.0,0.0,0.0,0.0,0.0,0.0,0.0,0.0,1.1764,1.102,1.0542,0.9949,0.9309,0.7582,0.5306,0.2366,-0.0244,-0.2765,-0.5487,0.0,0.0,0.0,0.0,0.0,0.0,0.0,0.0,0.0,0.0,0.0,0.0,0.0,0.0,0.0,0.0,0.0,0.0,0.0,0.0,0.0,0.0,0.0,0.0,0.0,0.0,0.0,0.0,0.0,0.0,0.0,0.0,0.0,0.0,0.0,0.0,0.0,0.0,0.0,0.0,0.0,0.0,0.0,0.0,0.0,0.0,0.0,0.0,0.0,0.0,0.0,0.0,0.0,-1.6849,-1.5326,-1.4909,-1.3337,-1.0856,-0.9943,-0.9254,-0.8732,-0.9172,-0.9592,-0.9833,0.0,0.0,0.0,0.0,0.0,0.0,0.0,0.0,0.0,0.0,0.0,0.0,0.0,0.0,0.0,0.0,0.0,0.0,0.0,0.0,0.0,0.0,0.0,0.0,0.0,0.0,0.7486,0.5914,0.542,0.0,0.0,0.0,0.0,0.0,0.0,0.0,0.0,0.0,0.0,1.3618,1.3396,1.2151,1.1662,1.0573,0.8432,0.6841,0.4182,-0.0978,-0.3547,-0.5941,0.0,0.0,0.0,0.0,0.0,0.0,0.0,0.0,0.0,0.0,0.0,0.0,0.0,0.0,0.0,0.0,0.0,0.0,0.0,0.0,0.0,0.0,0.0,0.0,0.0,0.0,0.0,0.0,0.8173,0.0,0.0,0.0,0.0,0.0,0.0,0.0,0.0,0.0,0.0,0.0,0.2045,-0.1304,0.0,0.0,0.0,0.0,0.0,0.0,0.0,0.0,0.0,0.0,0.0,0.0,-1.6645,-1.7102,-1.5994,-1.5542,-1.5777,-1.4415,-1.3708,-1.3498,-1.3048,-1.2252,-1.1111,0.0,0.0,0.0,0.0,0.0,0.0,0.0,0.0,0.0,0.0,0.0,0.0,0.0,0.0,0.0,0.0,0.0,0.0,0.0,0.0,0.0,0.0,0.0,0.0,0.0,0.5319,0.0,0.0,0.0,0.0,0.0,0.0,0.0,0.0,0.0,0.0,0.0,1.2831,1.2534,1.264,1.2385,1.1217,1.0672,0.9953,0.0,0.0,0.0,0.0,0.0,0.0,0.0,0.0,0.0,0.0,0.0,0.0,0.0,0.0,0.5772,0.6161,0.6697,0.7832,0.984,0.0,0.0,0.0,0.0,0.0,0.0,0.0,0.0,0.0,0.0,0.0,0.0,0.0,0.0,0.0,0.0,0.4852,0.0,0.0,0.0,0.0,0.0,0.0,0.0,0.0,0.2941,0.166,0.0111,-0.3129,-0.6624,0.0,-0.8962,-0.9235,0.0,0.0,0.0,0.0,0.0,0.0,0.0,0.0,-1.7032,-1.7914,-1.7121,-1.7098,-1.7887,-1.6915,-1.6372,-1.6271,-1.522,-1.3902,-1.2248,-1.1493,-1.0187,0.0,0.0,0.0,0.0,0.0,0.0,0.0,0.0,0.0,0.0,0.0,0.0,0.0,0.0,0.0,0.0,0.0,0.0,0.0,0.0,0.0,0.0,0.0,0.4307,0.0,0.0,0.0,0.0,0.0,0.0,0.0,0.0,0.0,1.1766,1.2046,1.2117,1.2441,1.2503,1.2182,1.1044,0.0,0.0,0.0,0.0,0.0,0.0,0.0,-0.5752,-0.6701,-0.5256,-0.3576,-0.2379,-0.0,0.2293,0.436,0.0,0.0,0.625,0.7037,0.8207,1.0635,1.0957,1.1727,1.4993,1.6486,1.7418,0.0,0.0,0.0,0.0,0.0,0.0,0.0,0.0,0.398,0.3004,0.0,0.0969,0.0,0.0,0.0,0.0,0.0,0.0,0.0,0.0,0.0222,-0.2037,-0.2634,-0.5189,-0.823,-1.1384,-1.1562,-1.2485,-1.3988,-1.3024,0.0,0.0,0.0,0.0,0.0,0.0,-1.7873,-1.7673,-1.792,-1.7902,-1.7382,-1.7326,-1.7232,-1.7225,-1.5996,-1.4793,-1.3785,-1.2456,-1.1326,-1.0415,-0.9694,0.0,0.0,0.0,0.0,0.0,0.0,0.0,0.0,0.0,0.0,0.0,0.0,0.0,0.0,0.0,0.0,0.0,0.0,0.0,0.0,0.5226,0.0,0.0,0.0,0.0,0.0,0.0,0.0,0.0,0.0,0.0,1.0739,1.0654,1.1059,1.3057,0.0,0.0,0.0,0.0,1.0531,0.4954,0.1769,-0.1111,-0.413,-0.6081,-0.635,-0.4061,0.0,0.0,0.2892,0.3945,0.4984,0.7072,0.6047,0.5267,0.5675,0.6503,0.7691,0.891,0.9825,1.1184,1.3451,1.5654,1.7896,0.1234,0.0,0.0,0.0,0.0,0.2742,0.1794,0.0611,-0.0819,-0.1836,-0.2526,-0.3937,0.0,0.0,0.0,0.0,0.0,0.0,0.1285,0.0109,-0.2135,-0.3767,-0.5152,-0.84,-1.1338,-1.3922,-1.3505,-1.4275,-1.6011,-1.5187,-1.5266,-1.6254,0.0,0.0,0.0,0.0,-1.8049,-1.8629,-1.7788,-1.7735,-1.8715,-1.7795,-1.7145,-1.6763,-1.6397,-1.5551,-1.4151,-1.389,-1.3076,-1.1573,-1.14,0.0,0.0,0.0,0.0,0.0,0.0,0.0,0.0,0.0,0.0,0.0,0.0,0.0,0.0,0.0,0.0,0.0,0.0,0.0,0.3731,0.3853,0.3163,0.0,0.0,0.0,0.0,0.0,0.0,0.0,0.0,0.0,0.66,0.8434,0.9827,0.0,0.0,1.0175,0.7867,0.7696,0.6421,0.2283,0.0,0.0,0.0,-0.7131,-0.6365,-0.266,0.2212,0.5902,0.7002,0.6917,0.6543,0.639,0.5322,0.4122,0.3413,0.4637,0.6602,0.8377,0.9083,1.0126,1.2511,1.5949,1.9695,-0.686,-0.4877,-0.2314,-0.1386,-0.1556,-0.1771,-0.281,-0.4316,-0.5455,-0.6473,-0.736,-0.8376,-0.8681,-0.8318,-0.5105,0.0,0.0,0.0,-0.1832,-0.2742,-0.4825,-0.6958,-0.9104,-1.1297,-1.3436,-1.5382,-1.5013,-1.5638,-1.7268,-1.6697,-1.6662,-1.7059,0.0,0.0,-1.8079,-1.7789,-1.7972,-1.8527,-1.7604,-1.7522,-1.849,-1.781,-1.7145,-1.6588,-1.6285,-1.5527,-1.4388,-1.4133,-1.3537,-1.2455,-1.2406,-1.1976,0.0,0.0,0.0,0.0,0.0,0.0,0.0,0.0,0.0,0.0,0.0,0.2403,0.202,0.0,0.0,0.0,0.2004,0.2112,0.1896,0.2225,0.0,0.0,0.0,0.0,0.0,0.0,0.0,0.3238,0.3495,0.3886,0.4318,0.4701,0.5384,0.6832,0.7024,0.6402,0.4393,0.0,0.149,-0.1509,-0.5075,-0.782,-0.8766,-0.8636,-0.6433,-0.0849,0.3805,0.7386,0.8796,0.7951,0.6655,0.5823,0.441,0.2988,0.2159,0.2786,0.3909,0.6131,0.6741,0.7456,0.9838,1.3688,1.7722,-1.5798,-1.6375,-1.0301,-0.7746,-0.7514,-0.686,-0.7828,-0.9958,-0.997,-1.109,-1.2724,-1.2261,-1.1727,-1.1101,-0.905,0.0,0.0,-0.7006,-0.5983,-0.4962,-0.7993,-1.0739,-1.3207,-1.363,-1.4562,-1.594,-1.6121,-1.6739,-1.7712,-1.7486,-1.7434,-1.7628,-1.7628,-1.7815,-1.7994,-1.7807,-1.7721,-1.7721,-1.7434,-1.7333,-1.7326,-1.7598,-1.7326,-1.6581,-1.5893,-1.5134,-1.4286,-1.3584,-1.3157,-1.31,-1.296,-1.2597,-1.2092,0.0,0.0,0.0,0.0,0.0,0.0,0.0,0.0,0.0,0.0,0.0,0.0,0.0,0.0,0.0,0.0704,0.0,-0.0098,0.0508,0.0,0.0,0.0,0.0443,-0.0228,0.0343,0.0922,0.1289,0.0,0.0,0.0,0.0,-0.0739,0.3116,0.2585,0.1601,0.0762,-0.1733,-0.4041,-0.6049,-1.0562,-1.3347,-1.177,-1.0324,-0.7027,-0.0479,0.3385,0.5506,0.777,0.6704,0.5408,0.4803,0.3223,0.1606,0.1654,0.06,0.0486,0.2707,0.3203,0.3932,0.6192,0.9323,1.3252,-2.4272,-2.3842,-2.11,-1.7091,-1.2557,-1.2345,-1.2924,-1.391,-1.4102,-1.5345,-1.7057,-1.5947,-1.4768,-1.3572,-1.3919,-1.3254,-1.175,-1.2348,-1.1887,-1.0788,-1.1469,-1.2433,-1.3551,-1.4516,-1.5485,-1.6443,-1.705,-1.7527,-1.7794,-1.7486,-1.7326,-1.7426,-1.7426,-1.7527,-1.7807,-1.783,-1.7729,-1.7721,-1.7426,-1.7426,-1.7613,-1.7704,-1.732,-1.6285,-1.6089,-1.5425,-1.4298,-1.4136,-1.3826,-1.3439,-1.3399,-1.3052,-1.2388,-1.18,0.0,0.0,0.0,0.0,0.0,0.0,0.0,0.0,0.0,-0.0601,-0.0805,0.0,-0.0796,0.0,-0.0394,-0.0296,-0.0798,-0.0826,0.0,0.0,-0.2817,-0.2441,-0.2098,-0.2007,-0.1922,-0.1611,-0.1518,-0.1656,-0.2275,-0.3403,-0.4415,-0.4661,-0.366,-0.3183,-0.4367,-0.7641,-1.0013,-1.0315,-1.1507,-1.2751,-1.3761,-1.2107,-0.8938,-0.4541,-0.1749,0.0705,0.312,0.2391,0.1072,0.0239,-0.0358,-0.1182,-0.1968,-0.1879,-0.13,-0.0581,0.0236,0.1316,0.282,0.5899,0.9901,-2.9217,-2.8166,-2.7014,-2.4003,-1.9933,-1.8282,-1.8006,-1.8738,-1.9161,-1.9715,-2.0235,-1.9146,-1.8055,-1.7095,-1.763,-1.7246,-1.6295,-1.6527,-1.6259,-1.5433,-1.5215,-1.5568,-1.6459,-1.6301,-1.6801,-1.775,-1.7647,-1.7596,-1.7589,-1.7413,-1.7333,-1.7333,-1.7333,-1.7333,-1.7527,-1.752,-1.7613,-1.7721,-1.7707,-1.7714,-1.79,-1.8041,-1.7565,-1.6473,-1.6386,-1.5818,-1.449,-1.4388,-1.4159,-1.3882,-1.3755,-1.3465,-1.3082,-1.2647,-1.2139,0.0,0.0,0.0,0.0,0.0,0.0,0.0,0.0,0.0,0.0,0.0,-0.2967,0.0,-0.2765,0.0,-0.2437,-0.2589,-0.3155,-0.445,-0.4432,-0.4181,-0.3901,-0.3936,-0.3881,-0.3621,-0.3559,-0.3955,-0.4929,-0.5479,-0.6611,-0.863,-0.8624,-0.8415,-0.8848,-1.1631,-1.3627,-1.3272,-1.3721,-1.4204,-1.4961,-1.3516,-1.1338,-0.8452,-0.628,-0.4127,-0.187,-0.1866,-0.2442,-0.2454,-0.2577,-0.2796,-0.3426,-0.2201,-0.1052,-0.0919,-0.0116,0.0704,0.1049,0.4134,0.8273,-3.2019,-3.072,-2.9885,-2.8727,-2.7328,-2.4068,-2.2838,-2.3271,-2.371,-2.3289,-2.2281,-2.1675,-2.1128,-2.0653,-2.0549,-2.0459,-2.0434,-1.9938,-1.9502,-1.9154,-1.8671,-1.9056,-2.0027,-1.8407,-1.8264,-1.9138,-1.8021,-1.7419,-1.7333,-1.7333,-1.7333,-1.7333,-1.7326,-1.7333,-1.7333,-1.7296,-1.7498,-1.7729,-1.79,-1.8094,-1.8087,-1.828,-1.7916,-1.6676,-1.6581,-1.6015,-1.4783,-1.449,-1.428,-1.4244,-1.4026,-1.3894,-1.3857,-1.3487,-1.3015,0.0,-1.2225,0.0,0.0,0.0,0.0,0.0,0.0,0.0,0.0,-0.5824,-0.5114,-0.5511,-0.552,-0.5157,-0.4528,-0.4547,-0.4825,-0.5418,-0.5382,-0.5441,-0.5577,-0.5612,-0.544,-0.511,-0.5196,-0.5583,-0.6354,-0.6907,-0.7903,-0.9965,-1.1561,-1.2209,-1.2464,-1.4158,-1.5547,-1.5451,-1.631,-1.6107,-1.5183,-1.4669,-1.3578,-1.1496,-1.0143,-0.8713,-0.6551,-0.6111,-0.575,-0.4797,-0.4608,-0.4383,-0.3933,-0.2062,-0.0579,-0.0227,0.0795,0.1483,0.137,0.3855,0.753,-3.4236,-3.2772,-3.1011,-2.967,-2.8696,-2.7358,-2.6032,-2.4723,-2.397,-2.3364,-2.2945,-2.264,-2.2686,-2.2991,-2.3224,-2.3125,-2.2901,-2.3045,-2.2377,-2.0862,-2.0795,-2.0573,-2.0172,-1.977,-1.9355,-1.8883,-1.8643,-1.8056,-1.7333,-1.7333,-1.7333,-1.7333,-1.7527,-1.7628,-1.7621,0.0,0.0,0.0,-1.7837,-1.7721,-1.7815,-1.7994,-1.78,-1.6951,-1.6683,0.0,-1.5077,-1.4586,-1.4201,-1.399,-1.393,0.0,0.0,0.0,0.0,0.0,0.0,0.0,0.0,0.0,0.0,0.0,-1.004,-0.9359,-0.8216,-0.7888,-0.7585,-0.7528,-0.7135,-0.6642,-0.6065,-0.605,-0.6261,-0.65,-0.6583,-0.6689,-0.6837,-0.6857,-0.6761,-0.6797,-0.7018,-0.7311,-0.7423,-0.7854,-0.8971,-1.0929,-1.1752,-1.2694,-1.4083,-1.5621,-1.6592,-1.6476,-1.6444,-1.6404,-1.6083,-1.5719,-1.4995,-1.3769,-1.3439,-1.2564,-1.1173,-1.0851,-1.063,-0.9372,-0.851,-0.7187,-0.547,-0.3935,-0.2151,-0.0342,0.0896,0.2101,0.3689,0.5304,0.7786,-3.4289,0.0,-3.1543,-3.0464,0.0,-2.9013,-2.8174,-2.7243,-2.6403,-2.5631,-2.506,-2.4492,-2.4707,-2.5275,-2.4913,-2.4951,-2.5312,-2.4871,-2.4188,-2.3483,-2.3079,-2.2676,-2.2263,-2.1419,-2.0692,-2.024,-1.9247,-1.8519,-1.8064,-1.7512,-1.7333,-1.7333,-1.7426,-1.7527,-1.7721,-1.7584,-1.7576,-1.7692,-1.7807,-1.79,-1.79,-1.7994,-1.78,-1.7138,0.0,0.0,0.0,0.0,0.0,0.0,0.0,0.0,0.0,0.0,0.0,-1.3535,-1.3465,-1.3193,-1.2693,-1.2689,-1.2323,-1.1347,-1.1239,-1.0699,-0.9706,-0.9706,-0.9612,-0.9027,-0.8432,-0.7759,-0.7128,-0.6785,-0.6668,-0.6787,-0.6858,-0.694,-0.7051,-0.7122,-0.7182,-0.7236,-0.7409,-0.7561,-0.7561,-0.7723,-0.8453,-1.0052,-1.1036,-1.1933,-1.3364,-1.506,-1.6227,-1.6066,-1.5879,-1.5753,-1.5843,-1.5674,-1.5515,-1.5051,-1.4927,-1.4478,-1.3491,-1.329,-1.2714,-1.1008,-0.9723,-0.8194,-0.6443,-0.4711,-0.2868,-0.1102,0.0218,0.1939,0.4458,0.6653,0.911,-3.3869,-3.25,-3.1801,-3.1104,-3.0397,-2.9852,-2.9669,-2.9577,0.0,0.0,0.0,-2.6104,-2.6249,-2.7022,-2.6032,-2.6101,-2.7024,-2.5789,-2.5297,-2.5361,-2.4639,-2.4268,-2.4059,-2.2645,-2.1872,-2.1606,-2.0059,-1.9155,-1.8796,-1.7971,-1.7419,-1.7326,-1.7333,-1.7527,-1.7744,-1.7535,-1.7304,-1.7044,-1.7576,-1.7792,-1.7412,-1.7606,-1.7426,-1.6756,-1.6089,-1.552,-1.5051,-1.4388,-1.3823,-1.3443,-1.3823,-1.3919,-1.3539,-1.401,-1.4202,-1.4027,-1.4027,-1.3736,-1.3142,-1.3216,-1.2962,-1.2109,-1.1584,-1.1194,-1.09,-1.1096,-1.09,-1.0122,-0.9221,-0.8382,-0.7693,-0.6788,-0.6326,-0.6545,-0.6663,-0.6711,-0.6937,-0.7054,-0.7146,-0.7228,-0.7244,-0.7271,-0.7263,-0.7266,-0.7621,-0.8655,-1.0062,-1.1268,-1.2064,-1.383,-1.5058,-1.5019,-1.4912,-1.4909,-1.5027,-1.4974,-1.498,-1.5206,-1.5275,-1.5042,-1.4428,-1.4325,-1.351,-1.1566,-1.0166,-0.8942,-0.7263,-0.536,-0.3444,-0.1915,-0.0742,0.0952,0.4123,0.711,0.9649,-3.5037,-3.3142,-3.1913,-3.1306,-3.1116,-3.0397,-3.0125,-2.9897,-2.8023,-2.7073,-2.6825,-2.588,-2.6126,-2.7453,-2.6462,-2.6277,-2.6671,-2.5971,-2.5149,0.0,-2.3935,-2.3682,-2.332,-2.3018,-2.2511,-2.1695,-2.1418,-2.043,-1.8972,-1.8611,-1.8149,-1.7419,-1.7527,-1.7837,-1.8069,-1.6979,-1.617,-1.5644,-1.6821,-1.656,-1.4937,-1.5893,-1.5893,-1.4746,-1.4453,-1.4076,-1.38,-1.3335,-1.2953,-1.2958,-1.3346,-1.3539,-1.3539,-1.401,-1.4298,-1.4202,-1.4208,-1.419,-1.4052,-1.4082,-1.3902,-1.3301,-1.2446,-1.1683,-1.1194,-1.1194,-1.09,-1.0019,-0.892,-0.7832,-0.6954,-0.5861,-0.5401,-0.5904,-0.5923,-0.6172,-0.6709,-0.6937,-0.698,-0.6912,-0.6972,-0.7035,-0.7043,-0.7037,-0.7399,-0.8355,-0.9308,-1.0301,-1.193,-1.3141,-1.367,-1.3724,-1.3788,-1.3782,-1.3901,-1.3793,-1.3782,-1.3843,-1.4429,-1.4763,-1.4355,-1.4949,-1.4684,-1.3257,-1.2107,-1.0632,-0.8357,-0.679,-0.5094,-0.3064,-0.169,-0.0105,0.2491,0.493,0.7563,-3.516,-3.4345,-3.2686,-3.2077,-3.2302,-3.1104,-3.0397,-3.0102,-2.9148,-2.8774,-2.8638,-2.7905,-2.8107,-2.8778,-2.6961,-2.6434,-2.6939,-2.5429,-2.4536,-2.4121,-2.3896,-2.3682,-2.3486,-2.3262,-2.2872,-2.2413,-2.1329,-2.0421,-1.9513,-1.8519,-1.7785,-1.7333,-1.7527,-1.7736,-1.765,-1.6777,-1.5488,-1.4189,-1.5197,-1.5222,-1.4364,-1.4841,-1.4841,-1.4268,-1.3884,-1.3601,-1.3511,-1.3044,-1.2667,-1.2478,-1.3158,-1.3454,-1.3368,-1.4022,-1.4298,-1.4298,-1.4298,-1.4298,-1.4298,-1.401,-1.3727,-1.3539,-1.2861,-1.2175,-1.1688,-1.1394,-1.0998,-1.0605,-0.9312,-0.8124,-0.7524,-0.6132,-0.5253,-0.5196,-0.5555,-0.5916,-0.618,-0.6706,-0.6861,-0.6809,-0.679,-0.6812,-0.6877,-0.6828,-0.694,-0.757,-0.8451,-0.9852,-1.1625,-1.2084,-1.2479,-1.2977,-1.3292,-1.3352,-1.3333,-1.3036,-1.2973,-1.3394,-1.3948,-1.427,-1.4355,-1.5039,-1.475,-1.3656,-1.3028,-1.1878,-0.9595,-0.8593,-0.7056,-0.5359,-0.4121,-0.2562,-0.0204,0.2568,0.6155,-3.5642,-3.5453,-3.3602,-3.2859,-3.2907,-3.1713,-3.0937,-3.0578,-3.0578,-3.0487,-3.0418,-2.9765,-2.9658,-2.9916,-2.7422,-2.6585,-2.6834,-2.4968,-2.3988,-2.4072,-2.3789,-2.3643,-2.3613,-2.3291,-2.3232,-2.296,-2.1409,-2.0503,-2.0141,-1.8503,-1.7512,-1.7333,-1.7527,-1.7426,-1.6951,-1.6183,-1.4912,-1.3239,-1.338,-1.3596,-1.3596,-1.3788,-1.3884,-1.3601,-1.3221,-1.2931,-1.2931,-1.2748,-1.2473,-1.2186,-1.3055,-1.3448,-1.3374,-1.3931,-1.4298,-1.4298,-1.4298,-1.4298,-1.4298,-1.3919,-1.3732,-1.3636,-1.3244,-1.2759,-1.237,-1.158,-1.1091,-1.0998,-0.9612,-0.8421,-0.7826,-0.6431,-0.5336,-0.5039,-0.5401,-0.5855,-0.5972,-0.6479,-0.6747,-0.6719,-0.666,-0.6662,-0.6719,-0.6679,-0.6875,-0.7458,-0.8326,-0.9579,-1.1034,-1.1288,-1.16,-1.2175,-1.2678,-1.2758,-1.2699,-1.2294,-1.2122,-1.2643,-1.3105,-1.3385,-1.3679,-1.4268,-1.4542,-1.3624,-1.32,-1.2274,-1.0789,-0.951,-0.8341,-0.667,-0.5861,-0.5044,-0.3327,-0.0304,0.3908,-3.7651,-3.5763,-3.4485,-3.3177,-3.2189,-3.1925,-3.1761,-3.1584,-3.1572,-3.1584,-3.1335,-3.0043,-2.9734,-2.9881,-2.8014,-2.6893,-2.6573,-2.5102,-2.4018,-2.3281,-2.3223,-2.3203,-2.3223,-2.3349,-2.3503,-2.3319,-2.2315,-2.1311,-2.0503,-1.9239,-1.8149,-1.7419,-1.7333,-1.685,-1.5988,-1.5032,-1.3878,-1.2721,-1.196,-1.1482,-1.158,-1.2344,-1.2446,-1.1487,-1.1482,-1.1389,-1.158,-1.1878,-1.2078,-1.2078,-1.2953,-1.3448,-1.3545,-1.4016,-1.4298,-1.4298,-1.4298,-1.4298,-1.4298,-1.4292,-1.4202,-1.4202,-1.3727,-1.3346,-1.3244,-1.177,-1.0984,-1.0797,-0.9308,-0.8124,-0.7822,-0.6132,-0.5135,-0.5336,-0.555,-0.5851,-0.6171,-0.6562,-0.6592,-0.648,-0.6559,-0.6624,-0.663,-0.6613,-0.7126,-0.8265,-0.8765,-0.9505,-1.0893,-1.1227,-1.1194,-1.1389,-1.1394,-1.1404,-1.1433,-1.1413,-1.1128,-1.0582,-1.1492,-1.2312,-1.26,-1.3352,-1.424,-1.3745,-1.3068,-1.2004,-1.0672,-0.9225,-0.7852,-0.7048,-0.6445,-0.616,-0.5655,-0.353,0.0406,-3.8646,-3.7976,-3.5992,-3.4306,-3.3091,-3.2834,-3.2326,-3.1749,-3.1661,-3.1661,-3.1589,-3.0671,-3.0268,-3.001,-2.7499,-2.6282,-2.6018,-2.4409,-2.3474,-2.3135,-2.3144,-2.3144,-2.3144,-2.3406,-2.3493,-2.3319,-2.2041,-2.1221,-2.0593,-1.9072,-1.7893,-1.7333,-1.7333,-1.6756,-1.5798,-1.5032,-1.4082,-1.2727,-1.2068,-1.1492,-1.1296,-1.158,-1.1775,-1.1683,-1.1688,-1.1878,-1.2175,-1.237,-1.257,-1.2775,-1.326,-1.3653,-1.3966,-1.422,-1.4298,-1.4298,-1.4298,-1.4298,-1.4298,-1.4298,-1.4298,-1.4298,-1.4112,-1.3624,-1.2646,-1.176,-1.0979,-1.0006,-0.8623,-0.7627,-0.7226,-0.6032,-0.5233,-0.5236,-0.5434,-0.5737,-0.5937,-0.6279,-0.6486,-0.6445,-0.648,-0.651,-0.651,-0.651,-0.7009,-0.8213,-0.8618,-0.9494,-1.0909,-1.1194,-1.1194,-1.1096,-1.0801,-1.0703,-1.1096,-1.1194,-1.0895,-1.0806,-1.1452,-1.1948,-1.1943,-1.2567,-1.345,-1.3357,-1.2552,-1.1688,-1.0806,-0.9402,-0.7925,-0.7232,-0.6639,-0.645,-0.6453,-0.5441,-0.3441,-3.9314,-3.8812,-3.6512,-3.465,-3.342,-3.3164,-3.2587,-3.1813,-3.1604,-3.1532,-3.1472,-3.0833,-3.0314,-2.9606,-2.7166,-2.595,-2.5579,-2.3897,-2.3144,-2.3135,-2.3144,-2.3232,-2.3232,-2.3503,-2.3677,-2.3396,-2.1943,-2.0773,-2.0059,-1.8535,-1.7527,-1.7326,-1.7333,-1.685,-1.5988,-1.5324,-1.4364,-1.3119,-1.2452,-1.198,-1.1683,-1.1688,-1.178,-1.198,-1.2175,-1.237,-1.2764,-1.2958,-1.3061,-1.3368,-1.3545,-1.3937,-1.4256,-1.4322,-1.4298,-1.4298,-1.4298,-1.4298,-1.4298,-1.4298,-1.4298,-1.4298,-1.41,-1.3312,-1.2247,-1.1365,-1.0288,-0.911,-0.8024,-0.7232,-0.703,-0.6334,-0.5636,-0.5336,-0.5636,-0.5837,-0.5837,-0.6234,-0.6439,-0.6437,-0.6445,-0.6437,-0.6439,-0.6442,-0.6842,-0.8028,-0.8627,-0.9221,-1.0507,-1.0801,-1.0801,-1.06,-1.001,-1.0216,-1.09,-1.06,-1.06,-1.0498,-1.0703,-1.1114,-1.1184,-1.1482,-1.2068,-1.1765,-1.1365,-1.0774,-0.9895,-0.881,-0.7925,-0.7332,-0.6836,-0.6437,-0.6439,-0.6348,-0.6353,-3.9642,-3.7471,-3.5345,-3.3882,-3.281,-3.2649,-3.2288,-3.1913,-3.1231,-3.1026,-3.1077,-3.0001,-2.9458,-2.9479,-2.7431,-2.6245,-2.5611,-2.3897,-2.3135,-2.3144,-2.3319,-2.3503,-2.3503,-2.3937,-2.411,-2.3927,-2.2208,-2.0141,-1.8087,-1.7815,-1.7527,-1.7333,-1.7333,-1.6951,-1.6089,-1.5324,-1.4651,-1.3692,-1.3039,-1.2667,-1.2662,-1.2662,-1.2467,-1.2175,-1.2467,-1.2764,-1.2861,-1.3249,-1.3448,-1.3545,-1.4016,-1.4304,-1.4304,-1.4304,-1.4298,-1.4298,-1.4298,-1.4298,-1.4298,-1.4298,-1.4298,-1.41,-1.3318,-1.263,-1.1848,-1.0177,-0.9004,-0.8414,-0.7534,-0.7039,-0.7332,-0.6734,-0.6337,-0.6237,-0.6337,-0.6337,-0.6337,-0.6337,-0.6437,-0.6437,-0.6437,-0.6437,-0.6437,-0.6437,-0.7033,-0.8124,-0.8722,-0.9023,-0.9715,-1.0015,-0.9817,-0.932,-0.9122,-0.9414,-1.06,-1.0207,-0.9114,-0.8913,-0.9513,-0.9632,-0.9221,-0.9205,-0.9891,-1.0284,-0.9993,-0.9406,-0.8711,-0.8021,-0.7329,-0.6933,-0.6637,-0.6437,-0.6437,-0.6437,-0.6442,-3.9442,-3.7372,-3.5789,-3.4498,-3.3505,-3.336,-3.2871,-3.2164,-3.1466,-3.1137,-3.1101,-3.0361,-2.9782,-2.928,-2.7583,-2.6458,-2.5673,-2.3897,-2.3232,-2.3329,-2.3416,-2.358,-2.3764,-2.4034,-2.4196,-2.3927,-2.2394,-2.0331,-1.8172,-1.7994,-1.7714,-1.7333,-1.7333,-1.685,-1.5994,-1.533,-1.437,-1.321,-1.2845,-1.2662,-1.2467,-1.2856,-1.3152,-1.2953,-1.3152,-1.3437,-1.3721,-1.3919,-1.4016,-1.401,-1.4202,-1.4298,-1.4298,-1.4298,-1.4298,-1.4298,-1.4298,-1.4298,-1.4298,-1.4298,-1.3794,-1.2705,-1.2528,-1.1648,-1.0275,-0.9099,-0.8315,-0.7726,-0.7138,-0.7039,-0.7135,-0.6939,-0.6542,-0.6437,-0.6437,-0.6437,-0.6437,-0.6437,-0.6437,-0.6437,-0.6437,-0.6437,-0.6437,-0.6437,-0.6631,-0.7117,-0.772,-0.8223,-0.8612,-0.9015,-0.9122,-0.8825,-0.8425,-0.8425,-0.9414,-0.932,-0.8726,-0.8619,-0.8722,-0.9126,-0.8924,-0.8414,-0.8898,-0.9312,-0.8924,-0.8421,-0.7826,-0.7428,-0.6836,-0.6637,-0.6437,-0.6437,-0.6437,-0.6437,-0.6437,-3.8203,-3.683,-3.5373,-3.4415,-3.3674,-3.3433,-3.3031,-3.2389,-3.1455,-3.1235,-3.1223,-3.066,-2.9961,-2.9213,-2.7907,-2.6799,-2.584,-2.4135,-2.3406,-2.359,-2.3677,-2.3754,-2.3927,-2.4196,-2.4282,-2.4013,-2.2501,-2.0581,-1.859,-1.8233,-1.7953,-1.7668,-1.7391,-1.7037,-1.6372,-1.552,-1.4459,-1.3692,-1.3136,-1.2662,-1.2565,-1.3147,-1.3636,-1.3727,-1.3727,-1.3919,-1.4298,-1.4298,-1.4298,-1.4298,-1.4298,-1.4298,-1.4298,-1.4298,-1.4298,-1.4298,-1.4298,-1.4298,-1.4202,-1.3902,-1.3,-1.14,-1.1142,-1.0373,-0.8803,-0.8219,-0.7627,-0.7036,-0.7039,-0.7042,-0.7042,-0.7042,-0.6942,-0.6739,-0.6539,-0.6539,-0.6539,-0.6437,-0.6437,-0.6437,-0.6437,-0.6437,-0.6437,-0.6437,-0.6531,-0.6716,-0.7322,-0.7624,-0.7918,-0.812,-0.8326,-0.8028,-0.7531,-0.7431,-0.7928,-0.7829,-0.8031,-0.8024,-0.7726,-0.823,-0.8329,-0.7819,-0.772,-0.8233,-0.8137,-0.7633,-0.7135,-0.6836,-0.6537,-0.6437,-0.6437,-0.6437,-0.6437,-0.6437,-0.6437,-3.616,-3.5695,-3.3882,-3.324,-3.3154,-3.2884,-3.2723,-3.2549,-3.139,-3.1267,-3.1573,-3.0589,-2.9794,-2.9343,-2.8271,-2.7382,-2.6264,-2.4702,-2.3991,-2.3981,-2.4145,-2.4319,-2.4329,-2.4461,-2.4354,-2.4181,-2.2539,-2.0763,-1.9036,-1.8527,-1.8221,-1.8073,-1.7581,-1.7463,-1.7621,-1.59,-1.5032,-1.4746,-1.3522,-1.2953,-1.3443,-1.3443,-1.3727,-1.4106,-1.4202,-1.4298,-1.4298,-1.4298,-1.4298,-1.4298,-1.4298,-1.4298,-1.4298,-1.4298,-1.4298,-1.4298,-1.4298,-1.4298,-1.4202,-1.3125,-1.1915,-1.0303,-0.9457,-0.8901,-0.8216,-0.7431,-0.6839,-0.6639,-0.6839,-0.7138,-0.7042,-0.7244,-0.7453,-0.7244,-0.6954,-0.6842,-0.6756,-0.6542,-0.6437,-0.6437,-0.6437,-0.6437,-0.6437,-0.6437,-0.6634,-0.7129,-0.7329,-0.7431,-0.7428,-0.7528,-0.7229,-0.6833,-0.6637,-0.6836,-0.6637,-0.6537,-0.6933,-0.7232,-0.6933,-0.6936,-0.7135,-0.683,-0.693,-0.7238,-0.7238,-0.6836,-0.6833,-0.6437,-0.6437,-0.6337,-0.6337,-0.6337,-0.6437,-0.6437,-0.6437,-3.5129,-3.4897,-3.3628,-3.3081,-3.3081,-3.281,-3.281,-3.2834,-3.1953,-3.167,-3.1573,-3.0349,-2.9439,-2.8783,-2.7729,-2.6877,-2.6224,-2.5576,-2.5204,-2.5045,-2.5135,-2.5183,-2.53,-2.5063,-2.4205,-2.2976,-2.194,-2.071,-1.9557,-1.9109,-1.8831,-1.8281,-1.7992,-1.7727,-1.7355,-1.5514,-1.4555,-1.4459,-1.3033,-1.237,-1.2565,-1.3147,-1.3539,-1.3727,-1.4106,-1.4298,-1.4298,-1.4298,-1.4298,-1.4298,-1.4298,-1.4298,-1.4298,-1.4298,-1.4298,-1.4298,-1.4298,-1.4334,-1.4183,-1.2953,-1.0835,-0.855,-0.8185,-0.8014,-0.7229,-0.6736,-0.6539,-0.6642,-0.6842,-0.6942,-0.7344,-0.7447,-0.7582,-0.737,-0.7199,-0.7077,-0.6931,-0.669,-0.6445,-0.6437,-0.6437,-0.6437,-0.6437,-0.6437,-0.6537,-0.6736,-0.6833,-0.6836,-0.6833,-0.6833,-0.6734,-0.6437,-0.6437,-0.6437,-0.6437,-0.6437,-0.6637,-0.6933,-0.6637,-0.6437,-0.6437,-0.6437,-0.6437,-0.6337,-0.6337,-0.6237,-0.6237,-0.6134,-0.6034,-0.6034,-0.6034,-0.6137,-0.6337,-0.6337,-0.6337,-3.4677,-3.4441,-3.3471,-3.3081,-3.3068,-3.2896,-3.2896,-3.2993,-3.2297,-3.1918,-3.1516,-3.0555,-2.9488,-2.8665,-2.7887,-2.7226,-2.6642,-2.6462,-2.6311,-2.6156,-2.5828,-2.5815,-2.5764,-2.5157,-2.3813,-2.2092,-2.1466,-2.0798,-1.9862,-1.954,-1.9236,-1.8761,-1.8416,-1.8,-1.7312,-1.5681,-1.458,-1.4076,-1.2646,-1.1785,-1.2073,-1.2662,-1.3152,-1.3443,-1.3823,-1.4106,-1.4298,-1.4395,-1.4401,-1.4322,-1.4298,-1.4298,-1.4298,-1.4298,-1.4298,-1.4202,-1.3913,-1.3846,-1.4025,-1.2186,-0.9759,-0.7183,-0.7205,-0.7329,-0.6537,-0.6437,-0.6539,-0.6642,-0.6745,-0.6945,-0.7341,-0.7543,-0.761,-0.7734,-0.7525,-0.729,-0.7143,-0.679,-0.6545,-0.6437,-0.6437,-0.6437,-0.6437,-0.6437,-0.6437,-0.6437,-0.6437,-0.6437,-0.6437,-0.6437,-0.6437,-0.6437,-0.6437,-0.6437,-0.6437,-0.6437,-0.6437,-0.6437,-0.6437,-0.6437,-0.6437,-0.6437,-0.6337,-0.5934,-0.5834,-0.5536,-0.5536,-0.5434,-0.5334,-0.5434,-0.5634,-0.5837,-0.5939,-0.6037,-0.6037,-3.4538,-3.4269,-3.3424,-3.3119,-3.3156,-3.3119,-3.2982,-3.2895,-3.2372,-3.1872,-3.1396,-3.0636,-2.9808,-2.8815,-2.8332,-2.7774,-2.7369,-2.7212,-2.7117,-2.6931,-2.6455,-2.6072,-2.5706,-2.4614,-2.3194,-2.1718,-2.1298,-2.0908,-2.0392,-1.9972,-1.9597,-1.9453,-1.8784,-1.8052,-1.7416,-1.6046,-1.4756,-1.3949,-1.2175,-1.1487,-1.1883,-1.2078,-1.2467,-1.3249,-1.3443,-1.3744,-1.4195,-1.4502,-1.4606,-1.437,-1.4358,-1.4346,-1.4208,-1.4298,-1.4298,-1.4004,-1.3125,-1.3163,-1.3013,-1.0904,-0.8297,-0.6691,-0.6517,-0.6437,-0.6437,-0.6437,-0.6437,-0.6439,-0.6642,-0.6842,-0.7039,-0.7341,-0.7708,-0.8106,-0.7844,-0.7485,-0.7247,-0.6945,-0.6742,-0.6539,-0.6437,-0.6437,-0.6437,-0.6437,-0.6437,-0.6437,-0.6437,-0.6437,-0.6437,-0.6437,-0.6437,-0.6437,-0.6437,-0.6437,-0.6437,-0.6437,-0.6437,-0.6736,-0.6637,-0.6337,-0.6137,-0.6137,-0.6037,-0.5634,-0.5233,-0.4935,-0.4834,-0.4834,-0.4832,-0.4933,-0.5133,-0.5438,-0.5539,-0.5636,-0.5937,-3.3712,-3.3969,-3.333,-3.3307,-3.3596,-3.3269,-3.2636,-3.2064,-3.1843,-3.128,-3.0574,-2.9579,-2.8934,-2.8152,-2.7849,-2.7359,-2.7035,-2.7127,-2.7272,-2.7231,-2.7044,-2.6205,-2.5094,-2.3736,-2.2547,-2.168,-2.1255,-2.0881,-2.0774,-2.0537,-2.0148,-1.9598,-1.9207,-1.8372,-1.6977,-1.5607,-1.4398,-1.3363,-1.1948,-1.1306,-1.1497,-1.1795,-1.2073,-1.237,-1.3152,-1.3636,-1.3999,-1.466,-1.4877,-1.463,-1.4606,-1.4314,-1.3864,-1.4033,-1.3732,-1.2635,-1.2339,-1.1868,-1.082,-0.9422,-0.7816,-0.662,-0.6429,-0.6437,-0.6437,-0.6437,-0.6437,-0.6437,-0.6439,-0.6339,-0.6237,-0.6839,-0.7466,-0.7995,-0.7955,-0.7743,-0.7466,-0.7138,-0.6839,-0.6739,-0.6539,-0.6437,-0.6437,-0.6437,-0.6437,-0.6437,-0.6437,-0.6337,-0.6337,-0.6539,-0.6639,-0.6437,-0.6437,-0.6437,-0.6437,-0.6437,-0.6637,-0.7135,-0.6836,-0.6237,-0.5837,-0.5436,-0.5236,-0.5035,-0.4834,-0.4533,-0.4533,-0.4533,-0.4531,-0.4331,-0.4433,-0.4535,-0.4935,-0.5131,-0.5634,-3.3257,-3.3533,-3.3206,-3.3257,-3.3421,-3.276,-3.2164,-3.1625,-3.1169,-3.0566,-2.9772,-2.9013,-2.8304,-2.7729,-2.7411,-2.7127,-2.692,-2.7138,-2.7262,-2.7071,-2.634,-2.5411,-2.4425,-2.3141,-2.2105,-2.1453,-2.1119,-2.0893,-2.0917,-2.0925,-2.0287,-1.9184,-1.8934,-1.795,-1.6158,-1.5093,-1.4053,-1.3121,-1.2108,-1.143,-1.1335,-1.1628,-1.1855,-1.2109,-1.2867,-1.3492,-1.4336,-1.4928,-1.5149,-1.4843,-1.4666,-1.4255,-1.3733,-1.3924,-1.3274,-1.1688,-1.1268,-1.0395,-0.9525,-0.8432,-0.7332,-0.6637,-0.6437,-0.6437,-0.6437,-0.6437,-0.6439,-0.6448,-0.6448,-0.6042,-0.5636,-0.6237,-0.7169,-0.7942,-0.8113,-0.7998,-0.7759,-0.7441,-0.7238,-0.6942,-0.6742,-0.6539,-0.6437,-0.6437,-0.6437,-0.6437,-0.6437,-0.6237,-0.6134,-0.6539,-0.6842,-0.6639,-0.6836,-0.7039,-0.7138,-0.7138,-0.7039,-0.7434,-0.7332,-0.6634,-0.5837,-0.5233,-0.4834,-0.4634,-0.4334,-0.4234,-0.4332,-0.4232,-0.3831,-0.3731,-0.3731,-0.4133,-0.4734,-0.5131,-0.5634,-3.3119,-3.3144,-3.3093,-3.3093,-3.2909,-3.2001,-3.1436,-3.108,-3.0339,-2.9577,-2.8998,-2.8664,-2.807,-2.7367,-2.7326,-2.7251,-2.7231,-2.7241,-2.7146,-2.6466,-2.5275,-2.4042,-2.3647,-2.2584,-2.1599,-2.0971,-2.0806,-2.0822,-2.0712,-2.0712,-1.9864,-1.8726,-1.81,-1.6865,-1.5457,-1.4453,-1.3826,-1.3075,-1.2289,-1.1782,-1.1553,-1.1501,-1.1705,-1.189,-1.2708,-1.3568,-1.4636,-1.5245,-1.5433,-1.5101,-1.4543,-1.419,-1.3902,-1.373,-1.2825,-1.1415,-1.0082,-0.9267,-0.8656,-0.7459,-0.6753,-0.6461,-0.6453,-0.6448,-0.6458,-0.6458,-0.6442,-0.6458,-0.6361,-0.5949,-0.5338,-0.5741,-0.6709,-0.7814,-0.8275,-0.8225,-0.8009,-0.7766,-0.7459,-0.7244,-0.6945,-0.6642,-0.6539,-0.6437,-0.6437,-0.6437,-0.6439,-0.6439,-0.6339,-0.6739,-0.6942,-0.6936,-0.7338,-0.7839,-0.7839,-0.7839,-0.7839,-0.7836,-0.773,-0.7132,-0.6234,-0.5534,-0.4832,-0.4531,-0.4931,-0.483,-0.4431,-0.4131,-0.383,-0.363,-0.4033,-0.4736,-0.5438,-0.5634,-0.5932,-3.3332,-3.3684,-3.3257,-3.286,-3.2475,-3.1591,-3.0519,-2.936,-2.8877,-2.8351,-2.7831,-2.7631,-2.7536,-2.7262,-2.7262,-2.7272,-2.7262,-2.7167,-2.6754,-2.5557,-2.4177,-2.2985,-2.2299,-2.142,-2.0806,-2.0403,-2.0514,-2.0522,-2.0411,-1.965,-1.902,-1.8262,-1.7049,-1.5864,-1.4568,-1.3952,-1.332,-1.256,-1.2026,-1.1827,-1.1639,-1.1517,-1.1515,-1.1635,-1.2677,-1.3628,-1.4435,-1.5344,-1.5553,-1.5053,-1.4681,-1.4154,-1.3669,-1.355,-1.2362,-1.0399,-0.947,-0.8512,-0.7376,-0.6805,-0.6483,-0.6551,-0.6499,-0.6478,-0.6567,-0.6497,-0.6461,-0.6361,-0.6361,-0.5856,-0.5031,-0.4683,-0.596,-0.7667,-0.8377,-0.8495,-0.8054,-0.7696,-0.755,-0.7281,-0.6851,-0.6448,-0.6353,-0.6353,-0.635,-0.6442,-0.6539,-0.6545,-0.6642,-0.6842,-0.7138,-0.7434,-0.7836,-0.8336,-0.8435,-0.8435,-0.8435,-0.8435,-0.823,-0.8028,-0.7132,-0.6531,-0.6029,-0.5927,-0.5924,-0.5625,-0.5027,-0.5327,-0.5327,-0.483,-0.4531,-0.5233,-0.5832,-0.6029,-0.6728,-3.3257,-3.347,-3.2736,-3.2223,-3.1657,-3.0432,-2.9326,-2.8516,-2.7882,-2.7421,-2.7051,-2.7071,-2.6965,-2.6849,-2.687,-2.689,-2.6784,-2.637,-2.5771,-2.4777,-2.3384,-2.2181,-2.1489,-2.0704,-2.0094,-2.0086,-2.0197,-2.0094,-1.945,-1.8805,-1.7962,-1.6698,-1.5849,-1.477,-1.3516,-1.3281,-1.2812,-1.2261,-1.1963,-1.1856,-1.164,-1.1661,-1.1666,-1.1779,-1.2613,-1.3362,-1.3912,-1.4656,-1.4877,-1.4572,-1.427,-1.3778,-1.3169,-1.2621,-1.1216,-0.9727,-0.8418,-0.7804,-0.6821,-0.6567,-0.6551,-0.6616,-0.6554,-0.6605,-0.6662,-0.6638,-0.6487,-0.6149,-0.5514,-0.4577,-0.3828,-0.4495,-0.5688,-0.7357,-0.7877,-0.7815,-0.8177,-0.8056,-0.7703,-0.7196,-0.6242,-0.5739,-0.5543,-0.6152,-0.625,-0.6237,-0.6939,-0.7042,-0.6742,-0.7039,-0.7736,-0.8131,-0.8535,-0.8832,-0.8832,-0.8931,-0.8931,-0.9031,-0.9027,-0.8928,-0.8528,-0.8028,-0.7624,-0.7223,-0.6722,-0.6321,-0.6024,-0.6323,-0.6523,-0.6124,-0.5924,-0.6124,-0.6623,-0.7415,-0.8312,-3.2995,-3.2896,-3.2089,-3.1436,-3.0676,-2.9223,-2.8319,-2.7861,-2.7146,-2.6774,-2.6678,-2.6784,-2.6668,-2.636,-2.6476,-2.6496,-2.6197,-2.5392,-2.4884,-2.4187,-2.2484,-2.1387,-2.079,-2.0086,-1.9576,-1.9776,-1.9665,-1.9138,-1.8603,-1.7857,-1.6592,-1.4894,-1.4363,-1.3722,-1.2649,-1.2327,-1.2304,-1.2073,-1.195,-1.1783,-1.1652,-1.1695,-1.1789,-1.202,-1.2521,-1.2951,-1.3458,-1.3884,-1.4159,-1.4056,-1.3635,-1.3101,-1.2452,-1.1545,-1.0329,-0.9403,-0.8014,-0.7115,-0.6835,-0.6676,-0.6657,-0.6665,-0.6651,-0.6709,-0.679,-0.679,-0.6631,-0.5959,-0.5093,-0.3722,-0.2752,-0.3196,-0.5139,-0.6603,-0.6488,-0.674,-0.7809,-0.804,-0.7322,-0.7033,-0.5962,-0.5035,-0.5536,-0.6145,-0.6037,-0.6134,-0.6936,-0.7437,-0.7235,-0.7537,-0.8435,-0.873,-0.913,-0.9229,-0.9229,-0.9229,-0.9331,-0.9327,-0.9525,-0.9426,-0.943,-0.9126,-0.8524,-0.7819,-0.7319,-0.712,-0.722,-0.7621,-0.7617,-0.7217,-0.7214,-0.7316,-0.8007,-0.8901,-0.96,-3.2475,-3.2475,-3.23,-3.127,-2.9772,-2.9039,-2.8049,-2.6849,-2.6476,-2.639,-2.6496,-2.6496,-2.6496,-2.639,-2.6486,-2.6496,-2.61,-2.5089,-2.3989,-2.3185,-2.1692,-2.0585,-1.9887,-1.9472,-1.8952,-1.8213,-1.8094,-1.7975,-1.7443,-1.6168,-1.5215,-1.4358,-1.3403,-1.2654,-1.2436,-1.2223,-1.2114,-1.1896,-1.1787,-1.1638,-1.1476,-1.1554,-1.1663,-1.1836,-1.2392,-1.2673,-1.2961,-1.3355,-1.3604,-1.3413,-1.3315,-1.2635,-1.1615,-1.0862,-1.0284,-0.9349,-0.796,-0.6929,-0.6885,-0.682,-0.6836,-0.6872,-0.6828,-0.6834,-0.6896,-0.6864,-0.6804,-0.645,-0.5593,-0.4855,-0.6679,-0.4414,-0.351,-0.4516,-0.4719,-0.4589,-0.5642,-0.6198,-0.6622,-0.6998,-0.5802,-0.5033,-0.6139,-0.6839,-0.6833,-0.7027,-0.7425,-0.8124,-0.8418,-0.8829,-0.9541,-0.9632,-0.9624,-0.9624,-0.9525,-0.9529,-0.9529,-0.9628,-0.9727,-0.9727,-0.9727,-0.9826,-0.9422,-0.8718,-0.8718,-0.8821,-0.9019,-0.9019,-0.8913,-0.8609,-0.8506,-0.8506,-0.9099,-0.9694,-0.9895,-3.24,-3.24,-3.1837,-3.0722,-2.9235,-2.8495,-2.7484,-2.638,-2.6197,-2.6197,-2.6294,-2.6304,-2.6207,-2.612,-2.612,-2.612,-2.5713,-2.4196,-2.3194,-2.2391,-2.0979,-1.9879,-1.9168,-1.8743,-1.8213,-1.7364,-1.6717,-1.6187,-1.5974,-1.5013,-1.4046,-1.3403,-1.2654,-1.2436,-1.2332,-1.2332,-1.2005,-1.1896,-1.1678,-1.1459,-1.1219,-1.1491,-1.1691,-1.1831,-1.2016,-1.2397,-1.2465,-1.2777,-1.2635,-1.2327,-1.2114,-1.145,-1.0684,-0.9919,-0.9482,-0.891,-0.7865,-0.704,-0.6999,-0.6923,-0.6929,-0.6961,-0.6929,-0.6959,-0.7008,-0.697,-0.6951,-0.6744,-0.6442,-0.5597,-0.5276,-0.4285,-0.3998,-0.3705,-0.3494,-0.4136,-0.529,-0.6162,-0.6955,-0.7443,-0.6513,-0.6542,-0.7749,-0.8144,-0.7932,-0.8021,-0.8113,-0.8707,-0.9402,-0.9817,-1.0336,-1.013,-1.0019,-0.992,-0.992,-0.9924,-0.9826,-0.9924,-0.9924,-0.9924,-1.0023,-1.0117,-1.0117,-0.9817,-1.0019,-1.0117,-1.0019,-0.9813,-0.9809,-0.9903,-0.9805,-0.9801,-0.9998,-1.0293,-1.0493,-3.2213,-3.2213,-3.1371,-3.0249,-2.8958,-2.8132,-2.7115,-2.6187,-2.6004,-2.6004,-2.6004,-2.6014,-2.5917,-2.5645,-2.5538,-2.5538,-2.5333,-2.3302,-2.2492,-2.1887,-2.0166,-1.916,-1.8848,-1.8318,-1.7582,-1.6617,-1.5767,-1.4385,-1.4487,-1.3948,-1.33,-1.2762,-1.2436,-1.2436,-1.2332,-1.2332,-1.2001,-1.1787,-1.1459,-1.1345,-1.1302,-1.15,-1.1713,-1.182,-1.1921,-1.2,-1.2054,-1.2407,-1.1937,-1.1516,-1.1093,-1.068,-0.9691,-0.8813,-0.8374,-0.8152,-0.7598,-0.7218,-0.7092,-0.7067,-0.7092,-0.7146,-0.7081,-0.7103,-0.7073,-0.6999,-0.6967,-0.6906,-0.6724,-0.6164,-0.5064,-0.5072,-0.5002,-0.4495,-0.4211,-0.4532,-0.6299,-0.7386,-0.8004,-0.8052,-0.7369,-0.7646,-0.8645,-0.9141,-0.8825,-0.9118,-0.9209,-0.96,-1.01,-1.0203,-1.0516,-1.0417,-1.0314,-1.0314,-1.0314,-1.0216,-1.0216,-1.0216,-1.0216,-1.0216,-1.0314,-1.0413,-1.0413,-1.0413,-1.0609,-1.0609,-1.0511,-1.0511,-1.0408,-1.0502,-1.0801,-1.0801,-1.0694,-1.0694,-1.0895,-3.1749,-3.1761,-3.1661,-3.0543,-2.8866,-2.868,-2.7484,-2.5917,-2.582,-2.5732,-2.5732,-2.5723,-2.5625,-2.5333,-2.5137,-2.5039,-2.4421,-2.3003,-2.1887,-2.1582,-1.965,-1.8632,-1.8534,-1.8422,-1.7147,-1.598,-1.5339,-1.4809,-1.4164,-1.3197,-1.2654,-1.2436,-1.2436,-1.2436,-1.2327,-1.2219,-1.1891,-1.1568,-1.1345,-1.1236,-1.1433,-1.1397,-1.1643,-1.1838,-1.2037,-1.1995,-1.1929,-1.2047,-1.1824,-1.0945,-1.095,-1.0241,-0.8923,-0.8036,-0.7595,-0.7376,-0.7276,-0.7195,-0.7252,-0.7255,-0.7288,-0.7323,-0.7312,-0.7249,-0.7323,-0.726,-0.712,-0.6709,-0.6851,-0.6703,-0.6155,-0.6223,-0.615,-0.6307,-0.6455,-0.6855,-0.7872,-0.8231,-0.894,-0.921,-0.8836,-0.873,-0.9126,-0.9525,-0.9821,-1.0113,-1.031,-1.06,-1.0797,-1.0801,-1.0708,-1.0708,-1.0609,-1.0609,-1.0609,-1.0609,-1.0609,-1.0511,-1.0511,-1.0511,-1.0609,-1.0708,-1.0703,-1.0806,-1.0904,-1.1002,-1.0998,-1.0904,-1.1002,-1.1002,-1.0998,-1.1096,-1.1096,-1.1194,-1.1194,-3.1661,-3.1661,-3.1661,-3.0913,-2.9612,-2.9521,-2.8402,-2.6829,-2.6552,-2.6091,-2.5538,-2.544,-2.5333,-2.503,-2.4932,-2.4941,-2.443,-2.2702,-2.1684,-2.1175,-1.9546,-1.8422,-1.8213,-1.7786,-1.6617,-1.598,-1.4798,-1.4046,-1.3511,-1.2975,-1.2436,-1.2436,-1.2436,-1.2436,-1.2436,-1.2327,-1.211,-1.1782,-1.1455,-1.1236,-1.1328,-1.1385,-1.1445,-1.1333,-1.1868,-1.1804,-1.1581,-1.2079,-1.1633,-1.0574,-1.0331,-0.9578,-0.8146,-0.7263,-0.6818,-0.6712,-0.6324,-0.6601,-0.7093,-0.7223,-0.7271,-0.7391,-0.7347,-0.7444,-0.7654,-0.7861,-0.7898,-0.7922,-0.7926,-0.7833,-0.7741,-0.7725,-0.7725,-0.7909,-0.8106,-0.8285,-0.865,-0.9203,-0.964,-0.9924,-1.0212,-1.001,-0.9908,-1.0207,-1.0507,-1.0605,-1.0703,-1.09,-1.0998,-1.0998,-1.0998,-1.0904,-1.0904,-1.0904,-1.0904,-1.09,-1.09,-1.09,-1.09,-1.09,-1.0904,-1.1002,-1.0998,-1.1096,-1.11,-1.1198,-1.1389,-1.1292,-1.1194,-1.1194,-1.1194,-1.1292,-1.1487,-1.1194,-1.1194,-3.1661,-3.1661,-3.1661,-3.1104,-3.026,-3.017,-2.905,-2.7274,-2.7179,-2.6446,-2.5518,-2.5137,-2.4932,-2.4843,-2.4735,-2.444,-2.4125,-2.2299,-2.1481,-2.0459,-1.9332,-1.8311,-1.8003,-1.7364,-1.6836,-1.6511,-1.4793,-1.3825,-1.3403,-1.2758,-1.2327,-1.2436,-1.2436,-1.2436,-1.2436,-1.2327,-1.2219,-1.2005,-1.1455,-1.1345,-1.1345,-1.1341,-1.1118,-1.1122,-1.1341,-1.1428,-1.0954,-1.1214,-1.0781,-0.9719,-0.9446,-0.8699,-0.7487,-0.6596,-0.6286,-0.62,-0.581,-0.5645,-0.6032,-0.629,-0.6614,-0.6927,-0.7466,-0.7743,-0.7868,-0.8596,-0.8884,-0.867,-0.8667,-0.8656,-0.873,-0.8748,-0.8571,-0.8681,-0.8954,-0.9031,-0.9221,-0.9817,-1.0216,-1.0511,-1.0801,-1.09,-1.0895,-1.0998,-1.1096,-1.1194,-1.1194,-1.1194,-1.1194,-1.1194,-1.1194,-1.1096,-1.1096,-1.1096,-1.11,-1.1194,-1.1194,-1.1292,-1.1292,-1.1194,-1.1198,-1.1296,-1.1487,-1.1389,-1.1296,-1.1785,-1.2073,-1.178,-1.1487,-1.178,-1.1878,-1.1785,-1.1688,-1.1389,-1.1292,-3.1661,-3.1661,-3.1661,-3.1104,-3.0272,-3.017,-2.905,-2.7369,-2.7179,-2.6446,-2.5226,-2.4843,-2.4529,-2.443,-2.4143,-2.3646,-2.2728,-2.1497,-2.057,-1.9435,-1.8304,-1.7793,-1.7687,-1.7477,-1.6935,-1.6187,-1.5007,-1.4256,-1.3398,-1.2861,-1.2432,-1.2327,-1.2436,-1.2436,-1.2436,-1.2436,-1.2219,-1.2005,-1.1678,-1.1678,-1.1568,-1.1345,-1.0798,-1.0798,-1.0339,-0.9843,-0.96,-1.005,-0.9757,-0.8672,-0.8649,-0.8371,-0.7265,-0.6262,-0.5958,-0.569,-0.5165,-0.4774,-0.4487,-0.4744,-0.5006,-0.576,-0.6925,-0.81,-0.8343,-0.865,-0.884,-0.913,-0.9221,-0.9122,-0.9023,-0.8825,-0.9221,-0.9418,-0.9715,-0.9813,-1.0109,-1.0507,-1.0904,-1.11,-1.1198,-1.1194,-1.1194,-1.1194,-1.1194,-1.1194,-1.1194,-1.1194,-1.1194,-1.1194,-1.1292,-1.1292,-1.1292,-1.1292,-1.1198,-1.1296,-1.1585,-1.1585,-1.1585,-1.1487,-1.1389,-1.1585,-1.1585,-1.159,-1.1492,-1.2175,-1.2467,-1.1775,-1.1482,-1.2365,-1.2565,-1.1883,-1.1389,-1.0998,-1.1194,-3.1661,-3.1661,-3.1661,-3.1472,-3.1092,-3.0441,-2.9429,-2.8121,-2.7284,-2.6157,-2.4833,-2.444,-2.4341,-2.4143,-2.3438,-2.2937,-2.2215,-2.057,-1.9746,-1.9027,-1.8199,-1.7687,-1.7589,-1.7582,-1.7364,-1.6823,-1.608,-1.5227,-1.4369,-1.3403,-1.2758,-1.2545,-1.2436,-1.2436,-1.2436,-1.2327,-1.2219,-1.2114,-1.1896,-1.1896,-1.1787,-1.1126,-1.0578,-1.0241,-1.0127,-0.9446,-0.9074,-0.9545,-0.9095,-0.8646,-0.8459,-0.7922,-0.7271,-0.6379,-0.5762,-0.5163,-0.4515,-0.3536,-0.2864,-0.3217,-0.4345,-0.6621,-0.7916,-0.8891,-0.9086,-0.9825,-1.0229,-1.0306,-1.0233,-1.016,-1.0216,-1.0314,-1.0408,-1.0404,-1.0422,-1.0645,-1.0833,-1.1142,-1.1203,-1.1203,-1.1198,-1.1194,-1.1194,-1.1194,-1.1194,-1.1194,-1.1194,-1.1194,-1.1194,-1.1292,-1.1389,-1.1585,-1.1585,-1.1683,-1.1683,-1.1883,-1.198,-1.198,-1.1878,-1.1878,-1.178,-1.1389,-1.1389,-1.1394,-1.1292,-1.1385,-1.1287,-1.1184,-1.138,-1.1878,-1.178,-1.1389,-1.0998,-1.0703,-1.09,-3.1584,-3.1484,-3.1205,-3.1193,-3.1193,-3.0531,-2.9418,-2.8121,-2.72,-2.5974,-2.4529,-2.4341,-2.3945,-2.3538,-2.2929,-2.1912,-2.1183,-1.9945,-1.9117,-1.8506,-1.7996,-1.7687,-1.7589,-1.7589,-1.7582,-1.7364,-1.6723,-1.5867,-1.5446,-1.4261,-1.3511,-1.3083,-1.2545,-1.2436,-1.2436,-1.2327,-1.2327,-1.211,-1.211,-1.211,-1.2005,-1.1013,-1.0351,-0.9688,-0.9247,-0.8696,-0.8355,-0.8475,-0.8585,-0.814,-0.7928,-0.7709,-0.7168,-0.6529,-0.5801,-0.4965,-0.3872,-0.2742,-0.228,-0.2726,-0.4393,-0.6408,-0.8415,-0.9421,-1.0226,-1.0911,-1.113,-1.1118,-1.1245,-1.1373,-1.1364,-1.123,-1.1148,-1.1084,-1.1176,-1.1281,-1.1179,-1.1345,-1.1264,-1.1212,-1.1208,-1.1203,-1.1198,-1.1198,-1.1194,-1.1194,-1.1194,-1.1194,-1.1296,-1.1389,-1.1683,-1.1883,-1.2078,-1.2175,-1.2268,-1.237,-1.2467,-1.2375,-1.237,-1.2467,-1.237,-1.178,-1.1385,-1.1575,-1.1282,-1.0596,-1.0524,-1.0959,-1.1128,-1.1194,-1.11,-1.0918,-1.0694,-1.04,-1.0306,-3.1395,-3.0847,-3.0091,-2.9988,-3.0079,-3.017,-2.8866,-2.7105,-2.6638,-2.5771,-2.4529,-2.4152,-2.3538,-2.2728,-2.2316,-2.1191,-1.9952,-1.9332,-1.861,-1.7891,-1.7793,-1.7589,-1.7589,-1.7589,-1.7589,-1.7364,-1.6829,-1.6405,-1.6305,-1.4583,-1.3943,-1.3624,-1.298,-1.2436,-1.2436,-1.2436,-1.2436,-1.2446,-1.2351,-1.2365,-1.1928,-1.0716,-1.0056,-0.9357,-0.8367,-0.7709,-0.7595,-0.7595,-0.7709,-0.7598,-0.7513,-0.7416,-0.7209,-0.6616,-0.6249,-0.6248,-0.4533,-0.3628,-0.3301,-0.3812,-0.4958,-0.6473,-0.837,-0.961,-1.033,-1.111,-1.1671,-1.1524,-1.172,-1.1825,-1.177,-1.177,-1.184,-1.1806,-1.1787,-1.1642,-1.1529,-1.1435,-1.1359,-1.134,-1.1269,-1.1212,-1.1208,-1.1203,-1.1198,-1.1194,-1.1194,-1.1194,-1.1296,-1.1394,-1.1683,-1.2175,-1.2473,-1.2467,-1.2565,-1.2759,-1.2856,-1.2861,-1.2861,-1.2953,-1.2651,-1.1965,-1.1765,-1.1765,-1.089,-0.9821,-1.038,-1.1146,-1.0771,-1.0288,-1.0668,-1.0542,-1.0314,-1.0096,-0.9908,-3.0193,-2.9635,-2.8866,-2.8204,-2.7735,-2.7641,-2.7179,-2.6426,-2.5674,-2.4913,-2.4242,-2.3538,-2.2937,-2.2224,-2.0979,-1.9952,-1.9228,-1.8304,-1.7793,-1.7687,-1.7589,-1.7589,-1.7589,-1.7589,-1.7595,-1.7371,-1.6942,-1.6193,-1.5441,-1.4589,-1.3948,-1.3527,-1.3202,-1.2762,-1.2545,-1.245,-1.2488,-1.263,-1.2552,-1.2326,-1.1753,-1.0624,-0.9687,-0.904,-0.782,-0.7268,-0.7265,-0.7265,-0.7265,-0.7282,-0.7315,-0.7269,-0.7193,-0.6704,-0.6113,-0.5588,-0.407,-0.4487,-0.4593,-0.5082,-0.5912,-0.7103,-0.8402,-0.9792,-1.0427,-1.125,-1.1653,-1.1859,-1.2127,-1.2279,-1.2432,-1.2437,-1.2412,-1.2265,-1.2138,-1.1802,-1.1624,-1.1539,-1.1477,-1.151,-1.1482,-1.1439,-1.1416,-1.1246,-1.1194,-1.1217,-1.1227,-1.1203,-1.1198,-1.1394,-1.1585,-1.2273,-1.2662,-1.2759,-1.2861,-1.3008,-1.298,-1.2861,-1.3141,-1.3522,-1.3028,-1.1996,-1.1227,-1.0762,-0.985,-0.9153,-0.9605,-0.9945,-0.9579,-0.9362,-0.9803,-0.9799,-0.9253,-0.9191,-0.9316,-2.8877,-2.8319,-2.7547,-2.6788,-2.6147,-2.634,-2.6147,-2.5674,-2.4815,-2.435,-2.3945,-2.3038,-2.2215,-2.1497,-2.0158,-1.8819,-1.861,-1.7996,-1.7582,-1.7589,-1.7589,-1.7589,-1.7589,-1.7602,-1.7781,-1.7669,-1.7523,-1.6967,-1.6769,-1.5374,-1.4164,-1.3305,-1.3207,-1.2876,-1.2569,-1.2521,-1.2621,-1.2753,-1.2791,-1.2365,-1.1526,-1.0575,-0.9738,-0.8856,-0.8042,-0.749,-0.749,-0.749,-0.749,-0.7524,-0.7483,-0.757,-0.7394,-0.6562,-0.5708,-0.4427,-0.4897,-0.5414,-0.5944,-0.6265,-0.6865,-0.7263,-0.8706,-0.9777,-1.0628,-1.1494,-1.1887,-1.2087,-1.2406,-1.2546,-1.2655,-1.2646,-1.2621,-1.2486,-1.2258,-1.1926,-1.1846,-1.177,-1.169,-1.1718,-1.1652,-1.1628,-1.1572,-1.1359,-1.1194,-1.1227,-1.126,-1.1246,-1.1236,-1.1442,-1.156,-1.2066,-1.2578,-1.261,-1.2811,-1.3111,-1.297,-1.2775,-1.2964,-1.3066,-1.2371,-1.1241,-1.0445,-0.967,-0.9232,-0.8805,-0.8609,-0.8594,-0.8853,-0.8977,-0.9155,-0.8834,-0.8193,-0.8686,-0.9279,-2.7547,-2.7094,-2.632,-2.5654,-2.5382,-2.5858,-2.5577,-2.4529,-2.435,-2.4242,-2.4152,-2.3029,-2.2114,-2.0987,-1.9849,-1.9027,-1.8408,-1.8101,-1.8101,-1.7898,-1.8101,-1.7898,-1.7793,-1.7694,-1.7894,-1.8215,-1.8088,-1.7669,-1.8573,-1.6411,-1.4369,-1.3083,-1.3093,-1.2876,-1.2602,-1.2649,-1.2762,-1.2866,-1.2989,-1.2502,-1.1729,-1.1101,-1.0428,-0.9536,-0.8699,-0.8263,-0.8152,-0.8042,-0.7934,-0.7979,-0.806,-0.7903,-0.7193,-0.5909,-0.4783,-0.4694,-0.6135,-0.6667,-0.694,-0.7259,-0.7196,-0.75,-0.8762,-0.984,-1.0617,-1.1272,-1.1795,-1.2005,-1.234,-1.2431,-1.2488,-1.2582,-1.2567,-1.2435,-1.2416,-1.2247,-1.2153,-1.2063,-1.1968,-1.1893,-1.1775,-1.1709,-1.1642,-1.1463,-1.1269,-1.1383,-1.1425,-1.1411,-1.1501,-1.1676,-1.1701,-1.1635,-1.2054,-1.2384,-1.2578,-1.2532,-1.2173,-1.1697,-1.1771,-1.1781,-1.1079,-1.0487,-0.9807,-0.9157,-0.8744,-0.8516,-0.8461,-0.8545,-0.8747,-0.8956,-0.9326,-0.9323,-0.9057,-0.9486,-0.9971,-2.6224,-2.5771,-2.5001,-2.4627,-2.4529,-2.4726,-2.4627,-2.4251,-2.4251,-2.4161,-2.4143,-2.3029,-2.2316,-2.192,-2.0877,-2.0261,-2.0055,-1.9952,-1.9952,-1.9642,-1.9027,-1.8819,-1.8506,-1.8101,-1.7973,-1.7901,-1.7781,-1.7649,-1.737,-1.6092,-1.4471,-1.2762,-1.2985,-1.2881,-1.2779,-1.2791,-1.2899,-1.3022,-1.3178,-1.2781,-1.2434,-1.1916,-1.1281,-1.0548,-0.9688,-0.9361,-0.9251,-0.8481,-0.8152,-0.8177,-0.8179,-0.8169,-0.8433,-0.6535,-0.5165,-0.6504,-0.7217,-0.7417,-0.7431,-0.7405,-0.7481,-0.7506,-0.8439,-0.8792,-0.9588,-1.0421,-1.1424,-1.1729,-1.2158,-1.2417,-1.2659,-1.2767,-1.2767,-1.2644,-1.2507,-1.2328,-1.2247,-1.2214,-1.212,-1.2016,-1.1898,-1.1803,-1.1732,-1.1515,-1.1368,-1.162,-1.16,-1.1489,-1.1567,-1.1745,-1.1678,-1.1512,-1.1448,-1.1685,-1.1466,-1.14,-1.0956,-1.0711,-1.0602,-1.0449,-0.9981,-0.945,-0.8956,-0.8604,-0.8378,-0.8321,-0.8357,-0.8547,-0.8732,-0.9697,-1.0066,-1.0067,-1.0047,-1.0471,-1.0641,-2.5373,-2.4824,-2.435,-2.4161,-2.4161,-2.4161,-2.4161,-2.4161,-2.4161,-2.4161,-2.4053,-2.3029,-2.2526,-2.2316,-2.1395,-2.0783,-2.0783,-2.068,-2.068,-2.0475,-2.0261,-1.9642,-1.902,-1.8639,-1.8512,-1.8194,-1.7962,-1.8047,-1.7523,-1.6349,-1.4691,-1.2654,-1.2989,-1.2876,-1.2664,-1.281,-1.3022,-1.3164,-1.3277,-1.2965,-1.2757,-1.2616,-1.2257,-1.1585,-1.0712,-1.0554,-1.0453,-0.935,-0.8692,-0.883,-0.8957,-0.8549,-0.8715,-0.7187,-0.651,-0.7493,-0.7462,-0.7554,-0.7496,-0.7482,-0.7548,-0.7602,-0.8002,-0.8366,-0.893,-0.985,-1.0594,-1.1223,-1.1882,-1.2436,-1.2767,-1.2985,-1.2876,-1.2876,-1.2601,-1.2332,-1.2318,-1.2313,-1.2228,-1.2124,-1.2025,-1.1931,-1.177,-1.1553,-1.1487,-1.1564,-1.1465,-1.1173,-1.1241,-1.1508,-1.1465,-1.1327,-1.115,-1.1067,-1.063,-1.0228,-1.0018,-0.9697,-0.9366,-0.9224,-0.8829,-0.8577,-0.8285,-0.8129,-0.7985,-0.8231,-0.8573,-0.8616,-0.8999,-0.996,-1.082,-1.0866,-1.1052,-1.149,-1.1493,-2.5011,-2.4341,-2.4251,-2.4161,-2.4161,-2.4161,-2.4251,-2.4242,-2.4251,-2.4251,-2.4044,-2.3129,-2.2828,-2.2728,-2.2005,-2.1599,-2.17,-2.17,-2.1794,-2.1191,-2.1183,-2.0664,-1.9849,-1.9257,-1.8914,-1.8942,-1.8735,-1.8259,-1.8791,-1.7427,-1.4905,-1.2654,-1.2876,-1.29,-1.2688,-1.2876,-1.3084,-1.3211,-1.3405,-1.3277,-1.2821,-1.2662,-1.2711,-1.1913,-1.163,-1.1511,-1.1533,-1.0765,-0.9552,-0.9968,-0.9988,-0.9262,-0.8759,-0.8073,-0.7873,-0.7651,-0.7744,-0.7589,-0.7578,-0.7693,-0.7793,-0.7743,-0.7696,-0.8366,-0.9133,-0.9539,-1.0257,-1.1017,-1.1782,-1.2223,-1.255,-1.2659,-1.2659,-1.2659,-1.2516,-1.2384,-1.238,-1.2375,-1.2332,-1.2228,-1.2124,-1.2039,-1.2016,-1.1822,-1.1536,-1.1567,-1.1299,-1.091,-1.0729,-1.1098,-1.0901,-1.0775,-1.0396,-1.0079,-0.958,-0.9304,-0.9086,-0.8755,-0.8401,-0.8246,-0.8145,-0.7871,-0.7577,-0.7719,-0.8075,-0.8546,-0.8903,-0.9137,-0.968,-1.0668,-1.1428,-1.1664,-1.1972,-1.2202,-1.2164,-2.5781,-2.5001,-2.444,-2.4161,-2.4152,-2.4161,-2.4341,-2.444,-2.444,-2.444,-2.4152,-2.4035,-2.3827,-2.3538,-2.3338,-2.3129,-2.3229,-2.312,-2.352,-2.3103,-2.2702,-2.1582,-2.0664,-1.965,-1.9179,-1.864,-1.852,-1.8429,-1.8095,-1.6813,-1.5441,-1.384,-1.3418,-1.2816,-1.263,-1.2928,-1.3093,-1.323,-1.3419,-1.3579,-1.3452,-1.3404,-1.3276,-1.3028,-1.2886,-1.2351,-1.2069,-1.1372,-1.0735,-1.0803,-1.0842,-1.0323,-0.9432,-0.8558,-0.8018,-0.7936,-0.7812,-0.7771,-0.7845,-0.7959,-0.8167,-0.8543,-0.8794,-0.9168,-0.9497,-0.9672,-1.0135,-1.1017,-1.1568,-1.2005,-1.2332,-1.2327,-1.2436,-1.2436,-1.2436,-1.2436,-1.2436,-1.2427,-1.2413,-1.2313,-1.2209,-1.2186,-1.2176,-1.1931,-1.1654,-1.1318,-1.1115,-1.0625,-1.0077,-1.0077,-0.9881,-0.9619,-0.9261,-0.8934,-0.8659,-0.8402,-0.8272,-0.7939,-0.7693,-0.7551,-0.7526,-0.7422,-0.7425,-0.7787,-0.826,-0.8819,-0.9475,-0.9908,-1.0566,-1.145,-1.1891,-1.2001,-1.211,-1.229,-1.2299,-2.6633,-2.5304,-2.4627,-2.4239,-2.4128,-2.4651,-2.4916,-2.4967,-2.512,-2.5206,-2.5099,-2.4726,-2.444,-2.4341,-2.4251,-2.4251,-2.435,-2.444,-2.4332,-2.4223,-2.3511,-2.24,-2.1379,-2.0166,-1.9515,-1.8893,-1.8928,-1.8717,-1.7714,-1.7047,-1.6086,-1.4482,-1.3423,-1.2944,-1.2885,-1.2833,-1.3046,-1.323,-1.3395,-1.3572,-1.3754,-1.374,-1.3886,-1.3867,-1.3532,-1.316,-1.2952,-1.237,-1.1829,-1.1338,-1.1017,-1.0296,-0.9354,-0.8597,-0.8052,-0.7969,-0.7972,-0.7939,-0.821,-0.8382,-0.8825,-0.9285,-0.9516,-0.9759,-1.0393,-1.0568,-1.0582,-1.1236,-1.1236,-1.1673,-1.2219,-1.2436,-1.2436,-1.2436,-1.2436,-1.2436,-1.2436,-1.2432,-1.2361,-1.2345,-1.2312,-1.2261,-1.2154,-1.1518,-1.1263,-1.097,-1.065,-0.9873,-0.9424,-0.9247,-0.8968,-0.8838,-0.8669,-0.8582,-0.853,-0.8066,-0.7509,-0.7172,-0.7048,-0.7194,-0.7343,-0.736,-0.7376,-0.8045,-0.8709,-0.9261,-0.9805,-1.0457,-1.1118,-1.1891,-1.2223,-1.2327,-1.2436,-1.2436,-1.2413,-2.7263,-2.5334,-2.4711,-2.4259,-2.4209,-2.5131,-2.5584,-2.5615,-2.5922,-2.6177,-2.6157,-2.5118,-2.4637,-2.4538,-2.4341,-2.444,-2.4538,-2.4735,-2.4833,-2.4332,-2.3719,-2.2509,-2.1395,-2.0498,-1.9702,-1.9408,-1.9353,-1.8801,-1.8016,-1.7477,-1.6405,-1.4804,-1.4062,-1.365,-1.2855,-1.2673,-1.2909,-1.3126,-1.3263,-1.3296,-1.3548,-1.3703,-1.3838,-1.3884,-1.3829,-1.4065,-1.3715,-1.3407,-1.2607,-1.1979,-1.1145,-1.0173,-0.9274,-0.85,-0.8427,-0.8102,-0.8238,-0.8636,-0.8985,-0.9208,-0.9729,-1.01,-1.0103,-1.049,-1.1123,-1.1372,-1.127,-1.1345,-1.1345,-1.1568,-1.2114,-1.2455,-1.2455,-1.2446,-1.2446,-1.2436,-1.2436,-1.2327,-1.2332,-1.2321,-1.2154,-1.222,-1.158,-1.0946,-1.0639,-1.0457,-0.9919,-0.9037,-0.8374,-0.8592,-0.8566,-0.8659,-0.8793,-0.8692,-0.8358,-0.8017,-0.734,-0.7122,-0.7108,-0.7246,-0.7374,-0.77,-0.8033,-0.8592,-0.9254,-1.0044,-1.0472,-1.1122,-1.1782,-1.2228,-1.2332,-1.2436,-1.2436,-1.2436,-1.2436,-2.6801,-2.54,-2.445,-2.4277,-2.4842,-2.5208,-2.5818,-2.6451,-2.6214,-2.6284,-2.6197,-2.5616,-2.503,-2.4833,-2.4538,-2.4538,-2.4833,-2.4932,-2.443,-2.3827,-2.342,-2.2207,-2.1097,-2.0285,-1.9717,-1.9374,-1.932,-1.9121,-1.8541,-1.7905,-1.6942,-1.5547,-1.4487,-1.3821,-1.2909,-1.2805,-1.3012,-1.3231,-1.3408,-1.3372,-1.3198,-1.3259,-1.2915,-1.2744,-1.2616,-1.2593,-1.2515,-1.2767,-1.2826,-1.2394,-1.1358,-1.026,-0.9343,-0.8636,-0.8412,-0.8672,-0.8812,-0.939,-0.9821,-1.0077,-1.0471,-1.0992,-1.1135,-1.1367,-1.1864,-1.211,-1.2032,-1.2005,-1.2005,-1.2023,-1.2474,-1.2507,-1.2517,-1.2479,-1.2465,-1.2446,-1.2436,-1.2223,-1.2073,-1.1706,-1.1394,-1.1088,-1.0538,-0.9998,-0.9673,-0.9475,-0.9037,-0.8263,-0.8042,-0.8042,-0.8152,-0.8592,-0.903,-0.8257,-0.7814,-0.8033,-0.7584,-0.7374,-0.7388,-0.7853,-0.8291,-0.8465,-0.891,-0.9557,-1.0422,-1.1291,-1.1717,-1.174,-1.2014,-1.2351,-1.2337,-1.2436,-1.2441,-1.245,-1.246]},{"header":{"parameterUnit":"m.s-1","parameterCategory":1,"la1":31.0,"la2":29.5877,"lo1":-88.7671,"lo2":-86.6584,"dy":0.0162,"dx":0.0185,"nx":115,"ny":88,"refTime":"2023-07-15T12:00:00:Z","depth":0,"parameterNumber":3,"parameterNumberName":"V-component_of_WINDS"},"data":[0.0,0.0,0.0,0.0,0.0,0.0,0.0,0.0,0.0,0.0,0.0,0.0,0.0,0.0,0.0,0.0,0.0,0.0,0.0,0.0,0.0,0.0,0.0,0.0,0.0,0.0,0.0,0.0,0.0,0.0,0.0,0.0,0.0,0.0,0.0,0.0,0.0,0.0,0.0,0.0,0.0,0.0,0.0,0.0,0.0,0.0,0.0,0.0,0.0,0.0,0.0,0.0,0.0,0.0,0.0,0.0,0.0,0.0,0.0,0.0,0.0,0.0,0.0,0.0,0.0,0.0,0.0,0.0,0.0,0.0,0.0,0.0,0.0,0.0,0.0,0.0,0.0,0.0,0.0,0.0,0.0,0.0,0.0,0.0,0.0,0.0,0.0,0.0,0.0,0.0,0.0,0.0,0.0,0.0,0.0,0.0,0.0,0.0,0.0,0.0,0.0,0.0,0.0,0.0,0.0,0.0,0.0,0.0,0.0,0.0,0.0,0.0,0.0,0.0,0.0,0.0,0.0,0.0,0.0,0.0,0.0,0.0,0.0,0.0,0.0,0.0,0.0,0.0,0.0,0.0,0.0,0.0,0.0,0.0,0.0,0.0,0.0,0.0,0.0,0.0,0.0,0.0,0.0,0.0,0.0,0.0,0.0,0.0,0.0,0.0,0.0,0.0,0.0,0.0,0.0,0.0,0.0,0.0,0.0,0.0,0.0,0.0,0.0,0.0,0.0,0.0,0.0,0.0,0.0,0.0,0.0,0.0,0.0,0.0,0.0,0.0,0.0,0.0,0.0,0.0,0.0,0.0,0.0,0.0,0.0,0.0,0.0,0.0,0.0,0.0,0.0,0.0,0.0,0.0,0.0,0.0,0.0,0.0,0.0,0.0,0.0,0.0,0.0,0.0,0.0,0.0,0.0,0.0,0.0,0.0,0.0,0.0,0.0,0.0,0.0,0.0,0.0,0.0,0.0,0.0,0.0,0.0,0.0,0.0,0.0,0.0,0.0,0.0,0.0,0.0,0.0,0.0,0.0,0.0,0.0,0.0,0.0,0.0,0.0,0.0,0.0,0.0,0.0,0.0,0.0,0.0,0.0,0.0,0.0,0.0,0.0,0.0,0.0,0.0,0.0,0.0,0.0,0.0,0.0,0.0,0.0,0.0,0.0,0.0,0.0,0.0,0.0,0.0,0.0,0.0,0.0,0.0,0.0,0.0,0.0,0.0,0.0,0.0,0.0,0.0,0.0,0.0,0.0,0.0,0.0,0.0,0.0,0.0,0.0,0.0,0.0,0.0,0.0,0.0,0.0,0.0,0.0,0.0,0.0,0.0,0.0,0.0,0.0,0.0,0.0,0.0,0.0,0.0,0.0,0.0,0.0,0.0,0.0,0.0,0.0,0.0,0.0,0.0,0.0,0.0,0.0,0.0,0.0,0.0,0.0,0.0,0.0,0.0,0.0,0.0,0.0,0.0,0.0,0.0,0.0,0.0,0.0,0.0,0.0,0.0,0.0,0.0,0.0,0.0,0.0,0.0,0.0,0.0,0.0,0.0,0.0,0.0,0.0,0.0,0.0,0.0,0.0,0.0,0.0,0.0,0.0,0.0,0.0,0.0,0.0,0.0,0.0,0.0,0.0,0.0,0.0,0.0,0.0,0.0,0.0,0.0,0.0,0.0,0.0,0.0,0.0,0.0,0.0,0.0,0.0,0.0,0.0,0.0,0.0,0.0,0.0,0.0,0.0,0.0,0.0,0.0,0.0,0.0,0.0,0.0,0.0,0.0,0.0,0.0,0.0,0.0,0.0,0.0,0.0,0.0,0.0,0.0,0.0,0.0,0.0,0.0,0.0,0.0,0.0,0.0,0.0,0.0,0.0,0.0,0.0,0.0,0.0,0.0,0.0,0.0,0.0,0.0,0.0,0.0,0.0,0.0,0.0,0.0,0.0,0.0,0.0,0.0,0.0,0.0,0.0,0.0,0.0,0.0,0.0,0.0,0.0,0.0,0.0,0.0,0.0,0.0,0.0,0.0,0.0,0.0,0.0,0.0,0.0,0.0,0.0,0.0,0.0,0.0,0.0,0.0,0.0,0.0,0.0,0.0,0.0,0.0,0.0,0.0,0.0,0.0,0.0,0.0,0.0,0.0,0.0,0.0,0.0,0.0,0.0,0.0,0.0,0.0,0.0,0.0,0.0,0.0,0.0,0.0,0.0,0.0,0.0,0.0,0.0,0.0,0.0,0.0,0.0,0.0,0.0,0.0,0.0,0.0,0.0,0.0,0.0,0.0,0.0,0.0,0.0,0.0,0.0,0.0,0.0,0.0,0.0,0.0,0.0,0.0,0.0,0.0,0.0,0.0,0.0,0.0,0.0,0.0,0.0,0.0,0.0,0.0,0.0,0.0,0.0,0.0,0.0,0.0,0.0,0.0,0.0,0.0,0.0,0.0,0.0,0.0,0.0,0.0,0.0,0.0,0.0,0.0,0.0,0.0,0.0,0.0,0.0,0.0,0.0,0.0,0.0,0.0,0.0,0.0,0.0,0.0,0.0,0.0,0.0,0.0,0.0,0.0,0.0,0.0,0.0,0.0,0.0,0.0,0.0,0.0,0.0,0.0,0.0,0.0,0.0,0.0,0.0,0.0,0.0,0.0,0.0,0.0,0.0,0.0,0.0,0.0,0.0,0.0,0.0,0.0,0.0,0.0,0.0,0.0,0.0,0.0,0.0,0.0,0.0,0.0,0.0,0.0,0.0,0.0,0.0,0.0,0.0,0.0,0.0,0.0,0.0,0.0,0.0,0.0,0.0,0.0,0.0,0.0,0.0,0.0,0.0,0.0,0.0,0.0,0.0,0.0,0.0,0.0,0.0,0.0,0.0,0.0,0.0,0.0,0.0,0.0,0.0,0.0,0.0,0.0,0.0,0.0,0.0,0.0,0.0,0.0,0.0,0.0,0.0,0.0,0.0,0.0,0.0,0.0,0.0,0.0,0.0,0.0,0.0,0.0,0.0,0.0,0.0,0.0,0.0,0.0,0.0,0.0,0.0,0.0,0.0,0.0,0.0,0.0,0.0,0.0,0.0,0.0,0.0,0.0,0.0,0.0,0.0,0.0,0.0,0.0,0.0,0.0,0.0,0.0,0.0,0.0,0.0,0.0,0.0,0.0,0.0,0.0,0.0,0.0,0.0,0.0,0.0,0.0,0.0,0.0,0.0,0.0,0.0,0.0,0.0,0.0,0.0,0.0,0.0,0.0,0.0,0.0,0.0,0.0,0.0,0.0,0.0,0.0,0.0,0.0,0.0,0.0,0.0,0.0,0.0,0.0,0.0,0.0,0.0,0.0,0.0,0.0,0.0,0.0,0.0,0.0,0.0,0.0,0.0,0.0,0.0,0.0,0.0,0.0,0.0,0.0,0.0,0.0,0.0,0.0,0.0,0.0,0.0,0.0,0.0,0.0,0.0,0.0,0.0,0.0,0.0,0.0,0.0,0.0,0.0,0.0,0.0,0.0,0.0,0.0,0.0,0.0,0.0,0.0,0.0,0.0,0.0,0.0,0.0,0.0,0.0,0.0,0.0,0.0,0.0,0.0,0.0,0.0,0.0,0.0,0.0,0.0,0.0,0.0,0.0,0.0,0.0,0.0,0.0,0.0,0.0,0.0,0.0,0.0,0.0,0.0,0.0,0.0,0.0,0.0,0.0,0.0,0.0,0.0,0.0,0.0,0.0,0.0,0.0,0.0,0.0,0.0,0.0,0.0,0.0,0.0,0.0,0.0,0.0,0.0,0.0,0.0,0.0,0.0,0.0,0.0,0.0,0.0,0.0,0.0,0.0,0.0,0.0,0.0,0.0,0.0,0.0,0.0,0.0,0.0,0.0,0.0,0.0,0.0,0.0,0.0,0.0,0.0,0.0,0.0,0.0,0.0,0.0,0.0,0.0,0.0,0.0,0.0,0.0,0.0,0.0,0.0,0.0,0.0,0.0,0.0,0.0,0.0,0.0,0.0,0.0,0.0,0.0,0.0,0.0,0.0,0.0,0.0,0.0,0.0,0.0,0.0,0.0,0.0,0.0,0.0,0.0,0.0,0.0,0.0,0.0,0.0,0.0,0.0,0.0,0.0,0.0,0.0,0.0,0.0,0.0,0.0,0.0,0.0,0.0,0.0,0.0,0.0,0.0,0.0,0.0,0.0,0.0,0.0,0.0,0.0,0.0,0.0,0.0,0.0,0.0,0.0,0.0,0.0,0.0,0.0,0.0,0.0,0.0,0.0,0.0,0.0,-2.2466,0.0,0.0,0.0,0.0,0.0,0.0,0.0,0.0,0.0,0.0,0.0,0.0,0.0,0.0,0.0,0.0,0.0,0.0,0.0,0.0,0.0,0.0,0.0,0.0,0.0,0.0,0.0,0.0,0.0,0.0,0.0,0.0,0.0,0.0,0.0,0.0,0.0,0.0,0.0,0.0,0.0,0.0,0.0,0.0,0.0,0.0,0.0,0.0,0.0,0.0,0.0,0.0,0.0,0.0,0.0,0.0,0.0,0.0,0.0,0.0,0.0,0.0,0.0,0.0,0.0,0.0,0.0,0.0,0.0,0.0,0.0,0.0,0.0,0.0,0.0,0.0,0.0,0.0,0.0,0.0,0.0,0.0,0.0,0.0,0.0,0.0,0.0,0.0,0.0,0.0,0.0,0.0,0.0,0.0,0.0,0.0,0.0,0.0,0.0,0.0,0.0,0.0,0.0,0.0,0.0,0.0,0.0,0.0,0.0,0.0,-1.9297,-1.9927,-2.0919,-2.1877,-2.2875,0.0,0.0,0.0,0.0,0.0,0.0,0.0,0.0,0.0,0.0,0.0,0.0,0.0,0.0,0.0,0.0,0.0,0.0,0.0,0.0,0.0,0.0,0.0,0.0,0.0,0.0,0.0,0.0,0.0,0.0,0.0,0.0,0.0,0.0,0.0,0.0,0.0,0.0,0.0,0.0,0.0,0.0,0.0,0.0,0.0,0.0,0.0,0.0,0.0,0.0,0.0,0.0,0.0,0.0,0.0,0.0,0.0,0.0,0.0,0.0,0.0,0.0,0.0,0.0,0.0,0.0,0.0,0.0,0.0,0.0,0.0,0.0,0.0,0.0,0.0,0.0,0.0,0.0,0.0,0.0,0.0,0.0,0.0,0.0,0.0,0.0,0.0,0.0,0.0,0.0,0.0,0.0,0.0,0.0,0.0,0.0,0.0,0.0,0.0,0.0,0.0,0.0,0.0,0.0,0.0,0.0,0.0,0.0,0.0,0.0,0.0,0.0,-2.1269,-2.2598,-2.3795,0.0,0.0,0.0,0.0,0.0,0.0,0.0,0.0,0.0,0.0,0.0,0.0,0.0,0.0,0.0,0.0,0.0,0.0,0.0,0.0,0.0,0.0,0.0,0.0,0.0,0.0,0.0,0.0,0.0,0.0,0.0,0.0,0.0,0.0,0.0,0.0,0.0,0.0,0.0,0.0,0.0,0.0,0.0,0.0,0.0,0.0,0.0,0.0,0.0,0.0,0.0,0.0,0.0,0.0,0.0,0.0,0.0,0.0,0.0,0.0,0.0,0.0,0.0,0.0,0.0,0.0,0.0,0.0,0.0,0.0,0.0,0.0,0.0,0.0,0.0,0.0,0.0,0.0,0.0,0.0,0.0,0.0,0.0,0.0,0.0,0.0,0.0,0.0,0.0,0.0,0.0,0.0,0.0,0.0,0.0,0.0,0.0,0.0,0.0,0.0,0.0,0.0,0.0,0.0,0.0,0.0,0.0,0.0,0.0,0.0,-1.872,-1.9515,-2.1132,0.0,-2.5503,0.0,0.0,0.0,0.0,0.0,0.0,0.0,0.0,0.0,0.0,0.0,0.0,0.0,0.0,0.0,0.0,0.0,0.0,0.0,0.0,0.0,0.0,0.0,0.0,0.0,0.0,0.0,0.0,0.0,0.0,0.0,0.0,0.0,0.0,0.0,0.0,0.0,0.0,0.0,0.0,0.0,0.0,0.0,0.0,0.0,0.0,0.0,0.0,0.0,0.0,0.0,0.0,0.0,0.0,0.0,0.0,0.0,0.0,0.0,0.0,0.0,0.0,0.0,0.0,0.0,0.0,0.0,0.0,0.0,0.0,0.0,0.0,0.0,0.0,0.0,0.0,0.0,0.0,0.0,0.0,0.0,0.0,0.0,0.0,0.0,0.0,0.0,0.0,0.0,0.0,0.0,0.0,0.0,0.0,0.0,0.0,0.0,0.0,0.0,0.0,0.0,0.0,0.0,0.0,0.0,0.0,0.0,0.0,0.0,0.0,-1.8501,-2.0099,-2.2622,-2.4924,0.0,0.0,0.0,0.0,0.0,0.0,0.0,0.0,0.0,0.0,0.0,0.0,0.0,0.0,0.0,0.0,0.0,0.0,0.0,0.0,0.0,0.0,0.0,0.0,0.0,0.0,0.0,0.0,0.0,0.0,0.0,0.0,0.0,0.0,0.0,0.0,0.0,0.0,0.0,0.0,0.0,0.0,0.0,0.0,0.0,0.0,0.0,0.0,0.0,0.0,0.0,0.0,0.0,0.0,0.0,0.0,0.0,0.0,0.0,0.0,0.0,0.0,0.0,0.0,0.0,0.0,0.0,0.0,0.0,0.0,0.0,0.0,0.0,0.0,0.0,0.0,0.0,0.0,0.0,0.0,0.0,0.0,0.0,0.0,0.0,0.0,0.0,0.0,0.0,0.0,0.0,0.0,0.0,0.0,0.0,0.0,0.0,0.0,0.0,0.0,0.0,0.0,0.0,0.0,0.0,0.0,0.0,0.0,0.0,0.0,-1.6956,-1.852,-2.1072,-2.3883,-2.6115,-2.7592,0.0,0.0,0.0,0.0,0.0,0.0,0.0,0.0,0.0,0.0,0.0,0.0,0.0,0.0,0.0,0.0,0.0,0.0,0.0,0.0,0.0,0.0,0.0,0.0,0.0,0.0,0.0,0.0,0.0,0.0,0.0,0.0,0.0,0.0,0.0,0.0,0.0,0.0,0.0,0.0,0.0,0.0,0.0,0.0,0.0,0.0,0.0,0.0,0.0,0.0,0.0,0.0,0.0,0.0,0.0,0.0,0.0,0.0,0.0,0.0,0.0,0.0,0.0,0.0,0.0,0.0,0.0,0.0,0.0,0.0,0.0,0.0,0.0,0.0,0.0,0.0,0.0,0.0,0.0,0.0,0.0,0.0,0.0,0.0,0.0,0.0,0.0,0.0,0.0,0.0,0.0,0.0,0.0,0.0,0.0,0.0,0.0,0.0,0.0,0.0,0.0,0.0,0.0,0.0,0.0,0.0,0.0,0.0,-1.5068,-1.6566,-1.8986,-2.225,-2.4523,-2.6133,0.0,0.0,0.0,0.0,0.0,0.0,0.0,0.0,0.0,0.0,0.0,0.0,0.0,0.0,0.0,0.0,0.0,0.0,0.0,0.0,0.0,0.0,0.0,0.0,0.0,0.0,0.0,0.0,0.0,0.0,0.0,0.0,0.0,0.0,0.0,0.0,0.0,0.0,0.0,0.0,0.0,0.0,0.0,0.0,0.0,0.0,0.0,0.0,0.0,0.0,0.0,0.0,0.0,0.0,0.0,0.0,0.0,0.0,0.0,0.0,0.0,0.0,0.0,0.0,0.0,0.0,0.0,0.0,0.0,0.0,0.0,0.0,0.0,0.0,0.0,0.0,0.0,0.0,0.0,0.0,0.0,0.0,0.0,0.0,0.0,0.0,0.0,0.0,0.0,0.0,0.0,0.0,0.0,0.0,0.0,0.0,0.0,0.0,0.0,0.0,0.0,0.0,0.0,0.0,0.0,0.0,0.0,0.0,0.0,-1.5009,-1.7082,-1.9401,-2.1796,-2.4209,-2.6079,0.0,0.0,0.0,0.0,0.0,0.0,0.0,0.0,0.0,0.0,0.0,0.0,0.0,0.0,0.0,0.0,0.0,0.0,0.0,0.0,0.0,0.0,0.0,0.0,0.0,0.0,0.0,0.0,0.0,0.0,0.0,0.0,0.0,0.0,0.0,0.0,0.0,0.0,0.0,0.0,0.0,0.0,0.0,0.0,0.0,0.0,0.0,0.0,0.0,0.0,0.0,0.0,0.0,0.0,0.0,0.0,0.0,0.0,0.0,0.0,0.0,0.0,0.0,0.0,0.0,0.0,0.0,0.0,0.0,0.0,0.0,0.0,0.0,0.0,0.0,0.0,0.0,0.0,0.0,0.0,0.0,0.0,0.0,0.0,0.0,0.0,0.0,0.0,0.0,0.0,0.0,0.0,0.0,0.0,0.0,0.0,0.0,0.0,0.0,0.0,0.0,0.0,0.0,0.0,0.0,0.0,0.0,0.0,0.0,-1.5183,0.0,-1.9383,-2.1406,-2.3798,-2.5798,0.0,0.0,0.0,0.0,0.0,0.0,0.0,0.0,0.0,0.0,0.0,0.0,0.0,0.0,0.0,0.0,0.0,0.0,0.0,0.0,0.0,0.0,0.0,0.0,0.0,0.0,0.0,0.0,0.0,0.0,0.0,0.0,0.0,0.0,0.0,0.0,0.0,0.0,0.0,0.0,0.0,0.0,0.0,0.0,0.0,0.0,0.0,0.0,0.0,0.0,0.0,0.0,0.0,0.0,0.0,0.0,0.0,0.0,0.0,0.0,0.0,0.0,0.0,0.0,0.0,0.0,0.0,0.0,0.0,0.0,0.0,0.0,0.0,0.0,0.0,0.0,0.0,0.0,0.0,0.0,0.0,0.0,0.0,0.0,0.0,0.0,0.0,0.0,0.0,0.0,0.0,0.0,0.0,0.0,0.0,0.0,0.0,0.0,0.0,0.0,0.0,0.0,0.0,0.0,0.0,0.0,0.0,0.0,-1.546,-1.5495,-1.6857,-1.8795,-2.125,-2.3517,-2.528,0.0,0.0,0.0,0.0,0.0,0.0,0.0,0.0,0.0,0.0,0.0,0.0,0.0,0.0,0.0,0.0,0.0,0.0,0.0,0.0,0.0,0.0,0.0,0.0,0.0,0.0,0.0,0.0,0.0,0.0,0.0,0.0,0.0,0.0,0.0,0.0,0.0,0.0,0.0,0.0,0.0,0.0,0.0,0.0,0.0,0.0,0.0,0.0,0.0,0.0,0.0,0.0,0.0,0.0,0.0,0.0,0.0,0.0,0.0,0.0,0.0,0.0,0.0,0.0,0.0,0.0,0.0,0.0,0.0,0.0,0.0,0.0,0.0,0.0,0.0,0.0,0.0,0.0,0.0,0.0,0.0,0.0,0.0,0.0,0.0,0.0,0.0,0.0,0.0,0.0,0.0,0.0,0.0,0.0,0.0,0.0,0.0,0.0,0.0,0.0,0.0,0.0,0.0,0.0,0.0,0.0,0.0,0.0,0.0,-1.3962,-1.5609,-1.7896,-2.0769,-2.3074,-2.5004,0.0,0.0,0.0,0.0,0.0,0.0,0.0,0.0,0.0,0.0,0.0,0.0,0.0,0.0,0.0,0.0,0.0,0.0,0.0,0.0,0.0,0.0,0.0,0.0,0.0,0.0,0.0,0.0,0.0,0.0,0.0,0.0,0.0,0.0,0.0,0.0,0.0,0.0,0.0,0.0,0.0,0.0,0.0,0.0,0.0,0.0,0.0,0.0,0.0,0.0,0.0,0.0,0.0,0.0,0.0,0.0,0.0,0.0,0.0,0.0,0.0,0.0,0.0,0.0,0.0,0.0,0.0,0.0,0.0,0.0,0.0,0.0,0.0,0.0,0.0,0.0,0.0,0.0,0.0,0.0,0.0,0.0,0.0,0.0,0.0,0.0,0.0,0.0,0.0,0.0,0.0,0.0,0.0,0.0,0.0,0.0,0.0,0.0,0.0,0.0,0.0,0.0,0.0,0.0,0.0,0.0,0.0,0.0,0.0,-0.9927,-1.3695,-1.7293,-2.0676,-2.3201,-2.5216,-2.6731,0.0,0.0,0.0,0.0,0.0,0.0,0.0,0.0,0.0,0.0,0.0,0.0,0.0,0.0,0.0,0.0,0.0,0.0,0.0,0.0,0.0,0.0,0.0,0.0,0.0,0.0,0.0,0.0,0.0,0.0,0.0,0.0,0.0,0.0,0.0,0.0,0.0,0.0,0.0,0.0,0.0,0.0,0.0,0.0,0.0,0.0,0.0,0.0,0.0,0.0,0.0,0.0,0.0,0.0,0.0,0.0,0.0,0.0,0.0,0.0,0.0,0.0,0.0,0.0,0.0,0.0,0.0,0.0,0.0,0.0,0.0,0.0,0.0,0.0,0.0,0.0,0.0,0.0,0.0,0.0,0.0,0.0,0.0,0.0,0.0,0.0,0.0,0.0,0.0,0.0,0.0,0.0,0.0,0.0,0.0,0.0,0.0,0.0,0.0,0.0,0.0,0.0,0.0,0.0,0.0,0.0,0.0,0.0,-0.3593,-1.0801,-1.6515,-2.0669,-2.3678,-2.5795,0.0,0.0,0.0,0.0,0.0,0.0,0.0,0.0,0.0,0.0,0.0,0.0,0.0,0.0,0.0,0.0,0.0,0.0,0.0,0.0,0.0,0.0,0.0,0.0,0.0,0.0,0.0,0.0,0.0,0.0,0.0,0.0,0.0,0.0,0.0,0.0,0.0,0.0,0.0,0.0,0.0,0.0,0.0,0.0,0.0,0.0,0.0,0.0,0.0,0.0,0.0,0.0,0.0,0.0,0.0,0.0,0.0,0.0,0.0,0.0,0.0,0.0,0.0,0.0,0.0,0.0,0.0,0.0,0.0,0.0,0.0,0.0,0.0,0.0,0.0,0.0,0.0,0.0,0.0,0.0,0.0,0.0,0.0,0.0,0.0,0.0,0.0,0.0,0.0,0.0,0.0,0.0,0.0,0.0,0.0,0.0,0.0,0.0,0.0,0.0,0.0,0.0,0.0,0.0,0.0,0.0,0.0,0.0,0.0,0.3628,-0.2266,-1.0014,-1.9242,-2.2524,-2.5227,0.0,0.0,0.0,0.0,0.0,0.0,0.0,0.0,0.0,0.0,0.0,0.0,0.0,0.0,0.0,0.0,0.0,0.0,0.0,0.0,0.0,0.0,0.0,0.0,0.0,0.0,0.0,0.0,0.0,0.0,0.0,0.0,0.0,0.0,0.0,0.0,0.0,0.0,0.0,0.0,0.0,0.0,0.0,0.0,0.0,0.0,0.0,0.0,0.0,0.0,0.0,0.0,0.0,0.0,0.0,0.0,0.0,0.0,0.0,0.0,0.0,0.0,0.0,0.0,0.0,0.0,0.0,0.0,0.0,0.0,0.0,0.0,0.0,0.0,0.0,0.0,0.0,0.0,0.0,0.0,0.0,0.0,0.0,0.0,0.0,0.0,0.0,0.0,0.0,0.0,0.0,0.0,0.0,0.0,0.0,0.0,0.0,0.0,0.0,0.0,0.0,0.0,0.0,0.0,0.0,0.0,0.0,0.0,1.0123,0.901,0.4956,-0.0571,-0.7389,-1.7869,-2.4766,0.0,0.0,0.0,0.0,0.0,0.0,0.0,0.0,0.0,0.0,0.0,0.0,0.0,0.0,0.0,0.0,0.0,0.0,0.0,0.0,0.0,0.0,0.0,0.0,0.0,0.0,0.0,0.0,0.0,0.0,0.0,0.0,0.0,0.0,0.0,0.0,0.0,0.0,0.0,0.0,0.0,0.0,0.0,0.0,0.0,0.0,0.0,0.0,0.0,0.0,0.0,0.0,0.0,0.0,0.0,0.0,0.0,0.0,0.0,0.0,0.0,0.0,0.0,0.0,0.0,0.0,0.0,0.0,0.0,0.0,0.0,0.0,0.0,0.0,0.0,0.0,0.0,0.0,0.0,0.0,0.0,0.0,0.0,0.0,0.0,0.0,0.0,0.0,0.0,0.0,0.0,0.0,0.0,0.0,0.0,0.0,0.0,0.0,0.0,0.0,0.0,0.0,0.0,0.0,0.0,0.0,0.0,0.0,1.449,1.2403,1.123,0.9601,0.7071,-1.124,-2.2629,0.0,0.0,0.0,0.0,0.0,0.0,0.0,0.0,0.0,0.0,0.0,0.0,0.0,0.0,0.0,0.0,0.0,0.0,0.0,0.0,0.0,0.0,0.0,0.0,0.0,0.0,0.0,0.0,0.0,0.0,0.0,0.0,0.0,0.0,0.0,0.0,0.0,0.0,0.0,0.0,0.0,0.0,0.0,0.0,0.0,0.0,0.0,0.0,0.0,0.0,0.0,0.0,0.0,0.0,0.0,0.0,0.0,0.0,0.0,0.0,0.0,0.0,0.0,0.0,0.0,0.0,0.0,0.0,0.0,0.0,0.0,0.0,0.0,0.0,0.0,0.0,0.0,0.0,0.0,0.0,0.0,0.0,0.0,0.0,0.0,0.0,0.0,0.0,0.0,0.0,0.0,0.0,0.0,0.0,0.0,0.0,0.0,0.0,0.0,0.0,0.0,0.0,0.0,0.0,0.0,0.0,0.0,0.0,1.5374,1.2426,1.6817,1.334,0.1154,-0.5704,-1.0425,0.0,0.0,0.0,0.0,0.0,0.0,0.0,0.0,0.0,0.0,0.0,0.0,0.0,0.0,0.0,0.0,0.0,0.0,0.0,0.0,0.0,0.0,0.0,0.0,0.0,0.0,0.0,0.0,0.0,0.0,0.0,0.0,0.0,0.0,0.0,0.0,0.0,0.0,0.0,0.0,0.0,0.0,0.0,0.0,0.0,0.0,0.0,0.0,-4.4582,0.0,0.0,0.0,0.0,0.0,0.0,0.0,0.0,0.0,0.0,0.0,0.0,0.0,0.0,0.0,0.0,0.0,0.0,0.0,0.0,0.0,0.0,0.0,0.0,0.0,0.0,0.0,0.0,0.0,0.0,0.0,0.0,0.0,0.0,0.0,0.0,0.0,0.0,0.0,0.0,0.0,0.0,0.0,0.0,0.0,0.0,0.0,0.0,0.0,0.0,0.0,0.0,0.0,0.0,0.0,0.0,0.0,0.0,0.0,1.4042,1.4326,1.6926,1.4956,0.8128,0.6289,0.1123,0.0,0.0,0.0,0.0,0.0,0.0,0.0,0.0,0.0,0.0,0.0,0.0,0.0,0.0,0.0,0.0,0.0,0.0,0.0,0.0,0.0,0.0,0.0,0.0,0.0,0.0,0.0,0.0,0.0,0.0,0.0,0.0,0.0,0.0,0.0,0.0,0.0,0.0,0.0,0.0,0.0,0.0,0.0,0.0,0.0,0.0,0.0,0.0,0.0,0.0,0.0,0.0,0.0,0.0,0.0,0.0,0.0,0.0,0.0,0.0,0.0,0.0,0.0,0.0,0.0,0.0,0.0,0.0,0.0,0.0,0.0,0.0,0.0,0.0,0.0,0.0,0.0,0.0,0.0,0.0,0.0,0.0,0.0,0.0,0.0,0.0,0.0,0.0,0.0,0.0,0.0,0.0,0.0,0.0,0.0,0.0,0.0,0.0,0.0,0.0,0.0,0.0,0.0,0.0,0.0,0.0,0.0,0.7377,1.1581,1.5195,1.4572,1.5029,1.7171,1.8007,1.1151,-0.4131,0.0,0.0,0.0,0.0,0.0,0.0,0.0,0.0,0.0,0.0,0.0,0.0,0.0,0.0,0.0,0.0,0.0,0.0,0.0,0.0,0.0,0.0,0.0,0.0,0.0,0.0,0.0,0.0,0.0,0.0,0.0,0.0,0.0,0.0,0.0,0.0,0.0,0.0,-4.2285,-4.3376,0.0,0.0,0.0,0.0,0.0,0.0,0.0,0.0,-4.7213,0.0,0.0,0.0,0.0,0.0,0.0,0.0,0.0,0.0,0.0,0.0,0.0,0.0,0.0,0.0,0.0,0.0,0.0,0.0,0.0,0.0,0.0,0.0,0.0,0.0,0.0,0.0,0.0,0.0,0.0,0.0,0.0,0.0,0.0,0.0,0.0,0.0,0.0,0.0,0.0,0.0,0.0,0.0,0.0,0.0,0.0,0.0,0.0,0.0,0.0,0.0,0.0,0.0,0.0,0.0,0.0,0.2948,0.5906,0.8392,1.0321,1.2087,1.3291,1.3962,1.8704,1.6777,0.6957,0.0,0.0,0.0,0.0,0.0,0.0,0.0,0.0,0.0,0.0,0.0,0.0,0.0,0.0,0.0,0.0,0.0,0.0,0.0,0.0,0.0,0.0,0.0,0.0,0.0,0.0,0.0,0.0,0.0,0.0,0.0,0.0,0.0,0.0,0.0,0.0,0.0,0.0,0.0,-4.5241,-4.5825,0.0,0.0,0.0,0.0,0.0,0.0,0.0,0.0,-4.6882,0.0,0.0,0.0,0.0,0.0,0.0,0.0,0.0,0.0,0.0,0.0,0.0,0.0,0.0,0.0,0.0,0.0,0.0,0.0,0.0,0.0,0.0,0.0,0.0,0.0,0.0,0.0,0.0,0.0,0.0,0.0,0.0,0.0,0.0,0.0,0.0,0.0,0.0,0.0,0.0,0.0,0.0,0.0,0.0,0.0,0.0,0.0,0.0,0.0,0.0,0.0,0.0,0.0,0.0,0.0,0.2928,0.7437,1.0108,1.115,1.1585,1.4079,1.8489,1.8826,1.5763,0.0,0.0,0.0,0.0,0.0,0.0,0.0,0.0,0.0,0.0,0.0,0.0,0.0,0.0,0.0,0.0,0.0,0.0,0.0,0.0,0.0,0.0,0.0,0.0,0.0,0.0,0.0,0.0,0.0,0.0,0.0,0.0,0.0,0.0,0.0,0.0,0.0,0.0,0.0,0.0,-4.7428,-4.8164,-4.9739,0.0,0.0,0.0,0.0,0.0,0.0,-4.8691,-4.8321,0.0,0.0,0.0,0.0,0.0,0.0,0.0,0.0,0.0,0.0,0.0,0.0,0.0,0.0,0.0,0.0,0.0,0.0,0.0,0.0,0.0,0.0,0.0,0.0,0.0,0.0,0.0,0.0,0.0,0.0,0.0,0.0,0.0,0.0,0.0,0.0,0.0,0.0,0.0,0.0,0.0,0.0,0.0,0.0,0.0,0.0,0.0,0.0,0.0,0.0,0.0,0.0,0.0,0.0,0.0,0.2907,0.9479,1.3245,1.4136,1.3241,1.5894,2.242,1.7285,1.1751,0.0,0.0,0.0,0.0,0.0,0.0,0.0,0.0,0.0,0.0,0.0,0.0,0.0,0.0,0.0,0.0,0.0,0.0,0.0,0.0,0.0,0.0,0.0,0.0,0.0,0.0,0.0,0.0,0.0,0.0,0.0,0.0,0.0,0.0,0.0,0.0,0.0,0.0,0.0,0.0,0.0,-5.0233,-5.153,-5.125,0.0,0.0,0.0,0.0,-4.9698,-5.0386,0.0,0.0,0.0,0.0,0.0,0.0,0.0,0.0,0.0,0.0,0.0,0.0,0.0,0.0,0.0,0.0,0.0,0.0,0.0,0.0,0.0,0.0,0.0,0.0,0.0,0.0,0.0,0.0,0.0,0.0,0.0,0.0,0.0,0.0,0.0,0.0,0.0,0.0,0.0,0.0,0.0,0.0,0.0,0.0,0.0,0.0,0.0,0.0,0.0,0.0,0.0,0.0,0.0,0.0,0.0,0.0,0.2519,1.0676,1.5861,1.7816,1.8006,1.828,1.8611,1.211,0.581,0.0,0.0,0.0,0.0,0.0,0.0,0.0,0.0,0.0,0.0,0.0,0.0,0.0,0.0,0.0,0.0,0.0,0.0,0.0,0.0,0.0,0.0,0.0,0.0,0.0,0.0,0.0,0.0,0.0,0.0,0.0,0.0,0.0,0.0,0.0,0.0,0.0,0.0,0.0,0.0,0.0,-5.0732,-5.249,-5.2203,-5.1899,0.0,0.0,-5.2114,-5.2543,-5.3282,0.0,0.0,0.0,0.0,0.0,0.0,0.0,0.0,0.0,0.0,0.0,0.0,0.0,0.0,0.0,0.0,0.0,0.0,0.0,0.0,0.0,0.0,0.0,0.0,0.0,0.0,0.0,0.0,0.0,0.0,0.0,0.0,0.0,0.0,0.0,0.0,0.0,0.0,0.0,0.0,0.0,0.0,0.0,0.0,0.0,0.0,0.0,0.0,0.0,0.0,0.0,0.0,0.0,0.0,0.0,-1.2819,-0.8088,-0.1594,0.2581,0.4177,0.3224,0.296,0.3569,-0.1687,-0.7056,0.0,0.0,0.0,0.0,0.0,0.0,0.0,0.0,0.0,0.0,0.0,0.0,0.0,0.0,0.0,0.0,0.0,0.0,0.0,0.0,0.0,0.0,0.0,0.0,0.0,0.0,0.0,0.0,0.0,0.0,0.0,0.0,0.0,0.0,0.0,0.0,0.0,0.0,0.0,0.0,0.0,0.0,-5.3646,-5.4418,0.0,0.0,0.0,-5.4407,-5.4099,0.0,0.0,0.0,0.0,0.0,0.0,0.0,0.0,0.0,0.0,0.0,0.0,0.0,0.0,0.0,0.0,0.0,0.0,0.0,0.0,0.0,0.0,0.0,0.0,0.0,0.0,0.0,0.0,0.0,0.0,0.0,0.0,0.0,0.0,0.0,0.0,0.0,0.0,0.0,0.0,0.0,0.0,0.0,0.0,0.0,0.0,0.0,0.0,0.0,0.0,0.0,0.0,0.0,0.0,0.0,0.0,0.0,-1.6913,-1.2109,-0.8944,-0.7569,-0.9112,-0.9755,-0.9337,-1.3614,0.0,0.0,0.0,0.0,0.0,0.0,0.0,0.0,0.0,0.0,0.0,0.0,0.0,0.0,0.0,0.0,0.0,0.0,0.0,0.0,0.0,0.0,0.0,0.0,0.0,0.0,0.0,-4.2448,0.0,0.0,0.0,0.0,0.0,0.0,0.0,0.0,0.0,0.0,0.0,0.0,0.0,0.0,-5.4135,-5.413,-5.5687,-5.6617,0.0,0.0,-5.5886,-5.4869,-5.4168,-5.341,0.0,0.0,0.0,0.0,0.0,0.0,0.0,0.0,0.0,0.0,0.0,0.0,0.0,0.0,0.0,0.0,0.0,0.0,0.0,0.0,0.0,0.0,0.0,0.0,0.0,0.0,0.0,0.0,0.0,0.0,0.0,0.0,0.0,0.0,0.0,0.0,0.0,0.0,0.0,0.0,0.0,0.0,0.0,0.0,0.0,0.0,0.0,0.0,0.0,0.0,0.0,0.0,0.0,0.0,0.0,-1.8963,-1.4844,-1.2033,-1.0034,-1.0125,-1.1584,-1.4301,-1.949,-2.3652,0.0,0.0,0.0,0.0,0.0,0.0,0.0,0.0,0.0,0.0,0.0,0.0,0.0,0.0,0.0,0.0,0.0,0.0,0.0,0.0,0.0,0.0,0.0,0.0,0.0,0.0,0.0,0.0,0.0,0.0,0.0,0.0,0.0,0.0,0.0,0.0,0.0,0.0,0.0,0.0,0.0,-5.4057,-5.3472,-5.4879,-5.5745,0.0,0.0,-5.5945,-5.4725,-5.6561,-5.7031,-5.3755,0.0,0.0,0.0,0.0,0.0,0.0,0.0,0.0,0.0,0.0,0.0,0.0,0.0,0.0,0.0,0.0,0.0,0.0,0.0,0.0,0.0,0.0,0.0,0.0,0.0,0.0,0.0,0.0,0.0,0.0,0.0,0.0,0.0,0.0,0.0,0.0,0.0,0.0,0.0,0.0,0.0,0.0,0.0,0.0,0.0,0.0,0.0,0.0,0.0,0.0,0.0,0.0,0.0,-3.1812,-3.0237,-2.9152,-2.837,-2.802,-2.8787,-2.9888,-3.1254,-3.2933,-3.4678,0.0,0.0,0.0,0.0,0.0,0.0,0.0,0.0,0.0,0.0,0.0,0.0,0.0,0.0,0.0,0.0,0.0,0.0,0.0,0.0,0.0,0.0,0.0,0.0,0.0,0.0,0.0,0.0,-4.2491,-4.2416,-4.3771,0.0,0.0,0.0,0.0,0.0,0.0,0.0,0.0,0.0,0.0,-5.5125,-5.5474,-5.6597,0.0,0.0,-5.7106,-5.7478,-5.6445,-5.6304,-5.5868,-5.4499,-5.2903,0.0,0.0,0.0,0.0,0.0,0.0,0.0,0.0,0.0,0.0,0.0,0.0,0.0,0.0,0.0,0.0,0.0,0.0,0.0,0.0,0.0,0.0,0.0,0.0,0.0,0.0,0.0,0.0,0.0,0.0,0.0,0.0,0.0,0.0,0.0,0.0,0.0,0.0,0.0,0.0,0.0,0.0,0.0,0.0,0.0,0.0,0.0,0.0,0.0,0.0,0.0,0.0,-3.6966,-3.7828,-3.8435,-3.9256,-4.0253,-4.1165,-4.1933,-4.2446,-4.1775,-4.1737,0.0,0.0,0.0,0.0,0.0,0.0,0.0,0.0,0.0,0.0,0.0,0.0,0.0,0.0,0.0,0.0,0.0,0.0,0.0,0.0,0.0,0.0,0.0,0.0,0.0,0.0,0.0,0.0,-4.3366,-4.3529,-4.4614,0.0,0.0,0.0,0.0,0.0,0.0,0.0,0.0,0.0,0.0,-5.5944,-5.6693,-5.7578,-5.7901,-5.7157,-5.7589,-5.7745,-5.7041,-5.5976,-5.5048,-5.449,0.0,0.0,0.0,0.0,0.0,0.0,0.0,0.0,0.0,0.0,0.0,0.0,0.0,0.0,0.0,0.0,0.0,0.0,0.0,0.0,0.0,0.0,0.0,0.0,0.0,0.0,0.0,0.0,0.0,0.0,0.0,0.0,0.0,0.0,0.0,0.0,0.0,0.0,0.0,0.0,0.0,0.0,0.0,0.0,0.0,0.0,0.0,0.0,0.0,0.0,0.0,0.0,0.0,-3.8293,-3.941,-3.9611,-4.0744,-4.2745,-4.3066,-4.3539,-4.4403,-4.3616,-4.2826,-4.217,0.0,0.0,0.0,0.0,0.0,0.0,0.0,0.0,0.0,0.0,0.0,0.0,0.0,0.0,0.0,0.0,0.0,0.0,0.0,0.0,0.0,0.0,0.0,0.0,0.0,0.0,-4.5343,-4.5693,-4.5794,0.0,0.0,0.0,0.0,0.0,0.0,0.0,0.0,0.0,0.0,-5.4617,-5.6339,-5.6561,-5.7322,-5.7751,-5.7273,-5.6737,-5.627,-5.6026,-5.5981,-5.5366,0.0,0.0,0.0,0.0,0.0,0.0,0.0,0.0,0.0,0.0,0.0,0.0,0.0,0.0,0.0,0.0,0.0,0.0,0.0,0.0,0.0,0.0,0.0,0.0,0.0,0.0,0.0,0.0,-4.2542,0.0,0.0,0.0,0.0,0.0,0.0,0.0,0.0,0.0,0.0,0.0,-4.9313,-4.9807,0.0,0.0,0.0,0.0,0.0,0.0,0.0,0.0,0.0,0.0,0.0,0.0,-3.851,-3.9568,-3.9586,-4.0227,-4.1643,-4.2773,-4.3476,-4.3807,-4.3699,-4.3442,-4.2961,0.0,0.0,0.0,0.0,0.0,0.0,0.0,0.0,0.0,0.0,0.0,0.0,0.0,0.0,0.0,0.0,0.0,0.0,0.0,0.0,0.0,0.0,0.0,0.0,0.0,-4.494,0.0,0.0,0.0,0.0,0.0,0.0,0.0,0.0,0.0,0.0,0.0,-5.2437,-5.4836,-5.6434,-5.7649,-5.8385,-5.8289,-5.7921,0.0,0.0,0.0,0.0,0.0,0.0,0.0,0.0,0.0,0.0,0.0,0.0,0.0,0.0,-5.4912,-5.3042,-5.2642,-5.2406,-5.1828,0.0,0.0,0.0,0.0,0.0,0.0,0.0,0.0,0.0,0.0,0.0,0.0,0.0,0.0,0.0,0.0,-4.4305,0.0,0.0,0.0,0.0,0.0,0.0,0.0,0.0,-4.9874,-5.0715,-5.1035,-5.1154,-5.1175,0.0,-4.8952,-4.7509,0.0,0.0,0.0,0.0,0.0,0.0,0.0,0.0,-3.9172,-4.0235,-4.0091,-4.0525,-4.1633,-4.2668,-4.3213,-4.3231,-4.3281,-4.3107,-4.2712,-4.1444,-4.0858,0.0,0.0,0.0,0.0,0.0,0.0,0.0,0.0,0.0,0.0,0.0,0.0,0.0,0.0,0.0,0.0,0.0,0.0,0.0,0.0,0.0,0.0,0.0,-4.5774,0.0,0.0,0.0,0.0,0.0,0.0,0.0,0.0,0.0,-5.0463,-5.1661,-5.3548,-5.6118,-5.6984,-5.7932,-5.959,0.0,0.0,0.0,0.0,0.0,0.0,0.0,-5.5896,-5.5574,-5.5866,-5.6449,-5.7353,-5.8242,-5.8373,-5.6982,0.0,0.0,-5.486,-5.4371,-5.4108,-5.3464,-5.326,-5.2895,-5.186,-5.1118,-5.023,0.0,0.0,0.0,0.0,0.0,0.0,0.0,0.0,-4.4373,-4.4351,0.0,-4.4403,0.0,0.0,0.0,0.0,0.0,0.0,0.0,0.0,-5.0937,-5.1835,-5.2453,-5.1536,-5.1238,-5.1351,-4.8625,-4.7003,-4.6476,-4.505,0.0,0.0,0.0,0.0,0.0,0.0,-4.0381,-4.1384,-4.1214,-4.1669,-4.2754,-4.2882,-4.292,-4.2902,-4.25,-4.2065,-4.1501,-4.1062,-4.0497,-3.9913,-3.9994,0.0,0.0,0.0,0.0,0.0,0.0,0.0,0.0,0.0,0.0,0.0,0.0,0.0,0.0,0.0,0.0,0.0,0.0,0.0,0.0,-4.6779,0.0,0.0,0.0,0.0,0.0,0.0,0.0,0.0,0.0,0.0,-5.1629,-5.2365,-5.3757,-5.5998,0.0,0.0,0.0,0.0,-5.752,-5.9619,-5.7903,-5.6551,-5.7273,-5.6667,-5.5733,-5.4654,0.0,0.0,-5.7584,-5.8245,-5.844,-5.7595,-5.7535,-5.7317,-5.6356,-5.5991,-5.5603,-5.4709,-5.4334,-5.3771,-5.2483,-5.1604,-5.0538,-4.7113,0.0,0.0,0.0,0.0,-4.4838,-4.5668,-4.6676,-4.6926,-4.6741,-4.6259,-4.616,0.0,0.0,0.0,0.0,0.0,0.0,-4.9085,-4.9961,-5.1479,-5.2228,-5.2305,-5.2298,-5.2221,-5.1956,-4.9114,-4.743,-4.6831,-4.4739,-4.341,-4.2903,0.0,0.0,0.0,0.0,-4.1264,-4.1841,-4.1654,-4.1528,-4.1546,-4.2436,-4.2975,-4.3105,-4.2995,-4.3018,-4.3231,-4.2433,-4.1791,-4.1381,-4.076,0.0,0.0,0.0,0.0,0.0,0.0,0.0,0.0,0.0,0.0,0.0,0.0,0.0,0.0,0.0,0.0,0.0,0.0,0.0,-4.6119,-4.6364,-4.669,0.0,0.0,0.0,0.0,0.0,0.0,0.0,0.0,0.0,-5.3756,-5.4013,-5.5028,0.0,0.0,-5.7703,-5.9758,-5.846,-5.7474,-5.81,0.0,0.0,0.0,-5.6052,-5.5869,-5.5385,-5.6304,-5.7353,-5.8075,-5.844,-5.8561,-5.8342,-5.792,-5.7156,-5.5794,-5.5804,-5.5782,-5.5228,-5.5017,-5.4636,-5.3658,-5.2576,-5.0976,-4.8048,-4.6404,-4.6075,-4.5369,-4.4563,-4.5082,-4.5949,-4.697,-4.6969,-4.68,-4.6471,-4.6319,-4.5726,-4.488,-4.5692,0.0,0.0,0.0,-4.938,-5.0218,-5.1277,-5.1978,-5.2299,-5.149,-5.1034,-5.0707,-4.7979,-4.64,-4.5881,-4.4072,-4.3124,-4.3031,0.0,0.0,-4.2591,-4.2163,-4.2085,-4.2356,-4.224,-4.2042,-4.1774,-4.2472,-4.2975,-4.3214,-4.3267,-4.3545,-4.3955,-4.3175,-4.2608,-4.2388,-4.122,-4.0431,0.0,0.0,0.0,0.0,0.0,0.0,0.0,0.0,0.0,0.0,0.0,-4.5855,-4.6264,0.0,0.0,0.0,-4.5894,-4.6065,-4.5722,-4.6314,0.0,0.0,0.0,0.0,0.0,0.0,0.0,-5.2948,-5.3323,-5.3883,-5.4869,-5.5112,-5.5913,-5.7722,-5.7207,-5.73,-5.9114,0.0,-5.6914,-5.7617,-5.6589,-5.5644,-5.5345,-5.5306,-5.5389,-5.556,-5.618,-5.7063,-5.7989,-5.8426,-5.8411,-5.7832,-5.7644,-5.7011,-5.4957,-5.5477,-5.5899,-5.4873,-5.49,-5.4788,-5.3736,-5.2927,-5.1468,-4.8261,-4.6891,-4.5989,-4.5081,-4.4309,-4.4573,-4.4968,-4.5385,-4.5442,-4.5323,-4.5115,-4.5364,-4.494,-4.4113,-4.5495,0.0,0.0,-4.8323,-4.9621,-5.0381,-5.0465,-5.1071,-5.2001,-4.9566,-4.8383,-4.8338,-4.5842,-4.4474,-4.4116,-4.3281,-4.288,-4.2822,-4.2822,-4.2745,-4.2649,-4.2727,-4.2783,-4.2783,-4.288,-4.29,-4.2882,-4.275,-4.2882,-4.3196,-4.3371,-4.3642,-4.3968,-4.3413,-4.3034,-4.2847,-4.1418,-4.057,-4.0499,0.0,0.0,0.0,0.0,0.0,0.0,0.0,0.0,0.0,0.0,0.0,0.0,0.0,0.0,0.0,-4.6127,0.0,-4.5058,-4.656,0.0,0.0,0.0,-5.076,-5.2226,-5.244,-5.2824,-5.3695,0.0,0.0,0.0,0.0,-5.6421,-5.7083,-5.6386,-5.6442,-5.8237,-5.6712,-5.6026,-5.7554,-5.6303,-5.5066,-5.4785,-5.438,-5.4293,-5.492,-5.5346,-5.5901,-5.7091,-5.7717,-5.748,-5.6319,-5.6764,-5.6598,-5.4135,-5.5036,-5.574,-5.3897,-5.432,-5.4526,-5.3313,-5.2876,-5.1708,-4.4938,-4.4371,-4.399,-4.4235,-4.4898,-4.5281,-4.5444,-4.5499,-4.5767,-4.5531,-4.5022,-4.4722,-4.4138,-4.3375,-4.4147,-4.5105,-4.6266,-4.7322,-4.8124,-4.8662,-4.8707,-4.851,-4.8047,-4.7111,-4.6616,-4.6432,-4.5003,-4.4211,-4.4041,-4.3281,-4.2882,-4.2862,-4.2862,-4.2842,-4.2727,-4.2781,-4.2802,-4.2783,-4.2862,-4.2862,-4.2786,-4.2219,-4.2336,-4.3267,-4.332,-4.356,-4.4005,-4.3831,-4.3193,-4.1983,-4.1545,-4.0774,-3.9591,-4.0158,0.0,0.0,0.0,0.0,0.0,0.0,0.0,0.0,0.0,-4.5914,-4.6145,0.0,-4.5579,0.0,-4.5096,-4.5233,-4.5696,-4.7317,0.0,0.0,-4.9607,-5.082,-5.0581,-5.1093,-5.18,-5.2729,-5.3494,-5.4213,-5.4855,-5.5638,-5.6096,-5.6096,-5.5837,-5.6062,-5.7079,-5.6142,-5.5371,-5.5654,-5.532,-5.4685,-5.3694,-5.297,-5.2704,-5.3244,-5.3428,-5.3862,-5.495,-5.4752,-5.4579,-5.4824,-5.4764,-5.4186,-5.3049,-5.3795,-5.4144,-5.3278,-5.4081,-5.4828,-5.3813,-5.2796,-5.1538,-4.2912,-4.3166,-4.2815,-4.3081,-4.3738,-4.4411,-4.4566,-4.4412,-4.4869,-4.4543,-4.3643,-4.3513,-4.3322,-4.3122,-4.4191,-4.4928,-4.5386,-4.6672,-4.722,-4.7148,-4.6828,-4.6527,-4.6157,-4.5093,-4.4638,-4.4774,-4.3953,-4.3552,-4.3534,-4.3099,-4.29,-4.29,-4.29,-4.29,-4.2842,-4.2824,-4.2786,-4.2783,-4.2747,-4.2765,-4.2688,-4.2246,-4.2405,-4.3196,-4.325,-4.3461,-4.3942,-4.3955,-4.3578,-4.2723,-4.2333,-4.175,-4.0867,-4.1045,-4.1646,0.0,0.0,0.0,0.0,0.0,0.0,0.0,0.0,0.0,0.0,0.0,-4.5274,0.0,-4.5208,0.0,-4.6499,-4.7429,-4.8139,-4.8429,-4.9411,-5.0315,-5.0984,-5.1451,-5.2219,-5.3452,-5.4297,-5.4838,-5.4955,-5.5629,-5.586,-5.5268,-5.5229,-5.5479,-5.5866,-5.5314,-5.4655,-5.4239,-5.4027,-5.3478,-5.2175,-5.1336,-5.1141,-5.1894,-5.2084,-5.2435,-5.3541,-5.3444,-5.3264,-5.3518,-5.3649,-5.3345,-5.2271,-5.306,-5.3564,-5.2648,-5.3144,-5.3765,-5.3408,-5.2533,-5.1508,-4.1728,-4.2477,-4.2091,-4.1993,-4.2081,-4.2977,-4.318,-4.2859,-4.3443,-4.3116,-4.2127,-4.231,-4.2608,-4.3057,-4.4573,-4.4894,-4.4325,-4.6129,-4.6506,-4.5678,-4.5075,-4.4892,-4.4981,-4.3364,-4.2767,-4.3239,-4.2976,-4.2844,-4.29,-4.29,-4.29,-4.29,-4.2882,-4.29,-4.29,-4.281,-4.277,-4.2802,-4.2688,-4.2627,-4.2609,-4.2548,-4.2724,-4.316,-4.3196,-4.341,-4.3865,-4.3942,-4.3949,-4.3838,-4.3169,-4.276,-4.2649,-4.2132,-4.224,0.0,-4.3348,0.0,0.0,0.0,0.0,0.0,0.0,0.0,0.0,-4.4996,-4.4885,-4.5704,-4.5782,-4.6158,-4.7028,-4.7223,-4.7922,-4.947,-4.914,-4.9683,-5.1967,-5.2297,-5.2865,-5.4311,-5.5225,-5.5442,-5.471,-5.5253,-5.5357,-5.4427,-5.439,-5.4509,-5.4531,-5.4257,-5.3774,-5.3009,-5.2526,-5.1873,-5.0848,-4.9921,-4.9803,-5.0805,-5.0993,-5.1376,-5.2405,-5.2615,-5.2498,-5.2202,-5.267,-5.2748,-5.1412,-5.2479,-5.3044,-5.1913,-5.2045,-5.2284,-5.2306,-5.1869,-5.1148,-4.0801,-4.1015,-4.1341,-4.1788,-4.2345,-4.2944,-4.2689,-4.1971,-4.2584,-4.2809,-4.2702,-4.2135,-4.2221,-4.2788,-4.2996,-4.3492,-4.4227,-4.5229,-4.5128,-4.4233,-4.4092,-4.3376,-4.2291,-4.1919,-4.1984,-4.2412,-4.2369,-4.2537,-4.29,-4.29,-4.29,-4.29,-4.2842,-4.2822,-4.2804,0.0,0.0,0.0,-4.2799,-4.2783,-4.2745,-4.2649,-4.2709,-4.3032,-4.3178,0.0,-4.3786,-4.391,-4.3708,-4.3058,-4.2872,0.0,0.0,0.0,0.0,0.0,0.0,0.0,0.0,0.0,0.0,0.0,-4.4827,-4.4994,-4.5435,-4.5315,-4.5327,-4.5594,-4.5696,-4.581,-4.6067,-4.6739,-4.7558,-4.8551,-4.9171,-4.9964,-5.1068,-5.1223,-5.1354,-5.1625,-5.2423,-5.2856,-5.2821,-5.3351,-5.361,-5.3126,-5.301,-5.2872,-5.256,-5.2735,-5.2622,-5.186,-5.0988,-5.0488,-5.0242,-4.9477,-4.9048,-4.9649,-4.972,-4.9928,-5.0397,-5.0508,-5.0554,-5.0565,-5.0855,-5.1138,-5.0977,-5.1432,-5.1869,-5.2245,-5.134,-5.0659,-5.1156,-5.0464,-4.9864,-3.9445,0.0,-4.0739,-4.1358,0.0,-4.2412,-4.2366,-4.195,-4.246,-4.2657,-4.2543,-4.2422,-4.2365,-4.2483,-4.2719,-4.3217,-4.3842,-4.4184,-4.4317,-4.4165,-4.3406,-4.2647,-4.1871,-4.1365,-4.1276,-4.1499,-4.199,-4.2338,-4.2555,-4.2806,-4.29,-4.29,-4.2862,-4.2842,-4.2783,-4.2714,-4.2696,-4.2711,-4.2727,-4.2688,-4.2688,-4.2649,-4.2709,-4.2957,0.0,0.0,0.0,0.0,0.0,0.0,0.0,0.0,0.0,0.0,0.0,-4.3591,-4.4042,-4.4186,-4.3905,-4.4252,-4.4436,-4.4272,-4.4662,-4.4995,-4.518,-4.518,-4.522,-4.538,-4.5495,-4.5753,-4.631,-4.6796,-4.7444,-4.8295,-4.8798,-4.9378,-5.0171,-5.0674,-5.1099,-5.1486,-5.1896,-5.215,-5.215,-5.2462,-5.2626,-5.2324,-5.2485,-5.2208,-5.1215,-5.1251,-5.1078,-4.9817,-4.8872,-4.8481,-4.876,-4.824,-4.8107,-4.8847,-4.8824,-4.8877,-4.9483,-4.9598,-4.9607,-4.9654,-5.0021,-5.0314,-4.978,-5.0072,-5.0504,-5.0515,-4.9882,-4.9356,-4.9703,-4.9693,-4.9759,-3.862,-3.9778,-4.0339,-4.0904,-4.1456,-4.1851,-4.198,-4.2045,0.0,0.0,0.0,-4.2599,-4.2625,-4.2417,-4.2689,-4.3013,-4.3247,-4.3132,-4.3377,-4.3927,-4.2675,-4.2033,-4.1882,-4.1064,-4.0707,-4.0849,-4.1587,-4.2032,-4.2216,-4.2595,-4.2844,-4.2882,-4.29,-4.2842,-4.2838,-4.286,-4.2828,-4.2722,-4.2696,-4.2691,-4.2826,-4.2768,-4.2862,-4.3087,-4.332,-4.3526,-4.3712,-4.3955,-4.4177,-4.4314,-4.4177,-4.4147,-4.4285,-4.4097,-4.4036,-4.4153,-4.4153,-4.3897,-4.3324,-4.3914,-4.4112,-4.3664,-4.4392,-4.4895,-4.4967,-4.4919,-4.4967,-4.5189,-4.5321,-4.5782,-4.6596,-4.6815,-4.7254,-4.8092,-4.8174,-4.8522,-4.9359,-5.019,-5.0848,-5.1428,-5.1544,-5.1738,-5.1679,-5.1699,-5.1766,-5.1722,-5.1765,-5.1356,-4.977,-4.945,-4.9253,-4.7998,-4.7295,-4.6927,-4.7299,-4.7132,-4.715,-4.8226,-4.8081,-4.8073,-4.8709,-4.9146,-4.9133,-4.8644,-4.9414,-4.9452,-4.8601,-4.8946,-4.9255,-4.8732,-4.8568,-4.8467,-4.834,-4.9038,-4.9637,-3.9255,-3.9322,-4.0301,-4.0799,-4.0919,-4.1456,-4.1654,-4.1722,-4.2138,-4.2292,-4.231,-4.2026,-4.2425,-4.3092,-4.1939,-4.1848,-4.2477,-4.1969,-4.1648,0.0,-4.1457,-4.1018,-4.0392,-4.0273,-4.0402,-4.0802,-4.0926,-4.1428,-4.2115,-4.2297,-4.2498,-4.2844,-4.2842,-4.2799,-4.2829,-4.3104,-4.3248,-4.3275,-4.2978,-4.3142,-4.3689,-4.3371,-4.3371,-4.3754,-4.3831,-4.3974,-4.4102,-4.4306,-4.444,-4.4458,-4.4344,-4.4285,-4.4285,-4.4097,-4.4005,-4.4036,-4.4055,-4.3999,-4.3899,-4.3992,-4.4091,-4.4194,-4.4503,-4.477,-4.4895,-4.4895,-4.4967,-4.5192,-4.5362,-4.5582,-4.5843,-4.6074,-4.6504,-4.723,-4.7385,-4.7688,-4.8503,-4.9359,-4.9668,-4.9184,-4.961,-5.0055,-5.0113,-5.0074,-5.0259,-5.0604,-5.0219,-4.8987,-4.7409,-4.6986,-4.7282,-4.7084,-4.6922,-4.6904,-4.693,-4.6941,-4.6904,-4.711,-4.7567,-4.7546,-4.7324,-4.8143,-4.8408,-4.74,-4.8109,-4.8457,-4.8008,-4.8314,-4.8463,-4.836,-4.8388,-4.8242,-4.7532,-4.7911,-4.8436,-3.8036,-3.8144,-3.9651,-4.0146,-3.9889,-4.0904,-4.1456,-4.1623,-4.1821,-4.1866,-4.1864,-4.1371,-4.1281,-4.1483,-4.0733,-4.0705,-4.1285,-4.1294,-4.1446,-4.1779,-4.139,-4.1018,-4.0679,-4.029,-4.0221,-4.0434,-4.0972,-4.141,-4.1846,-4.2338,-4.2673,-4.29,-4.2842,-4.282,-4.2876,-4.3142,-4.3435,-4.367,-4.3517,-4.359,-4.3881,-4.3721,-4.3721,-4.3912,-4.4035,-4.4143,-4.4192,-4.4393,-4.4542,-4.4616,-4.442,-4.4352,-4.4418,-4.4135,-4.4005,-4.4005,-4.4005,-4.4005,-4.4005,-4.4097,-4.4207,-4.4285,-4.4487,-4.4659,-4.4789,-4.4865,-4.4943,-4.5038,-4.5263,-4.5491,-4.5574,-4.5802,-4.6108,-4.6507,-4.6938,-4.7327,-4.7746,-4.8484,-4.8817,-4.845,-4.8314,-4.8469,-4.8933,-4.8585,-4.8609,-4.9186,-4.8547,-4.7365,-4.6196,-4.5897,-4.5771,-4.5632,-4.5602,-4.5809,-4.6119,-4.5839,-4.5998,-4.6711,-4.6712,-4.6676,-4.6589,-4.7336,-4.7141,-4.6473,-4.6977,-4.72,-4.664,-4.6935,-4.721,-4.7039,-4.7105,-4.6922,-4.6699,-4.7039,-4.7552,-3.6908,-3.7035,-3.8826,-3.9508,-3.9391,-4.0409,-4.1055,-4.1323,-4.1323,-4.139,-4.1295,-4.0781,-4.0448,-4.0063,-3.9714,-3.9787,-4.0161,-4.0546,-4.1133,-4.1694,-4.1204,-4.095,-4.0899,-4.0341,-4.0037,-4.0171,-4.0908,-4.1348,-4.1525,-4.2302,-4.2806,-4.29,-4.2842,-4.2862,-4.3032,-4.3284,-4.3615,-4.3988,-4.4109,-4.4125,-4.4125,-4.4065,-4.4035,-4.4143,-4.4279,-4.4365,-4.4365,-4.4458,-4.4597,-4.4697,-4.443,-4.4333,-4.4437,-4.4184,-4.4005,-4.4005,-4.4005,-4.4005,-4.4005,-4.4147,-4.4226,-4.4255,-4.4354,-4.4496,-4.4605,-4.4777,-4.49,-4.4943,-4.522,-4.5437,-4.5543,-4.5761,-4.5941,-4.6014,-4.6504,-4.6842,-4.6946,-4.7608,-4.8005,-4.7811,-4.7386,-4.7405,-4.7811,-4.7521,-4.7414,-4.7761,-4.7221,-4.6564,-4.596,-4.5274,-4.4852,-4.4659,-4.458,-4.4862,-4.5406,-4.5092,-4.524,-4.6374,-4.6083,-4.5921,-4.6181,-4.6309,-4.6121,-4.5627,-4.6035,-4.621,-4.5375,-4.5721,-4.6127,-4.6003,-4.6074,-4.6053,-4.613,-4.6464,-4.7025,-3.6839,-3.6872,-3.7965,-3.919,-4.0106,-4.0316,-4.047,-4.0608,-4.0593,-4.0608,-4.0653,-4.0601,-4.0368,-4.0016,-3.9275,-3.913,-3.9395,-3.9402,-3.9776,-4.0324,-4.0223,-4.0189,-4.0223,-4.0037,-3.9901,-3.9986,-4.0466,-4.0938,-4.1348,-4.1973,-4.2498,-4.2844,-4.29,-4.305,-4.3336,-4.3656,-4.4016,-4.4364,-4.4636,-4.4802,-4.4777,-4.4511,-4.4503,-4.4821,-4.4802,-4.4846,-4.4777,-4.4719,-4.4685,-4.4685,-4.444,-4.4333,-4.4304,-4.4116,-4.4005,-4.4005,-4.4005,-4.4005,-4.4005,-4.3986,-4.4036,-4.4036,-4.4207,-4.4344,-4.4354,-4.4707,-4.4887,-4.4972,-4.5244,-4.5491,-4.5524,-4.5802,-4.5964,-4.5941,-4.6034,-4.5996,-4.6093,-4.6689,-4.6902,-4.6109,-4.667,-4.7134,-4.7173,-4.7057,-4.6982,-4.6874,-4.6724,-4.62,-4.5371,-4.5028,-4.4895,-4.4846,-4.4865,-4.4903,-4.5016,-4.494,-4.5052,-4.5384,-4.5666,-4.5553,-4.5434,-4.5809,-4.6215,-4.4957,-4.52,-4.5595,-4.5323,-4.5341,-4.5697,-4.5789,-4.5858,-4.6015,-4.606,-4.6135,-4.6561,-3.588,-3.5568,-3.6786,-3.8101,-3.9262,-3.9478,-3.992,-4.0455,-4.0524,-4.0524,-4.0432,-4.0153,-3.9625,-3.911,-3.873,-3.8601,-3.8756,-3.9445,-3.985,-4.007,-4.0087,-4.0087,-4.0087,-3.9935,-3.9884,-3.9986,-4.0594,-4.0984,-4.1303,-4.2092,-4.267,-4.29,-4.29,-4.3087,-4.3406,-4.3656,-4.3992,-4.4383,-4.4648,-4.484,-4.4889,-4.4777,-4.4726,-4.477,-4.4789,-4.4719,-4.4659,-4.4605,-4.457,-4.4552,-4.441,-4.4311,-4.4296,-4.4092,-4.4005,-4.4005,-4.4005,-4.4005,-4.4005,-4.4005,-4.4005,-4.4005,-4.4085,-4.4218,-4.4467,-4.4669,-4.4868,-4.5135,-4.5419,-4.5577,-4.5623,-4.5815,-4.5933,-4.5953,-4.591,-4.5893,-4.5867,-4.6137,-4.6148,-4.5858,-4.6109,-4.6322,-4.6322,-4.6322,-4.621,-4.5991,-4.5937,-4.5644,-4.5005,-4.4895,-4.4895,-4.4919,-4.4991,-4.5014,-4.4919,-4.4895,-4.4948,-4.501,-4.5092,-4.4983,-4.4964,-4.4936,-4.5046,-4.4381,-4.4879,-4.5193,-4.501,-4.5204,-4.5526,-4.5661,-4.5791,-4.5896,-4.5916,-4.5968,-4.6298,-3.5089,-3.4946,-3.6353,-3.7814,-3.8957,-3.9175,-3.9707,-4.0355,-4.027,-4.0178,-4.0101,-3.9287,-3.8626,-3.8237,-3.8439,-3.8472,-3.8463,-3.9575,-4.0087,-4.007,-4.0087,-4.0037,-4.0037,-3.9901,-3.9798,-3.9918,-4.0625,-4.1213,-4.1587,-4.2374,-4.2842,-4.2882,-4.29,-4.305,-4.3336,-4.3575,-4.3881,-4.4289,-4.4522,-4.4712,-4.477,-4.4789,-4.4745,-4.4712,-4.4659,-4.4605,-4.4515,-4.4458,-4.4449,-4.4418,-4.4304,-4.4202,-4.4203,-4.4079,-4.4005,-4.4005,-4.4005,-4.4005,-4.4005,-4.4005,-4.4005,-4.4005,-4.4048,-4.4231,-4.4538,-4.4751,-4.5011,-4.5284,-4.5509,-4.5661,-4.5673,-4.5794,-4.5905,-4.5941,-4.5905,-4.588,-4.588,-4.5808,-4.5819,-4.58,-4.5858,-4.58,-4.5819,-4.5838,-4.5781,-4.5528,-4.5438,-4.5321,-4.5061,-4.4991,-4.4991,-4.5019,-4.5154,-4.5148,-4.4967,-4.5019,-4.5019,-4.5023,-4.5014,-4.4995,-4.4857,-4.4802,-4.4648,-4.4688,-4.4751,-4.4877,-4.5099,-4.5323,-4.5526,-4.5645,-4.5742,-4.58,-4.5819,-4.5891,-4.593,-3.5072,-3.5249,-3.7246,-3.8634,-3.9625,-3.9783,-4.0051,-4.0301,-3.9794,-3.9533,-3.9244,-3.8227,-3.7536,-3.7394,-3.8635,-3.891,-3.8511,-3.9575,-4.007,-4.0087,-3.9986,-3.9901,-3.9901,-3.9642,-3.9537,-3.9625,-4.048,-4.1525,-4.2609,-4.2745,-4.2842,-4.29,-4.29,-4.3032,-4.332,-4.3575,-4.3786,-4.4095,-4.4374,-4.4542,-4.4524,-4.4524,-4.4578,-4.4659,-4.4578,-4.4515,-4.4487,-4.4373,-4.4333,-4.4304,-4.4116,-4.4023,-4.4023,-4.4023,-4.4005,-4.4005,-4.4005,-4.4005,-4.4005,-4.4005,-4.4005,-4.4048,-4.425,-4.4411,-4.4606,-4.4976,-4.5265,-4.5399,-4.5632,-4.5731,-4.5645,-4.5737,-4.5814,-4.5827,-4.5814,-4.5814,-4.5814,-4.5814,-4.58,-4.58,-4.58,-4.58,-4.58,-4.58,-4.5692,-4.5491,-4.54,-4.5361,-4.5218,-4.5173,-4.5216,-4.5301,-4.5341,-4.5262,-4.5019,-4.5109,-4.5303,-4.5323,-4.5241,-4.5316,-4.5321,-4.5245,-4.508,-4.4992,-4.5077,-4.5223,-4.5343,-4.549,-4.5626,-4.5708,-4.5771,-4.58,-4.58,-4.58,-4.5838,-3.459,-3.5156,-3.6738,-3.7979,-3.8884,-3.906,-3.9523,-4.0076,-3.9558,-3.9321,-3.91,-3.8341,-3.7778,-3.7477,-3.867,-3.8859,-3.8423,-3.9575,-4.0037,-4.0003,-3.9952,-3.9833,-3.9746,-3.9606,-3.9484,-3.9625,-4.04,-4.1455,-4.2552,-4.2649,-4.2765,-4.29,-4.29,-4.305,-4.3355,-4.3594,-4.3899,-4.4242,-4.443,-4.4524,-4.4578,-4.4468,-4.4401,-4.444,-4.4401,-4.4296,-4.4188,-4.4147,-4.4116,-4.4097,-4.4036,-4.4005,-4.4005,-4.4005,-4.4005,-4.4005,-4.4005,-4.4005,-4.4005,-4.4005,-4.4084,-4.4308,-4.4419,-4.4638,-4.4954,-4.5227,-4.5417,-4.556,-4.5715,-4.5731,-4.5696,-4.5746,-4.5824,-4.58,-4.58,-4.58,-4.58,-4.58,-4.58,-4.58,-4.58,-4.58,-4.58,-4.58,-4.5733,-4.558,-4.5522,-4.5473,-4.5361,-4.5323,-4.5341,-4.54,-4.5456,-4.5456,-4.5262,-4.5301,-4.5419,-4.54,-4.54,-4.5361,-4.5381,-4.5399,-4.5247,-4.5263,-4.5381,-4.5437,-4.5543,-4.561,-4.5742,-4.5771,-4.58,-4.58,-4.58,-4.58,-4.58,-3.5007,-3.5722,-3.7112,-3.8055,-3.8738,-3.8972,-3.9364,-3.9819,-3.9192,-3.8918,-3.8903,-3.8202,-3.7835,-3.8072,-3.8944,-3.936,-3.9226,-3.9773,-3.9935,-3.9849,-3.9798,-3.9729,-3.9625,-3.9484,-3.9432,-3.9573,-4.0385,-4.1506,-4.2754,-4.2695,-4.2814,-4.3186,-4.3045,-4.2976,-4.3213,-4.3526,-4.3849,-4.4095,-4.4345,-4.4524,-4.4551,-4.4383,-4.4255,-4.4207,-4.4207,-4.4147,-4.4005,-4.4005,-4.4005,-4.4005,-4.4005,-4.4005,-4.4005,-4.4005,-4.4005,-4.4005,-4.4005,-4.4005,-4.4036,-4.4091,-4.4243,-4.448,-4.4687,-4.4931,-4.5285,-4.5454,-4.5577,-4.5712,-4.5731,-4.575,-4.575,-4.575,-4.5765,-4.5776,-4.5805,-4.5805,-4.5805,-4.58,-4.58,-4.58,-4.58,-4.58,-4.58,-4.58,-4.5747,-4.5621,-4.5587,-4.5558,-4.5488,-4.5472,-4.5475,-4.5528,-4.5613,-4.5629,-4.5545,-4.5563,-4.5547,-4.5509,-4.556,-4.5512,-4.5494,-4.5505,-4.5522,-4.5531,-4.5568,-4.5616,-4.5696,-4.5742,-4.5786,-4.58,-4.58,-4.58,-4.58,-4.58,-4.58,-3.6318,-3.6802,-3.8634,-3.9265,-3.9337,-3.9538,-3.9696,-3.9485,-3.8591,-3.844,-3.8644,-3.7607,-3.7793,-3.8587,-3.9452,-4.0215,-4.0443,-4.0113,-3.9929,-3.9912,-3.979,-3.9684,-3.9701,-3.9528,-3.9548,-3.9654,-4.0453,-4.1873,-4.3519,-4.3122,-4.3188,-4.3632,-4.3242,-4.2953,-4.2804,-4.3389,-4.3656,-4.3754,-4.4229,-4.444,-4.4314,-4.4314,-4.4207,-4.4067,-4.4036,-4.4005,-4.4005,-4.4005,-4.4005,-4.4005,-4.4005,-4.4005,-4.4005,-4.4005,-4.4005,-4.4005,-4.4005,-4.4005,-4.4036,-4.4308,-4.4466,-4.4627,-4.4973,-4.5266,-4.5435,-4.5629,-4.5761,-4.5791,-4.5761,-4.5715,-4.575,-4.5738,-4.5764,-4.5738,-4.5843,-4.5781,-4.5892,-4.5824,-4.58,-4.58,-4.58,-4.58,-4.58,-4.58,-4.5752,-4.5658,-4.5626,-4.5629,-4.561,-4.5594,-4.5642,-4.5723,-4.5771,-4.5742,-4.5771,-4.5786,-4.5708,-4.5661,-4.5708,-4.5727,-4.5696,-4.5703,-4.5688,-4.57,-4.57,-4.5742,-4.5723,-4.58,-4.58,-4.5814,-4.5814,-4.5814,-4.58,-4.58,-4.58,-3.7343,-3.7587,-3.8855,-3.9424,-3.9424,-3.9625,-3.9625,-3.9478,-3.8762,-3.859,-3.8644,-3.8325,-3.8193,-3.8545,-3.9786,-4.0414,-4.0189,-4.0535,-4.0928,-4.1071,-4.1017,-4.0895,-4.0685,-4.0304,-4.0484,-4.1238,-4.2371,-4.3419,-4.4185,-4.4211,-4.4096,-4.3862,-4.3707,-4.333,-4.2955,-4.3508,-4.3818,-4.3849,-4.4355,-4.4605,-4.4551,-4.4383,-4.4285,-4.4207,-4.4067,-4.4005,-4.4005,-4.4005,-4.4005,-4.4005,-4.4005,-4.4005,-4.4005,-4.4005,-4.4005,-4.4005,-4.4005,-4.4116,-4.4309,-4.444,-4.4702,-4.5035,-4.5262,-4.5451,-4.5642,-4.5757,-4.5805,-4.581,-4.5781,-4.5765,-4.5722,-4.5726,-4.5921,-4.6529,-4.6101,-4.5982,-4.6379,-4.6139,-4.5858,-4.58,-4.58,-4.58,-4.58,-4.58,-4.5786,-4.5757,-4.5723,-4.5742,-4.5723,-4.5723,-4.5737,-4.58,-4.58,-4.58,-4.58,-4.58,-4.5771,-4.5708,-4.5771,-4.58,-4.58,-4.58,-4.58,-4.5814,-4.5814,-4.5827,-4.5827,-4.5822,-4.5835,-4.5835,-4.5835,-4.5841,-4.5814,-4.5814,-4.5814,-3.7843,-3.8084,-3.9017,-3.9424,-3.9409,-3.9553,-3.9553,-3.932,-3.8832,-3.8892,-3.9268,-3.9108,-3.931,-3.9818,-4.0958,-4.133,-4.1222,-4.1939,-4.2311,-4.2268,-4.1737,-4.1515,-4.1432,-4.1255,-4.1663,-4.2666,-4.353,-4.435,-4.514,-4.4939,-4.4773,-4.4741,-4.4187,-4.3725,-4.3393,-4.3676,-4.3892,-4.3974,-4.4467,-4.4764,-4.4667,-4.4524,-4.4401,-4.4314,-4.4177,-4.4067,-4.4005,-4.4302,-4.4321,-4.4079,-4.4005,-4.4005,-4.4005,-4.4005,-4.4005,-4.4036,-4.4128,-4.4251,-4.4482,-4.4697,-4.4949,-4.5353,-4.5488,-4.5626,-4.5786,-4.58,-4.5805,-4.581,-4.5815,-4.5785,-4.5703,-4.569,-4.6095,-4.6846,-4.6208,-4.6028,-4.6407,-4.6124,-4.5844,-4.58,-4.58,-4.58,-4.58,-4.58,-4.58,-4.58,-4.58,-4.58,-4.58,-4.58,-4.58,-4.58,-4.58,-4.58,-4.58,-4.58,-4.58,-4.58,-4.58,-4.58,-4.58,-4.58,-4.5814,-4.5848,-4.5861,-4.5917,-4.5917,-4.591,-4.5922,-4.591,-4.5886,-4.588,-4.5887,-4.5854,-4.5854,-3.8023,-3.8396,-3.9134,-3.9469,-3.9514,-3.9469,-3.9481,-3.9376,-3.8923,-3.9358,-4.0185,-4.0106,-4.0653,-4.2122,-4.2402,-4.2769,-4.3376,-4.3337,-4.3396,-4.3098,-4.2336,-4.1723,-4.1743,-4.2419,-4.3167,-4.3798,-4.4155,-4.4837,-4.5802,-4.539,-4.5341,-4.5827,-4.4795,-4.4126,-4.4213,-4.4085,-4.4101,-4.424,-4.4659,-4.4821,-4.4738,-4.4685,-4.4578,-4.4373,-4.4314,-4.4263,-4.4346,-4.4965,-4.4952,-4.4228,-4.4191,-4.4153,-4.4055,-4.4005,-4.4005,-4.4079,-4.4308,-4.4439,-4.4646,-4.4986,-4.5321,-4.5448,-4.565,-4.58,-4.58,-4.58,-4.58,-4.5819,-4.581,-4.5781,-4.5731,-4.5703,-4.6059,-4.6565,-4.6254,-4.5957,-4.5758,-4.5785,-4.5795,-4.5805,-4.58,-4.58,-4.58,-4.58,-4.58,-4.58,-4.58,-4.58,-4.58,-4.58,-4.58,-4.58,-4.58,-4.58,-4.58,-4.58,-4.58,-4.5757,-4.5771,-4.5814,-4.5841,-4.5841,-4.5854,-4.5886,-4.5933,-4.5986,-4.5997,-4.5997,-4.5977,-4.5966,-4.5944,-4.5949,-4.5937,-4.5905,-4.5867,-3.9298,-3.9773,-3.9546,-3.9694,-4.0038,-3.9649,-3.9768,-4.013,-4.0032,-4.0399,-4.1131,-4.1661,-4.1708,-4.1934,-4.2883,-4.3152,-4.3056,-4.3413,-4.3645,-4.3578,-4.328,-4.2972,-4.3247,-4.4406,-4.4977,-4.4947,-4.5581,-4.6354,-4.6659,-4.64,-4.6337,-4.6169,-4.5804,-4.5472,-4.5407,-4.5007,-4.4978,-4.5113,-4.4983,-4.4927,-4.4859,-4.4801,-4.4667,-4.4605,-4.4401,-4.4603,-4.5084,-4.5797,-4.5788,-4.5026,-4.4952,-4.4718,-4.4307,-4.4172,-4.4226,-4.443,-4.4493,-4.4681,-4.5067,-4.53,-4.5486,-4.5655,-4.5742,-4.58,-4.58,-4.58,-4.58,-4.58,-4.5819,-4.5833,-4.5827,-4.5761,-4.5841,-4.593,-4.6294,-4.6271,-4.5841,-4.5715,-4.5761,-4.5776,-4.5805,-4.58,-4.58,-4.58,-4.58,-4.58,-4.58,-4.5814,-4.5814,-4.5805,-4.5791,-4.58,-4.58,-4.58,-4.58,-4.58,-4.5771,-4.5696,-4.5742,-4.5827,-4.588,-4.5929,-4.5953,-4.5975,-4.5997,-4.6027,-4.6027,-4.6027,-4.6008,-4.6027,-4.6037,-4.6047,-4.5986,-4.5925,-4.5886,-3.9634,-3.9963,-3.9574,-3.9634,-4.0006,-3.9919,-4.0076,-4.0478,-4.0805,-4.1307,-4.1931,-4.2412,-4.2561,-4.2495,-4.3234,-4.3413,-4.3081,-4.3429,-4.3628,-4.3747,-4.4054,-4.4236,-4.4521,-4.5662,-4.6086,-4.6006,-4.6611,-4.6926,-4.698,-4.6998,-4.6936,-4.6892,-4.6571,-4.6458,-4.6594,-4.6108,-4.5966,-4.6139,-4.5991,-4.5843,-4.5464,-4.5369,-4.5028,-4.4799,-4.4505,-4.483,-4.5817,-4.6634,-4.6624,-4.6025,-4.5815,-4.5556,-4.492,-4.4841,-4.4813,-4.4789,-4.4776,-4.5026,-4.5298,-4.5495,-4.5645,-4.5771,-4.58,-4.58,-4.58,-4.58,-4.5819,-4.5877,-4.5877,-4.5893,-4.5905,-4.5827,-4.5908,-4.6217,-4.6604,-4.6544,-4.5753,-4.5687,-4.57,-4.5765,-4.5795,-4.5805,-4.58,-4.58,-4.58,-4.58,-4.58,-4.5827,-4.5822,-4.5805,-4.5781,-4.5791,-4.5742,-4.5731,-4.5715,-4.5715,-4.5731,-4.5648,-4.5645,-4.5752,-4.588,-4.5933,-4.5997,-4.6017,-4.6066,-4.6075,-4.6047,-4.6056,-4.6111,-4.6119,-4.6119,-4.6084,-4.6007,-4.5925,-4.5886,-3.9469,-3.9499,-3.9439,-3.9439,-3.9745,-4.0231,-4.06,-4.0873,-4.1377,-4.2045,-4.2589,-4.2696,-4.3019,-4.3585,-4.3519,-4.3611,-4.3578,-4.3595,-4.3654,-4.4047,-4.4674,-4.5216,-4.5425,-4.6049,-4.6584,-4.6827,-4.7007,-4.7043,-4.707,-4.707,-4.7371,-4.7538,-4.7153,-4.7298,-4.7571,-4.7273,-4.7054,-4.7146,-4.7095,-4.6821,-4.6335,-4.6127,-4.5672,-4.516,-4.5059,-4.5439,-4.6419,-4.727,-4.7497,-4.6824,-4.6837,-4.6414,-4.5828,-4.5982,-4.5857,-4.5363,-4.5478,-4.5551,-4.5592,-4.5803,-4.5873,-4.5974,-4.5916,-4.5877,-4.5955,-4.5955,-4.5838,-4.5955,-4.5988,-4.5964,-4.596,-4.5932,-4.6274,-4.6694,-4.6932,-4.6644,-4.6007,-4.5791,-4.5803,-4.5738,-4.5785,-4.581,-4.5805,-4.58,-4.58,-4.58,-4.5819,-4.5819,-4.5833,-4.5776,-4.5765,-4.5727,-4.5684,-4.562,-4.562,-4.562,-4.562,-4.5601,-4.558,-4.5677,-4.5808,-4.5898,-4.5977,-4.6008,-4.5947,-4.5958,-4.6018,-4.6065,-4.6091,-4.6127,-4.6093,-4.6026,-4.5949,-4.5886,-4.5829,-3.9723,-4.0142,-3.9634,-4.0039,-4.0827,-4.0801,-4.1245,-4.2126,-4.2411,-4.2834,-4.3267,-4.3372,-4.3432,-4.3628,-4.3628,-4.3645,-4.3628,-4.3687,-4.3873,-4.449,-4.5233,-4.585,-4.6231,-4.6731,-4.7007,-4.7205,-4.7178,-4.7196,-4.7223,-4.7439,-4.7674,-4.7886,-4.8145,-4.8466,-4.8789,-4.8258,-4.8031,-4.8134,-4.7787,-4.7434,-4.7119,-4.6626,-4.6184,-4.5811,-4.6101,-4.6379,-4.685,-4.7936,-4.8587,-4.8478,-4.8021,-4.7404,-4.6896,-4.6869,-4.6955,-4.6908,-4.6546,-4.6493,-4.6568,-4.622,-4.6129,-4.6612,-4.6245,-4.609,-4.6728,-4.6225,-4.5974,-4.5988,-4.5988,-4.6035,-4.5936,-4.6503,-4.6849,-4.7075,-4.7509,-4.7568,-4.6872,-4.6615,-4.6362,-4.597,-4.5838,-4.5877,-4.593,-4.593,-4.591,-4.5838,-4.5805,-4.5844,-4.581,-4.5781,-4.5715,-4.5648,-4.5601,-4.5532,-4.5514,-4.5514,-4.5514,-4.5514,-4.5512,-4.5528,-4.5677,-4.5747,-4.5796,-4.579,-4.577,-4.5808,-4.5897,-4.5863,-4.5863,-4.5958,-4.6008,-4.5933,-4.5841,-4.5796,-4.5699,-3.9634,-3.9888,-3.9888,-4.0329,-4.1071,-4.1503,-4.2078,-4.2678,-4.3141,-4.3459,-4.3713,-4.3747,-4.3789,-4.3814,-4.3848,-4.3881,-4.3923,-4.4105,-4.4412,-4.493,-4.5648,-4.6244,-4.6613,-4.7053,-4.7338,-4.732,-4.7294,-4.7338,-4.7542,-4.7738,-4.8041,-4.8495,-4.8779,-4.9075,-4.9577,-4.9135,-4.9098,-4.9178,-4.889,-4.8453,-4.8023,-4.7656,-4.679,-4.6379,-4.6665,-4.6985,-4.6967,-4.8314,-4.9043,-4.9196,-4.8959,-4.845,-4.789,-4.7937,-4.8104,-4.7809,-4.774,-4.727,-4.7047,-4.6728,-4.6612,-4.7076,-4.6631,-4.6999,-4.7405,-4.7231,-4.6897,-4.6706,-4.6589,-4.6474,-4.6072,-4.6679,-4.7178,-4.7796,-4.8367,-4.8654,-4.8218,-4.7505,-4.6653,-4.6082,-4.5866,-4.5912,-4.5976,-4.5957,-4.5924,-4.5827,-4.5746,-4.575,-4.5795,-4.5731,-4.5618,-4.553,-4.5495,-4.5438,-4.5438,-4.5419,-4.5419,-4.54,-4.538,-4.54,-4.5457,-4.5528,-4.5558,-4.5603,-4.566,-4.5698,-4.5757,-4.5717,-4.5689,-4.5744,-4.577,-4.5744,-4.5675,-4.5533,-4.5398,-3.9496,-3.9553,-4.0161,-4.06,-4.108,-4.2125,-4.2785,-4.3108,-4.3654,-4.3906,-4.3964,-4.3923,-4.3948,-4.4088,-4.4064,-4.4097,-4.4253,-4.4652,-4.4892,-4.525,-4.6098,-4.666,-4.6972,-4.732,-4.7554,-4.745,-4.7475,-4.7669,-4.7838,-4.808,-4.8531,-4.9099,-4.9277,-4.948,-4.9805,-4.9906,-4.9811,-4.9808,-4.9777,-4.9556,-4.9005,-4.8713,-4.7726,-4.6479,-4.673,-4.7099,-4.7323,-4.842,-4.9377,-4.9427,-4.9585,-4.9325,-4.9029,-4.903,-4.9121,-4.8372,-4.8542,-4.8327,-4.7874,-4.7502,-4.7366,-4.7424,-4.7328,-4.7734,-4.8314,-4.8314,-4.7942,-4.7676,-4.7462,-4.7295,-4.6657,-4.7177,-4.7889,-4.8517,-4.9282,-4.9524,-4.9307,-4.8043,-4.6893,-4.6364,-4.6061,-4.5975,-4.5917,-4.5899,-4.5854,-4.5822,-4.5727,-4.5668,-4.568,-4.5651,-4.5514,-4.5438,-4.538,-4.536,-4.536,-4.536,-4.5359,-4.5339,-4.5298,-4.5319,-4.5338,-4.5361,-4.5438,-4.5505,-4.5568,-4.56,-4.5584,-4.5539,-4.5519,-4.5565,-4.5545,-4.5549,-4.5413,-4.5266,-4.5163,-3.9925,-3.9925,-4.0066,-4.0752,-4.1739,-4.2252,-4.2986,-4.3814,-4.4064,-4.4138,-4.4097,-4.4097,-4.4097,-4.4138,-4.408,-4.4097,-4.431,-4.4801,-4.5355,-4.5749,-4.6519,-4.7062,-4.7425,-4.7597,-4.7806,-4.8072,-4.8075,-4.8078,-4.8252,-4.8674,-4.9001,-4.9259,-4.9588,-4.9824,-4.9879,-4.9952,-4.9978,-5.0031,-5.0057,-4.9911,-4.9708,-4.9068,-4.8118,-4.6606,-4.7068,-4.7296,-4.7542,-4.8568,-4.9472,-4.9625,-4.9692,-4.9749,-4.9816,-5.0026,-4.9988,-4.9834,-4.956,-4.9301,-4.8991,-4.8527,-4.8643,-4.8894,-4.8585,-4.8624,-4.9068,-4.8836,-4.8411,-4.8183,-4.8153,-4.8213,-4.829,-4.804,-4.8663,-4.9148,-4.9011,-4.8769,-4.858,-4.7882,-4.7115,-4.6824,-4.6416,-4.5956,-4.586,-4.5761,-4.5723,-4.5654,-4.5591,-4.5491,-4.5418,-4.5419,-4.5375,-4.5316,-4.5277,-4.5277,-4.5298,-4.5317,-4.5317,-4.5297,-4.5275,-4.5275,-4.5275,-4.5254,-4.53,-4.5381,-4.5381,-4.5381,-4.5342,-4.5342,-4.5323,-4.5342,-4.5342,-4.5342,-4.5227,-4.5123,-4.5099,-4.0011,-4.0011,-4.0385,-4.1142,-4.2141,-4.2645,-4.335,-4.4121,-4.4253,-4.4253,-4.4196,-4.4212,-4.427,-4.4344,-4.4344,-4.4344,-4.4536,-4.5267,-4.5767,-4.6165,-4.6845,-4.7407,-4.7741,-4.7888,-4.8072,-4.8364,-4.855,-4.873,-4.88,-4.9104,-4.9389,-4.9588,-4.9824,-4.9879,-4.9925,-4.9925,-5.0005,-5.0031,-5.0082,-5.0133,-5.0087,-4.9283,-4.8232,-4.7896,-4.7749,-4.7935,-4.8199,-4.8966,-4.9749,-4.9906,-4.9978,-5.0095,-5.0264,-5.044,-5.0544,-5.0529,-5.0366,-5.0094,-4.9803,-4.9262,-4.9301,-4.9533,-4.9301,-4.9513,-4.9861,-4.9591,-4.8686,-4.7985,-4.7337,-4.7287,-4.7226,-4.7777,-4.8115,-4.8433,-4.8448,-4.8496,-4.8305,-4.7611,-4.7245,-4.6992,-4.6341,-4.5824,-4.5695,-4.5607,-4.5565,-4.549,-4.5433,-4.5323,-4.5204,-4.5216,-4.522,-4.5227,-4.5192,-4.5213,-4.5213,-4.5233,-4.5254,-4.5233,-4.5233,-4.5233,-4.5211,-4.517,-4.517,-4.5216,-4.5192,-4.517,-4.5192,-4.5197,-4.5178,-4.5137,-4.5159,-4.514,-4.5096,-4.503,-4.5004,-4.0137,-4.0137,-4.0699,-4.1444,-4.2332,-4.2909,-4.3604,-4.4236,-4.4367,-4.4367,-4.4367,-4.4384,-4.444,-4.4643,-4.4682,-4.4682,-4.4776,-4.5734,-4.6116,-4.6406,-4.7222,-4.7723,-4.7847,-4.8032,-4.8306,-4.8605,-4.8887,-4.9352,-4.9302,-4.9457,-4.9636,-4.9797,-4.9879,-4.9879,-4.9925,-4.9925,-4.9986,-5.0057,-5.0133,-5.0139,-4.9948,-4.9321,-4.8789,-4.8764,-4.8719,-4.8579,-4.8344,-4.9303,-4.972,-4.9879,-5.0035,-5.0245,-5.0445,-5.0625,-5.072,-5.0756,-5.0841,-5.0561,-5.0461,-5.0287,-5.0461,-5.0848,-5.0384,-5.0538,-5.0326,-4.9803,-4.8802,-4.7627,-4.71,-4.6822,-4.719,-4.7268,-4.7589,-4.7777,-4.8136,-4.8166,-4.7849,-4.7298,-4.6583,-4.6257,-4.5877,-4.5693,-4.5534,-4.5437,-4.54,-4.5322,-4.5264,-4.5163,-4.5094,-4.509,-4.5099,-4.5122,-4.5125,-4.5125,-4.5125,-4.5148,-4.5148,-4.5148,-4.5148,-4.5148,-4.5125,-4.5103,-4.5103,-4.5103,-4.5057,-4.5057,-4.508,-4.508,-4.5084,-4.5042,-4.4991,-4.4991,-4.4976,-4.4976,-4.4948,-4.0455,-4.047,-4.0524,-4.1276,-4.2395,-4.252,-4.335,-4.444,-4.4497,-4.457,-4.457,-4.4553,-4.4609,-4.4776,-4.4886,-4.494,-4.5213,-4.5885,-4.6406,-4.6548,-4.7439,-4.7911,-4.797,-4.7992,-4.8421,-4.8818,-4.9023,-4.9206,-4.9396,-4.9683,-4.9824,-4.9879,-4.9879,-4.9879,-4.9906,-4.9933,-5.0012,-5.0108,-5.0139,-5.0163,-5.0019,-4.9365,-4.8967,-4.884,-4.8731,-4.856,-4.8294,-4.9231,-4.9727,-4.9368,-4.9907,-5.0336,-5.0606,-5.0735,-5.0822,-5.0874,-5.0967,-5.1196,-5.1602,-5.1621,-5.1854,-5.2105,-5.2028,-5.1583,-5.0507,-4.9312,-4.8365,-4.8503,-4.799,-4.7695,-4.7552,-4.8075,-4.8341,-4.7907,-4.7434,-4.7279,-4.7041,-4.6682,-4.5994,-4.5782,-4.5458,-4.5438,-4.5361,-4.5298,-4.5235,-4.5151,-4.5106,-4.5019,-4.4972,-4.4991,-4.5033,-4.5033,-4.5057,-4.5057,-4.5057,-4.5057,-4.5057,-4.508,-4.508,-4.508,-4.5057,-4.5033,-4.5014,-4.501,-4.4986,-4.4962,-4.4943,-4.4986,-4.4962,-4.4962,-4.4943,-4.4919,-4.4919,-4.4895,-4.4895,-4.0524,-4.0524,-4.0524,-4.1024,-4.1901,-4.1965,-4.2707,-4.3781,-4.3972,-4.4293,-4.4682,-4.4737,-4.4776,-4.4923,-4.4978,-4.4995,-4.523,-4.6035,-4.6501,-4.6735,-4.7482,-4.7992,-4.8072,-4.821,-4.8605,-4.8818,-4.9169,-4.9389,-4.9558,-4.9722,-4.9879,-4.9879,-4.9879,-4.9879,-4.9879,-4.9906,-4.9959,-5.0038,-5.0114,-5.0163,-5.0062,-4.9809,-4.9575,-4.9581,-4.9435,-4.9169,-4.9182,-4.9364,-4.9892,-4.9748,-5.0218,-5.0446,-5.0717,-5.0871,-5.0932,-5.0986,-5.1508,-5.1886,-5.2117,-5.2218,-5.2566,-5.2589,-5.2279,-5.1338,-4.9727,-4.827,-4.7195,-4.6716,-4.6735,-4.681,-4.6885,-4.6788,-4.6788,-4.6639,-4.6565,-4.6395,-4.611,-4.5744,-4.5354,-4.5233,-4.5129,-4.5154,-4.5156,-4.5109,-4.5061,-4.5038,-4.5014,-4.4967,-4.4943,-4.4943,-4.4943,-4.4986,-4.4986,-4.4986,-4.4986,-4.4967,-4.4967,-4.4967,-4.4967,-4.4967,-4.4986,-4.4962,-4.4943,-4.4919,-4.4938,-4.4914,-4.4846,-4.487,-4.4895,-4.4895,-4.4895,-4.487,-4.4821,-4.4895,-4.4895,-4.0524,-4.0524,-4.0524,-4.0904,-4.1459,-4.1525,-4.2269,-4.3436,-4.3495,-4.4013,-4.4648,-4.4886,-4.4978,-4.5049,-4.5086,-4.5247,-4.5372,-4.6231,-4.6595,-4.7053,-4.7548,-4.8014,-4.8151,-4.8364,-4.855,-4.8641,-4.915,-4.9431,-4.9588,-4.9778,-4.9906,-4.9879,-4.9879,-4.9879,-4.9879,-4.9906,-4.9933,-5.0005,-5.0114,-5.0139,-5.0139,-5.012,-5.0149,-5.0169,-5.012,-4.9999,-4.9926,-5.0068,-5.0183,-5.0002,-5.0352,-5.0625,-5.0858,-5.0961,-5.1197,-5.1424,-5.2001,-5.2608,-5.2939,-5.3145,-5.2908,-5.2612,-5.1493,-5.0306,-4.8309,-4.6954,-4.6244,-4.5668,-4.5649,-4.5592,-4.5438,-4.5534,-4.5687,-4.5726,-4.5534,-4.54,-4.5321,-4.5216,-4.5148,-4.508,-4.4991,-4.4967,-4.4948,-4.4943,-4.4919,-4.4895,-4.4895,-4.4895,-4.4895,-4.4895,-4.4895,-4.4919,-4.4919,-4.4919,-4.4938,-4.4895,-4.4895,-4.487,-4.487,-4.4895,-4.4914,-4.4889,-4.4821,-4.4846,-4.4889,-4.4764,-4.4667,-4.4745,-4.4821,-4.4745,-4.4719,-4.4764,-4.4789,-4.4846,-4.487,-4.0524,-4.0524,-4.0524,-4.0904,-4.1475,-4.1525,-4.2269,-4.3376,-4.3495,-4.4013,-4.4814,-4.5049,-4.5177,-4.523,-4.5406,-4.5667,-4.6087,-4.6631,-4.7026,-4.7506,-4.7995,-4.8229,-4.8267,-4.8344,-4.8495,-4.873,-4.9085,-4.9309,-4.9569,-4.9731,-4.986,-4.9906,-4.9879,-4.9879,-4.9879,-4.9879,-4.9933,-5.0005,-5.0082,-5.0082,-5.0108,-5.0139,-5.0259,-5.0259,-5.0256,-5.0057,-4.9388,-4.9956,-5.0193,-4.9817,-5.0336,-5.07,-5.089,-5.1004,-5.1296,-5.1955,-5.2441,-5.3224,-5.3993,-5.4226,-5.4477,-5.3676,-5.1726,-4.9062,-4.7317,-4.611,-4.5477,-4.538,-4.5321,-4.5341,-4.5361,-4.54,-4.5321,-4.5281,-4.5218,-4.5197,-4.5132,-4.5061,-4.4986,-4.4938,-4.4914,-4.4895,-4.4895,-4.4895,-4.4895,-4.4895,-4.4895,-4.4895,-4.4895,-4.4895,-4.487,-4.487,-4.487,-4.487,-4.4914,-4.4889,-4.4796,-4.4796,-4.4796,-4.4821,-4.4846,-4.4796,-4.4796,-4.4815,-4.484,-4.4659,-4.4578,-4.4726,-4.4802,-4.4587,-4.4551,-4.4738,-4.4846,-4.4943,-4.4895,-4.0524,-4.0524,-4.0524,-4.0646,-4.0888,-4.1327,-4.2029,-4.2892,-4.3453,-4.4186,-4.5032,-4.5247,-4.53,-4.5406,-4.5752,-4.6005,-4.6315,-4.7026,-4.7378,-4.7692,-4.8035,-4.8267,-4.8324,-4.8306,-4.8364,-4.8513,-4.8765,-4.9038,-4.9296,-4.9588,-4.9778,-4.9852,-4.9879,-4.9879,-4.9879,-4.9906,-4.9933,-4.9978,-5.0031,-5.0031,-5.0057,-5.0188,-5.0306,-5.0336,-5.0339,-5.0352,-5.0182,-5.0274,-5.0297,-5.0317,-5.0547,-5.0733,-5.0929,-5.1029,-5.1574,-5.2422,-5.2933,-5.3947,-5.4651,-5.4554,-5.3711,-5.2041,-4.9982,-4.7972,-4.6742,-4.5734,-4.5205,-4.5087,-4.5224,-4.536,-4.5148,-4.5125,-4.5084,-4.5065,-4.5141,-4.5209,-4.5124,-4.5109,-4.4933,-4.4933,-4.4914,-4.4895,-4.4895,-4.4895,-4.4895,-4.4895,-4.4895,-4.4895,-4.4895,-4.487,-4.4846,-4.4796,-4.4796,-4.477,-4.477,-4.4738,-4.4712,-4.4712,-4.4719,-4.4719,-4.4745,-4.4846,-4.4846,-4.4865,-4.487,-4.4827,-4.4852,-4.4857,-4.4808,-4.4719,-4.4745,-4.4846,-4.4943,-4.5014,-4.4967,-4.0608,-4.0662,-4.0851,-4.0836,-4.0836,-4.126,-4.2013,-4.2892,-4.3529,-4.4316,-4.5177,-4.53,-4.5511,-4.5701,-4.5988,-4.6459,-4.6753,-4.7273,-4.7614,-4.7897,-4.8132,-4.8267,-4.8324,-4.8324,-4.8306,-4.8364,-4.8569,-4.8834,-4.899,-4.9327,-4.9558,-4.9693,-4.9852,-4.9879,-4.9879,-4.9906,-4.9906,-4.9959,-4.9959,-4.9959,-5.0005,-5.0193,-5.0313,-5.0425,-5.0508,-5.0606,-5.0604,-5.0643,-5.0625,-5.0678,-5.0771,-5.0825,-5.1003,-5.1325,-5.1923,-5.2775,-5.3689,-5.4599,-5.4972,-5.4287,-5.2865,-5.1261,-4.9623,-4.791,-4.6606,-4.5889,-4.5916,-4.5437,-4.5526,-4.5615,-4.5577,-4.5892,-4.5992,-4.6168,-4.6106,-4.6101,-4.5683,-4.5501,-4.5179,-4.4971,-4.4952,-4.4933,-4.4914,-4.4914,-4.4895,-4.4895,-4.4895,-4.4895,-4.4889,-4.4846,-4.477,-4.4738,-4.4685,-4.4659,-4.4613,-4.4605,-4.4578,-4.4624,-4.4605,-4.4578,-4.4605,-4.4745,-4.4827,-4.4758,-4.4833,-4.5,-4.5137,-4.5214,-4.5052,-4.4895,-4.4938,-4.5043,-4.4976,-4.5045,-4.5087,-4.073,-4.1122,-4.1607,-4.1656,-4.1591,-4.1525,-4.2395,-4.3588,-4.3898,-4.4412,-4.5177,-4.5423,-4.5701,-4.6087,-4.6266,-4.6771,-4.7291,-4.7548,-4.7856,-4.8172,-4.8229,-4.8324,-4.8324,-4.8324,-4.8324,-4.8364,-4.8532,-4.8677,-4.8731,-4.9233,-4.9439,-4.9548,-4.9741,-4.9879,-4.9879,-4.9879,-4.9879,-4.9917,-5.0001,-5.0058,-5.0164,-5.0417,-5.0552,-5.0488,-5.0681,-5.0825,-5.0822,-5.0822,-5.0825,-5.0841,-5.1032,-5.1145,-5.1293,-5.2003,-5.2795,-5.3798,-5.4558,-5.535,-5.5977,-5.4515,-5.2697,-5.0879,-4.9354,-4.8311,-4.7083,-4.6725,-4.6809,-4.6222,-4.6575,-4.6992,-4.7207,-4.7207,-4.7049,-4.6916,-4.684,-4.6695,-4.6241,-4.5862,-4.5558,-4.5483,-4.5198,-4.4971,-4.4952,-4.4933,-4.4914,-4.4895,-4.4895,-4.4895,-4.4889,-4.4865,-4.477,-4.4659,-4.4597,-4.4578,-4.4551,-4.4496,-4.4468,-4.4487,-4.4487,-4.444,-4.4486,-4.4655,-4.4688,-4.4688,-4.4929,-4.5235,-4.5411,-4.5551,-4.5741,-4.5932,-4.5304,-4.5213,-4.5125,-4.5074,-4.5156,-4.1557,-4.1933,-4.2395,-4.2814,-4.312,-4.318,-4.3495,-4.398,-4.4468,-4.4944,-4.5353,-4.5701,-4.6005,-4.6332,-4.6845,-4.7291,-4.7591,-4.7995,-4.8229,-4.8267,-4.8324,-4.8324,-4.8324,-4.8324,-4.8343,-4.8382,-4.8514,-4.8748,-4.8971,-4.9252,-4.9457,-4.9615,-4.9702,-4.9797,-4.9852,-4.9936,-5.0088,-5.0656,-5.0816,-5.0852,-5.0907,-5.1075,-5.1022,-5.0625,-5.0808,-5.0909,-5.089,-5.089,-5.089,-5.1006,-5.1238,-5.1718,-5.2005,-5.27,-5.3657,-5.4303,-5.4771,-5.3993,-5.3847,-5.2783,-5.1891,-5.0538,-4.9546,-4.8673,-4.7522,-4.7314,-4.7176,-4.7124,-4.7318,-4.7481,-4.7219,-4.7238,-4.7143,-4.7,-4.6932,-4.6897,-4.662,-4.6278,-4.6032,-4.6165,-4.6051,-4.588,-4.5786,-4.5103,-4.4895,-4.499,-4.5028,-4.4933,-4.4914,-4.4865,-4.4796,-4.4632,-4.4524,-4.4496,-4.4487,-4.4627,-4.4533,-4.4487,-4.4364,-4.4229,-4.4336,-4.4768,-4.5028,-4.5261,-4.5369,-4.5495,-4.6179,-4.6787,-4.7082,-4.7066,-4.6617,-4.6099,-4.5992,-4.5686,-4.5282,-4.2411,-4.2785,-4.324,-4.3714,-4.4169,-4.4054,-4.4169,-4.4468,-4.4998,-4.5318,-4.5511,-4.5955,-4.6315,-4.6631,-4.7204,-4.7775,-4.7856,-4.8132,-4.8306,-4.8324,-4.8324,-4.8324,-4.8324,-4.8361,-4.8524,-4.8545,-4.8473,-4.8587,-4.9048,-4.9135,-4.9396,-4.9655,-4.9721,-4.9788,-4.9947,-5.022,-5.0618,-5.1149,-5.13,-5.1505,-5.1459,-5.1404,-5.1291,-5.0875,-5.0773,-5.0877,-5.0877,-5.0877,-5.0877,-5.1109,-5.1609,-5.2208,-5.2608,-5.3446,-5.431,-5.4723,-5.4605,-5.3771,-5.3204,-5.2931,-5.2148,-5.0871,-5.001,-4.9154,-4.8438,-4.834,-4.8124,-4.8034,-4.7972,-4.8077,-4.8069,-4.8031,-4.7937,-4.7851,-4.7829,-4.7832,-4.751,-4.7207,-4.6885,-4.6999,-4.6733,-4.6639,-4.6411,-4.5558,-4.4895,-4.5028,-4.516,-4.5103,-4.5066,-4.5054,-4.5105,-4.5032,-4.4973,-4.5086,-4.505,-4.4983,-4.4862,-4.4552,-4.4477,-4.4468,-4.499,-4.5507,-4.5696,-4.5986,-4.6415,-4.6935,-4.7607,-4.8125,-4.8356,-4.8433,-4.8221,-4.7665,-4.7066,-4.6302,-4.5609,-4.324,-4.3571,-4.4021,-4.4434,-4.4635,-4.4339,-4.4524,-4.5177,-4.5318,-4.5353,-4.5423,-4.5938,-4.6363,-4.6863,-4.7335,-4.7692,-4.7955,-4.8093,-4.8093,-4.819,-4.8093,-4.819,-4.8229,-4.8286,-4.8504,-4.8718,-4.8703,-4.8545,-4.9021,-4.9046,-4.9296,-4.9693,-4.9731,-4.9788,-5.0079,-5.0732,-5.1187,-5.1604,-5.2096,-5.2075,-5.1834,-5.1672,-5.1255,-5.0832,-5.0625,-5.0738,-5.0756,-5.0773,-5.081,-5.1099,-5.162,-5.2099,-5.2853,-5.3955,-5.4674,-5.5034,-5.4912,-5.4299,-5.3615,-5.3336,-5.2872,-5.1725,-5.0991,-5.0038,-4.9419,-4.9314,-4.9131,-4.906,-4.9037,-4.9397,-4.9625,-4.954,-4.9484,-4.9416,-4.934,-4.9121,-4.8742,-4.8382,-4.8003,-4.77,-4.7226,-4.6961,-4.6695,-4.5975,-4.5198,-4.5653,-4.5824,-4.5767,-4.5704,-4.5559,-4.5653,-4.5811,-4.5783,-4.5817,-4.5743,-4.5574,-4.5429,-4.5231,-4.511,-4.5148,-4.5708,-4.6348,-4.6636,-4.7106,-4.7761,-4.8298,-4.8605,-4.9086,-4.9606,-4.9529,-4.9122,-4.8527,-4.7702,-4.6623,-4.5922,-4.4078,-4.4412,-4.4872,-4.5123,-4.5177,-4.5069,-4.5123,-4.5371,-4.5371,-4.5441,-4.5406,-4.5938,-4.6266,-4.6477,-4.689,-4.716,-4.7248,-4.7291,-4.7291,-4.7421,-4.7692,-4.7775,-4.7897,-4.8093,-4.8391,-4.8522,-4.8524,-4.8489,-4.8714,-4.8802,-4.9246,-4.9797,-4.9759,-4.9807,-5.0317,-5.13,-5.1736,-5.2229,-5.2854,-5.2731,-5.2292,-5.2132,-5.1414,-5.0711,-5.0425,-5.0507,-5.0527,-5.0682,-5.0756,-5.091,-5.1641,-5.2315,-5.3242,-5.4197,-5.4894,-5.4948,-5.482,-5.4497,-5.3727,-5.3533,-5.3227,-5.2572,-5.1817,-5.1164,-5.0504,-5.0099,-4.998,-4.981,-4.9686,-4.9803,-4.9843,-4.9816,-4.9816,-4.9787,-4.97,-4.9443,-4.9121,-4.8988,-4.8609,-4.8193,-4.7719,-4.734,-4.7055,-4.6184,-4.5596,-4.6177,-4.6525,-4.6512,-4.6392,-4.6247,-4.6405,-4.6607,-4.6784,-4.6866,-4.6417,-4.6152,-4.6079,-4.5936,-4.5921,-4.6176,-4.6959,-4.7507,-4.7741,-4.8183,-4.8758,-4.9065,-4.9277,-4.974,-5.0163,-4.9886,-4.9475,-4.8936,-4.8302,-4.7232,-4.6553,-4.4618,-4.5015,-4.5318,-4.5441,-4.5441,-4.5441,-4.5441,-4.5441,-4.5441,-4.5441,-4.5476,-4.5938,-4.6186,-4.6266,-4.6678,-4.6954,-4.6954,-4.6999,-4.6999,-4.7089,-4.716,-4.7421,-4.7674,-4.7929,-4.8543,-4.8663,-4.8687,-4.8593,-4.8805,-4.8861,-4.9201,-4.9824,-4.9778,-4.9788,-5.0325,-5.1376,-5.2229,-5.2798,-5.3252,-5.349,-5.3138,-5.255,-5.1551,-5.0685,-5.0397,-5.0191,-5.0252,-5.0449,-5.0587,-5.0721,-5.1453,-5.2492,-5.3514,-5.4587,-5.5007,-5.5059,-5.4826,-5.4617,-5.4191,-5.4094,-5.371,-5.3249,-5.2756,-5.2086,-5.1299,-5.0673,-5.0382,-5.0106,-4.9974,-4.9879,-4.9816,-4.9759,-4.9788,-4.9788,-4.9616,-4.9462,-4.9405,-4.9386,-4.9045,-4.8628,-4.823,-4.7851,-4.7207,-4.6335,-4.607,-4.6815,-4.7302,-4.7452,-4.7276,-4.703,-4.7302,-4.7637,-4.7819,-4.7938,-4.7457,-4.7105,-4.7131,-4.7138,-4.7085,-4.7452,-4.8222,-4.8644,-4.8853,-4.9236,-4.9714,-4.9852,-4.9894,-5.0144,-5.0394,-5.0074,-4.9835,-4.9525,-4.8843,-4.7859,-4.7416,-4.4889,-4.53,-4.5371,-4.5441,-4.5441,-4.5441,-4.5371,-4.5353,-4.5371,-4.5371,-4.5459,-4.5887,-4.6038,-4.6087,-4.6394,-4.6584,-4.6537,-4.6537,-4.6472,-4.6771,-4.6753,-4.6963,-4.7335,-4.7663,-4.8325,-4.9026,-4.9127,-4.8513,-4.9273,-4.9212,-4.9137,-4.9824,-4.9788,-4.9882,-5.042,-5.1642,-5.2475,-5.2987,-5.3764,-5.4258,-5.3404,-5.274,-5.1944,-5.109,-5.0374,-4.986,-4.9955,-5.0107,-5.0312,-5.0689,-5.1382,-5.2529,-5.3783,-5.4838,-5.5144,-5.5313,-5.5103,-5.4868,-5.4791,-5.4735,-5.4583,-5.4235,-5.3906,-5.2818,-5.1798,-5.0851,-5.0412,-5.0212,-5.0038,-4.9952,-4.9871,-4.9843,-4.9843,-4.9843,-4.9738,-4.9671,-4.9652,-4.9633,-4.9462,-4.9045,-4.8628,-4.8287,-4.8193,-4.7416,-4.7144,-4.772,-4.7984,-4.8215,-4.8395,-4.8071,-4.8176,-4.8605,-4.8907,-4.8993,-4.8715,-4.8431,-4.8432,-4.8414,-4.8259,-4.8622,-4.9332,-4.9693,-4.9956,-5.0152,-5.0273,-5.0394,-5.0491,-5.0528,-5.0387,-5.0187,-4.9999,-5.0025,-4.939,-4.8488,-4.8337,-4.4429,-4.4872,-4.5247,-4.5441,-4.5423,-4.5441,-4.53,-4.5247,-4.5247,-4.5247,-4.5423,-4.5441,-4.5529,-4.5701,-4.5803,-4.5887,-4.5837,-4.587,-4.5666,-4.5835,-4.6035,-4.6548,-4.6963,-4.7439,-4.8073,-4.8243,-4.8247,-4.8324,-4.8721,-4.8827,-4.8971,-4.9488,-4.9644,-5.0005,-5.0656,-5.185,-5.2513,-5.3063,-5.3821,-5.3962,-5.2967,-5.183,-5.0874,-5.0374,-4.9825,-5.0001,-5.0271,-5.0773,-5.1051,-5.1376,-5.2126,-5.3107,-5.4185,-5.4805,-5.5301,-5.5589,-5.5586,-5.5296,-5.4951,-5.4895,-5.4647,-5.3937,-5.3263,-5.2665,-5.1872,-5.0945,-5.0377,-5.0212,-5.0108,-5.0005,-4.9925,-4.9906,-4.9879,-4.9879,-4.9879,-4.9879,-4.9879,-4.9841,-4.9784,-4.9386,-4.8969,-4.8875,-4.8837,-4.8757,-4.8542,-4.8542,-4.8629,-4.8938,-4.9532,-4.9532,-4.9113,-4.9484,-4.9969,-5.0029,-4.974,-4.9546,-4.943,-4.9425,-4.9266,-4.9782,-5.0359,-5.0414,-5.0433,-5.0595,-5.0718,-5.0664,-5.0506,-5.0383,-5.0249,-5.0095,-5.0012,-4.9986,-4.9959,-4.9292,-4.933,-4.4106,-4.4725,-4.5123,-4.5111,-4.4905,-4.4932,-4.4719,-4.4354,-4.4627,-4.478,-4.4818,-4.5069,-4.5247,-4.53,-4.5371,-4.5371,-4.5318,-4.5247,-4.5283,-4.5319,-4.5649,-4.6182,-4.6642,-4.7222,-4.8001,-4.827,-4.8361,-4.8443,-4.8341,-4.8476,-4.8783,-4.9283,-4.9663,-5.0052,-5.0733,-5.1471,-5.2324,-5.3063,-5.3726,-5.344,-5.2708,-5.2186,-5.1824,-5.1303,-5.0948,-5.0884,-5.0998,-5.1524,-5.1751,-5.2221,-5.2968,-5.359,-5.4436,-5.5055,-5.5532,-5.5821,-5.584,-5.5608,-5.4937,-5.4456,-5.4188,-5.3338,-5.2623,-5.2022,-5.166,-5.0807,-5.0325,-5.0163,-5.0163,-5.0063,-4.9933,-4.9879,-4.9879,-4.9879,-4.9879,-4.9879,-4.9879,-4.986,-4.9576,-4.9056,-4.8924,-4.9178,-4.9205,-4.9398,-4.9276,-4.9482,-4.9572,-4.9633,-5.0237,-5.0508,-5.0221,-5.0125,-5.0452,-5.0605,-5.0297,-5.0216,-5.0243,-5.0233,-5.0152,-5.0387,-5.0642,-5.0758,-5.0874,-5.0793,-5.0683,-5.0585,-5.0442,-5.0272,-5.0149,-5.0012,-4.9952,-4.9906,-4.9879,-4.9879,-4.9784,-4.342,-4.4326,-4.481,-4.4679,-4.4127,-4.4419,-4.4091,-4.3485,-4.4007,-4.4219,-4.4186,-4.4852,-4.514,-4.5194,-4.53,-4.5247,-4.5194,-4.5086,-4.5032,-4.5283,-4.5563,-4.6151,-4.6678,-4.7143,-4.7861,-4.8339,-4.8508,-4.8348,-4.8187,-4.8344,-4.8677,-4.9188,-4.9446,-4.9642,-5.0156,-5.0827,-5.1774,-5.2646,-5.3196,-5.3328,-5.3345,-5.3467,-5.3029,-5.2734,-5.2526,-5.2039,-5.2092,-5.2313,-5.2512,-5.2939,-5.358,-5.423,-5.4688,-5.5228,-5.5556,-5.588,-5.5959,-5.5306,-5.4419,-5.3589,-5.314,-5.2574,-5.1976,-5.1561,-5.1228,-5.0773,-5.0316,-5.0139,-5.0139,-5.0108,-4.9978,-4.9955,-4.9955,-4.9917,-4.9917,-4.9879,-4.9879,-4.9906,-4.9462,-4.8962,-4.9205,-4.947,-4.9664,-4.9887,-5.0054,-5.0272,-5.044,-5.0606,-5.072,-5.0663,-5.0509,-5.0394,-5.051,-5.0587,-5.0623,-5.0619,-5.0623,-5.0674,-5.0577,-5.0755,-5.0855,-5.0767,-5.0715,-5.0663,-5.0546,-5.0495,-5.0348,-5.0169,-5.0038,-4.9971,-4.9925,-4.9879,-4.9879,-4.9879,-4.9879,-4.1468,-4.2272,-4.3659,-4.4023,-4.3685,-4.433,-4.4271,-4.3805,-4.4061,-4.4179,-4.4253,-4.4592,-4.4923,-4.5032,-4.5194,-4.5194,-4.5032,-4.4978,-4.523,-4.5529,-4.5717,-4.6297,-4.6835,-4.7214,-4.7601,-4.7953,-4.8122,-4.7928,-4.7988,-4.8208,-4.8514,-4.8937,-4.9302,-4.9838,-5.0828,-5.1357,-5.1708,-5.2579,-5.328,-5.3631,-5.3936,-5.3679,-5.2779,-5.2579,-5.255,-5.2455,-5.2634,-5.3176,-5.3423,-5.3685,-5.4014,-5.469,-5.5092,-5.5306,-5.5459,-5.5538,-5.5635,-5.4648,-5.364,-5.3075,-5.264,-5.1716,-5.1285,-5.1274,-5.0881,-5.0442,-5.0119,-5.0005,-5.0005,-5.0081,-5.0031,-5.0163,-5.0201,-5.005,-4.9993,-4.9917,-4.9879,-4.9952,-4.9808,-4.9714,-4.9847,-5.0016,-5.0115,-5.0265,-5.0349,-5.0506,-5.0606,-5.0738,-5.0773,-5.0773,-5.0756,-5.0663,-5.0567,-5.0699,-5.0769,-5.0715,-5.0745,-5.0855,-5.0951,-5.102,-5.0911,-5.0586,-5.0529,-5.0947,-5.0658,-5.0411,-5.0253,-5.0349,-5.0043,-5.0001,-4.9944,-4.9879,-4.9898,-4.9936,-4.9974]}]]